[[{"header":{"parameterUnit":"m.s-1","parameterCategory":1,"la1":30.6,"la2":29.2853,"lo1":-89.7004,"lo2":-87.6739,"dy":0.0162,"dx":0.0183,"nx":112,"ny":82,"refTime":"2023-03-01T06:00:00:Z","depth":0,"parameterNumber":2,"parameterNumberName":"U-component_of_WINDS"},"data":[0.0,0.0,0.0,0.0,0.0,0.0,0.0,0.0,0.0,0.0,0.0,0.0,0.0,0.0,0.0,0.0,0.0,0.0,0.0,0.0,0.0,0.0,0.0,0.0,0.0,0.0,0.0,0.0,0.0,0.0,0.0,0.0,0.0,0.0,0.0,0.0,0.0,0.0,0.0,0.0,0.0,0.0,0.0,0.0,0.0,0.0,0.0,0.0,0.0,0.0,0.0,0.0,0.0,0.0,0.0,0.0,0.0,0.0,0.0,0.0,0.0,0.0,0.0,0.0,0.0,0.0,0.0,0.0,0.0,0.0,0.0,0.0,0.0,0.0,0.0,0.0,0.0,0.0,0.0,0.0,0.0,0.0,0.0,0.0,0.0,0.0,0.0,0.0,0.0,0.0,0.0,2.4406,2.5638,2.6369,2.6038,2.5521,2.5367,2.5705,0.0,0.0,0.0,0.0,0.0,0.0,0.0,0.0,0.0,0.0,0.0,0.0,0.0,0.0,0.0,0.0,0.0,0.0,0.0,0.0,0.0,0.0,0.0,0.0,0.0,0.0,0.0,0.0,0.0,0.0,0.0,0.0,0.0,0.0,0.0,0.0,0.0,0.0,0.0,0.0,0.0,0.0,0.0,0.0,0.0,0.0,0.0,0.0,0.0,0.0,0.0,0.0,0.0,0.0,0.0,0.0,0.0,0.0,0.0,0.0,0.0,0.0,0.0,0.0,0.0,0.0,0.0,0.0,0.0,0.0,0.0,0.0,0.0,0.0,0.0,0.0,0.0,0.0,0.0,0.0,0.0,0.0,0.0,0.0,0.0,0.0,0.0,0.0,0.0,0.0,0.0,0.0,0.0,0.0,0.0,0.0,0.0,0.0,0.0,0.0,0.0,0.0,0.0,0.0,2.5119,2.6016,2.6352,2.6502,2.6477,2.631,2.6205,2.6262,0.0,0.0,0.0,0.0,0.0,0.0,0.0,0.0,0.0,0.0,0.0,0.0,0.0,0.0,0.0,0.0,0.0,0.0,0.0,0.0,0.0,0.0,0.0,0.0,0.0,0.0,0.0,0.0,0.0,0.0,0.0,0.0,0.0,0.0,0.0,0.0,0.0,0.0,0.0,0.0,0.0,0.0,0.0,0.0,0.0,0.0,0.0,0.0,0.0,0.0,0.0,0.0,0.0,0.0,0.0,0.0,0.0,0.0,0.0,0.0,0.0,0.0,0.0,0.0,0.0,0.0,0.0,0.0,0.0,0.0,0.0,0.0,0.0,0.0,0.0,0.0,0.0,0.0,0.0,0.0,0.0,0.0,0.0,0.0,0.0,0.0,0.0,0.0,0.0,0.0,0.0,0.0,0.0,0.0,0.0,0.0,0.0,0.0,0.0,0.0,0.0,0.0,0.0,2.5089,2.5738,2.6911,2.7035,2.7013,2.6938,2.6575,2.6251,2.6037,2.5302,0.0,0.0,0.0,0.0,0.0,0.0,0.0,0.0,0.0,0.0,0.0,0.0,0.0,0.0,0.0,0.0,0.0,0.0,0.0,0.0,0.0,0.0,0.0,0.0,0.0,0.0,0.0,0.0,0.0,0.0,0.0,0.0,0.0,0.0,0.0,0.0,0.0,0.0,0.0,0.0,0.0,0.0,0.0,0.0,0.0,0.0,0.0,0.0,0.0,0.0,0.0,0.0,0.0,0.0,0.0,0.0,0.0,0.0,0.0,0.0,0.0,0.0,0.0,0.0,0.0,0.0,0.0,0.0,0.0,0.0,0.0,0.0,0.0,0.0,0.0,0.0,0.0,0.0,0.0,0.0,0.0,0.0,0.0,0.0,0.0,0.0,0.0,0.0,0.0,0.0,0.0,0.0,0.0,0.0,0.0,0.0,0.0,0.0,0.0,0.0,0.0,0.0,2.5989,2.6443,2.7237,2.7428,2.7421,2.7174,2.6731,2.6362,2.6065,2.6033,0.0,0.0,0.0,0.0,0.0,0.0,0.0,0.0,0.0,0.0,0.0,0.0,0.0,0.0,0.0,0.0,0.0,0.0,0.0,0.0,0.0,0.0,0.0,0.0,0.0,0.0,0.0,0.0,0.0,0.0,0.0,0.0,0.0,0.0,0.0,0.0,0.0,0.0,0.0,0.0,0.0,0.0,0.0,0.0,0.0,0.0,0.0,0.0,0.0,0.0,0.0,0.0,0.0,0.0,0.0,0.0,0.0,0.0,0.0,0.0,0.0,0.0,0.0,0.0,0.0,0.0,0.0,0.0,0.0,0.0,0.0,0.0,0.0,0.0,0.0,0.0,0.0,0.0,0.0,0.0,0.0,0.0,0.0,0.0,0.0,0.0,0.0,0.0,0.0,0.0,0.0,0.0,0.0,0.0,0.0,0.0,0.0,0.0,0.0,0.0,0.0,0.0,2.6717,2.7237,2.6887,2.7229,2.7361,2.7046,2.6984,2.6993,2.7081,2.6872,0.0,0.0,0.0,0.0,0.0,0.0,0.0,0.0,0.0,0.0,0.0,0.0,0.0,0.0,0.0,0.0,0.0,0.0,0.0,0.0,0.0,0.0,0.0,0.0,0.0,0.0,0.0,0.0,0.0,0.0,0.0,0.0,0.0,0.0,0.0,0.0,0.0,0.0,0.0,0.0,0.0,0.0,0.0,0.0,0.0,0.0,0.0,0.0,0.0,0.0,0.0,0.0,0.0,0.0,0.0,0.0,0.0,0.0,0.0,0.0,0.0,0.0,0.0,0.0,0.0,0.0,0.0,0.0,0.0,0.0,0.0,0.0,0.0,0.0,0.0,0.0,0.0,0.0,0.0,0.0,0.0,0.0,0.0,0.0,0.0,0.0,0.0,0.0,0.0,0.0,0.0,0.0,0.0,0.0,0.0,0.0,0.0,0.0,0.0,0.0,0.0,0.0,2.7243,2.7917,0.0,2.7647,2.7691,2.7564,2.7287,2.6881,2.6292,0.0,0.0,0.0,0.0,0.0,0.0,0.0,0.0,0.0,0.0,0.0,0.0,0.0,0.0,0.0,0.0,0.0,0.0,0.0,0.0,0.0,0.0,0.0,0.0,0.0,0.0,0.0,0.0,0.0,0.0,0.0,0.0,0.0,0.0,0.0,0.0,0.0,0.0,0.0,0.0,0.0,0.0,0.0,0.0,0.0,0.0,0.0,0.0,0.0,0.0,0.0,0.0,0.0,0.0,0.0,0.0,0.0,0.0,0.0,0.0,0.0,0.0,0.0,0.0,0.0,0.0,0.0,0.0,0.0,0.0,0.0,0.0,0.0,0.0,0.0,0.0,0.0,0.0,0.0,0.0,0.0,0.0,0.0,0.0,0.0,0.0,0.0,0.0,0.0,0.0,0.0,0.0,0.0,0.0,0.0,0.0,0.0,0.0,0.0,0.0,0.0,0.0,2.6752,2.7913,2.8573,0.0,2.8281,2.8322,2.8178,2.7856,2.7278,2.6364,0.0,0.0,0.0,0.0,0.0,0.0,0.0,0.0,0.0,0.0,0.0,0.0,0.0,0.0,0.0,0.0,0.0,0.0,0.0,0.0,0.0,0.0,0.0,0.0,0.0,0.0,0.0,0.0,0.0,0.0,0.0,0.0,0.0,0.0,0.0,0.0,0.0,0.0,0.0,0.0,0.0,0.0,0.0,0.0,0.0,0.0,0.0,0.0,0.0,0.0,0.0,0.0,0.0,0.0,0.0,0.0,0.0,0.0,0.0,0.0,0.0,0.0,0.0,0.0,0.0,0.0,0.0,0.0,0.0,0.0,0.0,0.0,0.0,0.0,0.0,0.0,0.0,0.0,0.0,0.0,0.0,0.0,0.0,0.0,0.0,0.0,0.0,0.0,0.0,0.0,0.0,0.0,0.0,0.0,0.0,0.0,0.0,0.0,0.0,0.0,0.0,0.0,2.7736,2.873,2.9227,2.8743,2.9108,2.9194,2.8743,2.87,2.8382,0.0,0.0,0.0,0.0,0.0,0.0,0.0,0.0,0.0,0.0,0.0,0.0,0.0,0.0,0.0,0.0,0.0,0.0,0.0,0.0,0.0,0.0,0.0,0.0,0.0,0.0,0.0,0.0,0.0,0.0,0.0,0.0,0.0,0.0,0.0,0.0,0.0,0.0,0.0,0.0,0.0,0.0,0.0,0.0,0.0,0.0,0.0,0.0,0.0,0.0,0.0,0.0,0.0,0.0,0.0,0.0,0.0,0.0,0.0,0.0,0.0,0.0,0.0,0.0,0.0,0.0,0.0,0.0,0.0,0.0,0.0,0.0,0.0,0.0,0.0,0.0,0.0,0.0,0.0,0.0,0.0,0.0,0.0,0.0,0.0,0.0,0.0,0.0,0.0,0.0,0.0,0.0,0.0,0.0,0.0,0.0,0.0,0.0,0.0,0.0,0.0,0.0,0.0,2.7408,2.8605,2.9278,2.8756,2.883,2.8851,2.8722,2.87,2.8163,2.6899,0.0,0.0,0.0,0.0,0.0,0.0,0.0,0.0,0.0,0.0,0.0,0.0,0.0,0.0,0.0,0.0,0.0,0.0,0.0,0.0,0.0,0.0,0.0,0.0,0.0,0.0,0.0,0.0,0.0,0.0,0.0,0.0,0.0,0.0,0.0,0.0,0.0,0.0,0.0,0.0,0.0,0.0,0.0,0.0,0.0,0.0,0.0,0.0,0.0,0.0,0.0,0.0,0.0,0.0,0.0,0.0,0.0,0.0,0.0,0.0,0.0,0.0,0.0,0.0,0.0,0.0,0.0,0.0,0.0,0.0,0.0,0.0,0.0,0.0,0.0,0.0,0.0,0.0,0.0,0.0,0.0,0.0,0.0,0.0,0.0,0.0,0.0,0.0,0.0,0.0,0.0,0.0,0.0,0.0,0.0,0.0,0.0,0.0,0.0,0.0,0.0,0.0,2.783,2.8889,2.9565,2.931,2.9309,2.9309,2.9309,2.9309,2.8746,2.7458,0.0,0.0,0.0,0.0,0.0,0.0,0.0,0.0,0.0,0.0,0.0,0.0,0.0,0.0,0.0,0.0,0.0,0.0,0.0,0.0,0.0,0.0,0.0,0.0,0.0,0.0,0.0,0.0,0.0,0.0,0.0,0.0,0.0,0.0,0.0,0.0,0.0,0.0,0.0,0.0,0.0,0.0,0.0,0.0,0.0,0.0,0.0,0.0,0.0,0.0,0.0,0.0,0.0,0.0,0.0,0.0,0.0,0.0,0.0,0.0,0.0,0.0,0.0,0.0,0.0,0.0,0.0,0.0,0.0,0.0,0.0,0.0,0.0,0.0,0.0,0.0,0.0,0.0,0.0,0.0,0.0,0.0,0.0,0.0,0.0,0.0,0.0,0.0,0.0,0.0,0.0,0.0,0.0,0.0,0.0,0.0,0.0,0.0,0.0,0.0,0.0,0.0,2.8679,2.9429,2.9988,3.017,3.0193,3.0193,3.0193,3.0193,2.9757,2.8758,0.0,0.0,0.0,0.0,0.0,0.0,0.0,0.0,0.0,0.0,0.0,0.0,0.0,0.0,0.0,0.0,0.0,0.0,0.0,0.0,0.0,0.0,0.0,0.0,0.0,0.0,0.0,0.0,0.0,0.0,0.0,0.0,0.0,0.0,0.0,0.0,0.0,0.0,0.0,0.0,0.0,0.0,0.0,0.0,0.0,0.0,0.0,0.0,0.0,0.0,0.0,0.0,0.0,0.0,0.0,0.0,0.0,0.0,0.0,0.0,1.617,0.0,0.0,0.0,0.0,0.0,0.0,0.0,0.0,0.0,0.0,0.0,0.0,0.0,0.0,0.0,0.0,0.0,0.0,0.0,0.0,0.0,0.0,0.0,0.0,0.0,0.0,0.0,0.0,0.0,0.0,0.0,0.0,0.0,0.0,0.0,0.0,0.0,0.0,0.0,0.0,0.0,2.87,2.9551,3.0159,3.0193,3.0193,3.0193,3.0193,3.0193,2.9757,2.8758,2.8609,0.0,0.0,0.0,0.0,0.0,0.0,0.0,0.0,0.0,0.0,0.0,0.0,0.0,0.0,0.0,0.0,0.0,0.0,0.0,0.0,0.0,0.0,0.0,0.0,0.0,0.0,0.0,0.0,0.0,0.0,0.0,0.0,0.0,0.0,0.0,0.0,0.0,0.0,0.0,0.0,0.0,0.0,0.0,0.0,0.0,0.0,0.0,0.0,0.0,0.0,0.0,0.0,0.0,0.0,0.0,0.0,0.0,0.0,0.0,0.0,1.6221,0.0,0.0,0.0,0.0,0.0,0.0,0.0,0.0,0.0,0.0,0.0,0.0,0.0,0.0,0.0,0.0,0.0,0.0,0.0,0.0,0.0,0.0,0.0,0.0,0.0,0.0,0.0,0.0,0.0,0.0,0.0,0.0,0.0,0.0,0.0,0.0,0.0,0.0,0.0,0.0,2.883,2.9551,3.0091,3.0193,3.0193,3.0193,3.0193,3.0193,2.9975,2.9436,2.9217,0.0,0.0,0.0,0.0,0.0,0.0,0.0,0.0,0.0,0.0,0.0,0.0,0.0,0.0,0.0,0.0,0.0,0.0,0.0,0.0,0.0,0.0,0.0,0.0,0.0,0.0,0.0,0.0,0.0,0.0,0.0,0.0,0.0,0.0,0.0,0.0,0.0,0.0,0.0,0.0,0.0,0.0,0.0,0.0,0.0,0.0,0.0,0.0,0.0,0.0,0.0,0.0,0.0,1.7428,1.7642,1.8079,1.835,1.8621,1.8796,1.7481,1.7005,1.7108,1.6484,0.0,0.0,0.0,0.0,0.0,0.0,0.0,0.0,0.0,0.0,0.0,0.0,0.0,0.0,0.0,0.0,0.0,0.0,0.0,0.0,0.0,0.0,0.0,0.0,2.4031,2.3834,0.0,0.0,0.0,0.0,0.0,0.0,0.0,0.0,0.0,0.0,0.0,0.0,2.9054,2.9598,3.0011,3.017,3.0193,3.0193,3.0193,3.0193,3.0193,3.0193,2.9848,2.9584,0.0,0.0,0.0,0.0,0.0,0.0,0.0,0.0,0.0,0.0,0.0,0.0,0.0,0.0,0.0,0.0,0.0,0.0,0.0,0.0,0.0,0.0,0.0,0.0,0.0,0.0,0.0,0.0,0.0,0.0,0.0,0.0,1.1805,1.1944,0.0,0.0,0.0,0.0,0.0,0.0,0.0,0.0,0.0,0.0,0.0,0.0,0.0,1.6578,1.6618,1.6632,1.7033,1.7829,1.7874,1.8326,1.9107,1.9159,1.9195,1.9224,1.9012,0.0,1.8086,1.7713,0.0,0.0,0.0,0.0,0.0,0.0,0.0,0.0,0.0,0.0,0.0,0.0,0.0,0.0,0.0,0.0,0.0,0.0,0.0,0.0,0.0,0.0,2.5128,2.5153,2.5164,2.5139,0.0,2.4408,2.3942,2.3966,2.4089,0.0,0.0,0.0,0.0,0.0,0.0,0.0,2.9376,2.986,3.017,3.0193,3.0193,3.0193,3.0193,3.0193,3.0193,3.0193,3.0136,2.9906,2.9515,2.8567,0.0,0.0,0.0,0.0,0.0,0.0,0.0,0.0,0.0,0.0,0.0,0.0,0.0,0.0,0.0,0.0,0.0,0.0,0.0,0.0,0.0,0.0,0.0,0.0,0.0,0.0,0.0,0.0,0.0,1.1661,1.1862,1.1325,1.0902,1.0409,0.0,0.0,0.0,0.0,0.0,0.0,0.0,0.0,0.0,1.6559,1.6666,1.6811,1.6995,1.7016,1.7496,1.84,1.8451,1.8925,1.9813,1.9813,1.9813,1.9806,1.9657,1.9415,1.9093,1.8372,1.7872,1.7558,0.0,0.0,0.0,0.0,1.7222,1.7308,1.8534,1.9195,1.942,1.9193,0.0,0.0,0.0,0.0,0.0,0.0,0.0,0.0,0.0,0.0,2.5453,2.5673,2.5554,2.5398,2.5398,2.512,2.4777,0.0,2.4236,2.4018,2.3829,0.0,0.0,0.0,0.0,2.9749,2.968,2.9973,3.0193,3.0193,3.0193,3.0193,3.0193,3.0193,3.0011,2.96,2.9577,2.9304,2.867,2.794,2.7412,0.0,0.0,0.0,0.0,0.0,0.0,0.0,0.0,0.0,0.0,0.0,0.0,0.0,0.0,0.0,0.0,0.0,0.0,0.0,0.0,0.0,0.0,0.0,0.0,0.0,0.0,0.0,0.0,1.24,1.2332,1.1096,1.152,1.1318,0.0,0.0,0.0,0.0,0.0,0.0,1.6231,1.662,1.6879,1.6955,1.6925,1.7093,1.7413,1.7423,1.7813,1.8598,1.8815,1.9312,1.9991,2.0156,2.021,2.0196,1.9989,1.9862,1.9749,1.8909,1.8408,1.8167,1.7918,1.7748,1.7689,1.777,1.7748,1.7854,1.9001,1.961,1.9788,1.9092,2.0594,2.2511,2.1467,0.0,0.0,0.0,0.0,2.4966,2.5655,2.5618,2.5471,2.5765,2.5609,2.5398,2.5398,2.5398,2.5238,0.0,2.4341,2.42,2.4388,0.0,0.0,0.0,0.0,2.9738,2.9851,3.0057,3.0215,3.0388,3.04,3.0342,3.0205,3.0034,2.9692,2.9128,2.8908,2.856,2.8021,2.738,2.6989,2.6942,0.0,0.0,0.0,0.0,0.0,0.0,0.0,0.0,0.0,0.0,0.0,0.0,0.0,0.0,0.0,0.0,0.0,0.0,0.0,0.0,0.0,0.0,0.0,0.0,0.0,0.0,0.0,0.0,0.0,1.2135,1.3578,0.0,0.0,0.0,0.0,1.4331,1.5171,1.5824,1.6269,1.7215,1.753,1.7088,1.7029,1.7166,1.7488,1.7486,1.7682,1.8049,1.8883,1.9332,1.9463,1.9964,2.021,2.021,2.0196,2.004,1.9759,1.94,1.9246,1.9224,1.921,1.8986,1.8752,1.9093,1.9012,1.8938,2.0464,2.0259,1.9424,1.9945,1.9798,1.98,2.1795,2.2492,0.0,0.0,2.4498,2.4902,2.5315,2.5416,2.5407,2.5425,2.5416,2.5398,2.5398,2.5398,2.5278,0.0,2.4764,2.47,2.452,0.0,2.5402,2.6482,2.6937,2.7886,2.9831,3.0105,3.0313,3.0903,3.095,3.0744,3.0239,2.9565,2.9151,2.9105,2.8443,2.8045,2.7998,2.7057,2.6439,2.6246,2.4978,0.0,0.0,0.0,0.0,0.0,0.0,0.0,0.0,0.0,0.0,0.0,0.0,0.0,0.0,0.0,0.0,0.0,0.0,0.0,0.0,0.0,0.0,0.0,0.0,0.0,0.0,0.0,0.0,1.3024,1.4187,0.0,1.308,1.3875,1.4644,1.4982,1.6154,1.6908,1.705,1.724,1.7269,1.7121,1.7068,1.7038,1.6984,1.7165,1.7423,1.7744,1.7843,1.8306,1.9072,1.9063,1.9237,1.9623,1.9623,1.9583,1.9466,1.9349,1.9305,1.9305,1.9305,1.9232,1.9144,1.9261,1.9224,1.9192,1.955,1.94,1.929,2.0799,2.1475,2.2026,2.3822,2.4358,2.4435,2.4855,2.5076,2.5278,2.5673,2.559,2.5462,2.5719,2.5581,2.5398,2.5398,2.5398,2.5352,2.5214,2.5186,2.5084,2.4746,2.5758,2.6817,2.7421,2.8614,2.9601,3.0035,3.0109,3.0176,3.0408,2.9748,2.9561,3.0083,2.9222,2.8457,2.7967,2.7612,2.7191,2.6669,2.6225,2.5959,2.5882,2.5337,2.4614,0.0,0.0,0.0,0.0,0.0,0.0,0.0,0.0,0.0,0.0,0.0,0.0,0.0,0.0,0.0,0.0,0.0,0.0,0.0,0.0,0.0,0.0,0.0,0.0,0.0,0.0,1.5491,1.3315,1.4738,1.5343,1.3856,1.495,1.576,1.576,1.6679,1.7219,1.7219,1.705,1.696,1.696,1.6874,1.6798,1.6833,1.6997,1.7217,1.7428,1.7512,1.7979,1.8761,1.8714,1.903,1.9601,1.9601,1.9601,1.9601,1.9601,1.9601,1.9579,1.9386,1.9305,1.9305,1.9305,1.9293,1.9323,1.9557,1.9594,1.9782,2.1547,2.2219,2.2703,2.4492,2.5119,2.5306,2.5696,2.5811,2.5866,2.6132,2.6003,2.5875,2.6141,2.5994,2.5811,2.5811,2.5811,2.5811,2.5811,2.559,2.5352,2.5223,2.6107,2.7075,2.7733,2.8603,2.9328,2.9739,2.9611,2.9553,2.9767,2.9109,2.8896,2.9483,2.8471,2.7678,2.7334,2.6823,2.6381,2.5983,2.5606,2.5498,2.5618,2.5455,2.4982,2.4178,0.0,0.0,0.0,0.0,0.0,0.0,0.0,0.0,0.0,0.0,0.0,0.0,0.0,0.0,0.0,0.0,0.0,0.0,0.0,0.0,0.0,0.0,0.0,1.4933,1.5233,1.4909,1.3148,1.5389,1.6466,1.4917,1.5947,1.67,1.67,1.6706,1.6712,1.6712,1.6712,1.6712,1.6712,1.6397,1.6522,1.7086,1.7128,1.7128,1.7127,1.7966,1.8414,1.8511,1.9037,1.9594,2.0157,2.0157,2.0177,2.017,2.017,2.019,2.0117,1.955,1.9327,1.9334,1.9334,1.9295,1.9465,2.0674,2.0943,2.095,2.2172,2.1888,2.1499,2.3706,2.4643,2.5184,2.63,2.6591,2.6591,2.6637,2.6637,2.6609,2.6619,2.6628,2.6628,2.6628,2.6628,2.6628,2.6628,2.6013,2.5581,2.5966,2.5691,2.5919,2.7317,2.6675,0.0,2.8891,2.859,2.8453,2.9075,2.9126,2.89,2.8418,2.7327,2.6853,2.7252,2.6183,2.5698,2.6088,2.5365,2.5109,2.5525,2.5245,2.5109,2.5103,0.0,0.0,0.0,0.0,0.0,0.0,0.0,0.0,0.0,0.0,0.0,0.0,0.0,0.0,0.0,0.0,0.0,0.0,0.0,0.0,0.0,0.0,1.6348,1.6172,1.6442,1.6468,1.5977,1.6446,1.6636,1.6201,1.6484,1.67,1.67,1.6875,1.6984,1.6984,1.6984,1.6984,1.6984,1.7078,1.712,1.7092,1.7482,1.7573,1.7405,1.7617,1.7955,1.8352,1.8518,1.8898,1.9477,1.9477,1.9602,1.9843,1.9843,1.9862,1.9902,1.9932,1.9947,1.992,1.9738,1.9382,1.9214,2.0738,2.1594,2.2264,2.3758,2.4612,2.5155,2.5774,2.6045,2.619,2.65,2.6591,2.6683,2.6967,2.7041,2.7114,2.7399,2.7472,2.7472,2.7472,2.7472,2.7472,2.7472,2.7288,2.6986,2.6527,2.6352,2.6673,2.7835,2.7765,0.0,2.8391,2.8304,2.8172,2.8053,2.7346,2.7141,2.7768,2.6816,2.6374,2.6769,2.6377,2.6199,2.6321,2.598,2.5886,2.6143,2.5468,2.5157,0.0,0.0,0.0,0.0,0.0,0.0,0.0,0.0,0.0,0.0,0.0,0.0,0.0,0.0,0.0,0.0,0.0,0.0,0.0,0.0,0.0,0.0,1.6694,1.6949,1.7202,1.7057,1.6966,1.708,1.6998,1.6939,1.7077,1.7076,1.7092,1.7092,1.7121,1.7151,1.7151,1.7118,1.7092,1.7092,1.7346,1.749,1.7448,1.775,1.7889,1.7853,1.7853,1.8116,1.8669,1.8669,1.9109,1.9818,1.9818,2.0025,2.0316,2.0189,2.0146,0.0,0.0,0.0,0.0,0.0,2.1117,2.195,2.2751,2.3424,2.418,2.5458,2.6196,2.6678,2.7203,2.7462,2.7619,2.7619,2.7619,2.7674,2.7903,2.7958,2.8023,2.8252,2.8298,2.8298,2.8298,2.817,2.8059,2.8059,2.7913,0.0,2.7187,2.7105,2.7335,2.805,2.7941,2.7797,2.7885,2.7691,2.7443,2.7205,2.6608,2.6501,2.7123,2.645,0.0,0.0,0.0,2.6159,2.5993,2.604,0.0,0.0,0.0,2.5611,2.5902,0.0,0.0,0.0,2.4353,2.4157,0.0,0.0,0.0,0.0,0.0,0.0,0.0,0.0,0.0,0.0,0.0,0.0,0.0,0.0,0.0,0.0,1.7195,1.7648,1.7819,1.7202,1.6797,1.7114,1.719,1.7291,1.747,1.751,1.7511,1.7511,1.7313,1.7185,1.7185,0.0,0.0,0.0,0.0,1.7671,1.7901,1.7937,1.8088,1.8342,1.8342,1.8649,1.9184,1.9152,1.9607,2.0408,2.0374,2.0548,2.0852,2.0579,2.06,2.0716,2.0087,1.9756,1.9806,2.1218,2.3435,2.5696,2.5588,0.0,0.0,2.7095,2.7159,2.7075,2.8131,2.8709,2.9014,2.9014,2.9014,2.9014,2.9014,2.9014,2.8984,2.8955,2.8984,2.8984,2.8955,2.868,2.8462,2.8462,2.8188,2.7931,2.7931,2.7858,2.7846,2.8047,2.762,2.7335,2.7516,2.7077,2.671,2.66,0.0,0.0,2.6545,2.6205,2.6169,2.6564,2.627,2.5902,2.5554,2.5875,2.5893,2.5535,2.5875,2.6242,2.6591,2.63,2.6154,2.6136,2.5289,2.5092,0.0,0.0,0.0,0.0,0.0,0.0,0.0,0.0,0.0,0.0,0.0,0.0,0.0,0.0,0.0,1.6732,1.7195,1.7454,1.7017,1.6823,1.6909,1.7428,1.7331,1.7104,1.6913,1.6871,1.6868,1.6868,1.7041,1.7128,1.7128,1.7325,1.7406,1.7406,1.7689,1.7853,1.7901,1.81,1.8348,1.8607,0.0,0.0,1.9099,1.8886,1.8758,1.8685,1.8441,1.8548,1.8881,1.9065,1.9958,2.1132,2.0472,2.078,2.1689,2.1981,2.3138,2.4704,2.5926,2.6411,2.6712,2.8192,2.8589,2.8589,2.8806,2.895,0.0,2.9014,2.9014,2.9014,2.9014,2.9014,2.8925,2.8666,2.8806,2.8925,2.8666,2.8751,2.8865,2.8865,2.883,2.8775,2.8775,2.8225,2.7823,2.7855,2.776,2.7704,2.7734,2.7631,2.7325,2.6655,2.6591,2.6481,2.6141,2.6031,2.6169,2.6564,2.6536,2.6462,2.638,2.6453,2.6462,2.638,2.6426,2.6536,2.6591,2.6527,2.65,2.6491,2.5838,2.5576,0.0,0.0,0.0,0.0,0.0,0.0,0.0,0.0,0.0,0.0,0.0,1.5813,0.0,0.0,1.678,1.6879,1.7287,1.7545,1.7357,1.7465,1.7487,1.7373,1.737,1.7396,1.7344,1.7465,1.7551,1.7551,1.7537,1.7559,1.7559,1.7657,1.7708,1.7708,1.7974,1.8113,1.8113,1.8221,1.836,1.8487,1.8487,1.8491,1.8486,1.8964,1.9205,1.9217,1.972,2.0271,2.0756,2.0741,2.1164,2.1721,2.1378,2.2142,2.3396,2.3396,2.4326,2.5684,2.6287,2.6623,2.6914,2.751,2.7851,2.805,2.8409,2.8354,2.8221,2.8407,2.8301,2.8117,2.7971,2.7942,2.7912,2.7746,2.7825,2.7912,2.7746,2.7825,2.7942,2.7942,2.7942,2.7942,2.7942,2.7607,2.7524,2.802,2.8105,2.8032,2.7821,2.7793,2.7646,2.7243,2.7206,2.7123,2.6912,2.6894,2.6976,2.7197,2.7206,2.7206,2.7206,2.7206,2.7206,2.7206,2.7206,2.7206,2.7206,2.7206,2.7122,2.6927,2.6647,2.639,0.0,0.0,0.0,0.0,0.0,0.0,0.0,0.0,1.5741,1.606,1.6121,1.6232,1.6492,1.6587,1.6766,1.7127,1.7453,1.7735,1.7877,1.8077,1.7961,1.7253,1.7482,1.7741,1.7889,1.8106,1.8217,1.8217,1.8018,1.7932,1.7982,1.7941,1.7931,1.7986,1.8203,1.8294,1.8294,1.8564,1.8711,1.876,1.903,1.9049,1.8877,1.9826,2.0402,2.0638,2.1608,2.2431,2.3011,2.2931,2.2804,2.2692,2.2827,2.3692,2.4884,2.4661,2.5635,2.7013,2.6695,2.6836,2.7111,2.679,2.6903,2.7252,2.773,2.7656,2.7427,2.764,2.7474,2.7174,2.6944,2.6887,2.6887,2.6829,2.6858,2.6887,2.6829,2.6858,2.6887,2.6887,2.6887,2.6887,2.6887,2.6887,2.7175,2.7991,2.8226,2.8182,2.7873,2.7948,2.7995,2.7922,2.7913,2.7885,2.7802,2.7793,2.7793,2.7793,2.7793,2.7793,2.7793,2.7793,2.7793,2.7793,2.7793,2.7793,2.7793,2.7793,2.7622,2.7297,2.7297,2.7089,1.1239,1.2395,1.4085,1.5499,1.5919,1.612,0.0,0.0,1.6338,1.6851,1.696,1.7038,1.7333,1.762,1.7732,1.7489,1.7741,1.787,1.7602,1.7573,1.7561,1.7472,1.7741,1.7841,1.7567,1.7573,1.7602,1.7602,1.7573,1.7676,1.7912,1.7889,1.8016,1.8239,1.8275,1.8294,1.8294,1.9498,2.0195,2.0447,2.1633,2.2328,2.2494,2.2398,2.223,2.1981,2.189,2.2044,2.2453,2.327,2.389,2.4403,2.4987,2.5497,2.5816,2.4938,2.5769,2.7352,2.7308,2.7484,2.7684,2.7667,2.7656,2.7673,2.7452,2.7339,2.7274,2.7073,2.698,2.6944,2.6924,2.6887,2.6829,2.6533,2.6677,2.6829,2.6524,2.6677,2.6887,2.6887,2.6887,2.6887,2.6887,2.6887,2.6933,2.7035,2.7562,2.7953,2.7898,2.8471,2.8739,2.8361,2.8324,2.8206,2.7821,2.7793,2.7793,2.7793,2.7793,2.7793,2.7793,2.7793,2.7793,2.7793,2.7793,2.7793,2.7793,2.7793,2.7622,2.7297,2.7297,2.7118,1.4186,1.4849,1.5532,0.0,1.664,1.6622,1.7002,1.6917,1.6863,1.7243,1.7322,1.7381,1.749,1.7602,1.7667,0.0,1.7608,1.7667,1.7514,1.7514,1.7569,1.772,1.7863,1.7892,1.7744,1.7738,1.781,1.7943,1.7986,1.836,1.9245,1.9305,1.9333,1.9461,1.9461,1.9461,1.9461,2.0032,2.0752,2.1628,2.2202,2.2419,2.2346,2.3007,2.3601,2.4194,2.4271,2.4377,2.4544,2.4915,2.526,2.5489,2.5774,2.5984,2.605,2.5621,2.5844,2.6365,2.6365,2.6286,2.624,2.624,2.6478,2.6835,2.7059,2.7217,2.739,2.7457,2.7324,2.7097,2.6944,2.6887,2.6858,2.6705,2.6801,2.6858,2.6705,2.6801,2.6887,2.6887,2.6887,2.6829,2.6648,2.6619,2.6619,2.6619,2.702,2.7338,2.7338,2.7598,2.7721,2.7539,2.7864,2.8044,2.7872,2.8246,2.85,2.85,2.85,2.85,2.85,2.85,2.8303,2.7862,2.7853,2.7658,2.7288,2.7288,2.7108,2.6792,2.6792,2.659,1.6006,1.6272,0.0,1.6942,1.7002,1.6966,1.7159,1.7201,1.7284,1.7472,1.7514,1.7514,1.7514,1.7514,1.7514,1.7514,1.7514,1.7538,1.7611,1.7617,1.772,1.7986,1.8022,1.8052,1.8119,1.8064,1.8107,1.8275,1.8655,1.9317,2.0358,2.0753,2.1,2.1083,2.1059,2.1059,2.1059,2.1448,2.2116,2.3089,2.345,2.3502,2.3299,2.4219,2.5133,2.6021,2.628,2.6388,2.638,2.6288,2.6228,2.6228,2.6136,2.6106,2.6106,2.6106,2.5926,2.5708,2.5708,2.5544,2.5303,2.5303,2.5627,2.6079,2.6439,2.669,2.6877,2.7061,2.7013,2.6867,2.6657,2.6743,2.6887,2.6887,2.6887,2.6887,2.6887,2.6887,2.6887,2.6887,2.6829,2.6677,2.6437,2.6322,2.6273,2.6273,2.6484,2.675,2.7124,2.7191,2.7191,2.7191,2.743,2.7625,2.7625,2.8099,2.841,2.841,2.841,2.841,2.841,2.841,2.8156,2.7634,2.7625,2.7403,2.6887,2.6887,2.6743,2.6408,2.6408,2.6215,0.0,0.0,1.6097,1.6893,1.728,1.749,1.7502,1.7502,1.7502,1.7508,1.7514,1.7514,1.7514,1.7514,1.7514,1.7514,1.7514,1.7599,1.7853,1.7889,1.7998,1.8251,1.8281,1.8384,0.0,1.8432,1.8281,1.8294,1.9492,2.0365,2.0676,2.1914,2.2763,2.3009,2.3016,2.3016,2.3016,2.4294,2.4978,2.504,2.6316,2.6948,2.6948,2.6978,2.7017,2.7056,2.7073,2.7073,2.7043,2.6731,2.6571,2.654,2.6228,2.6106,2.6106,2.6106,2.6042,2.599,2.599,2.5894,2.5777,2.5777,2.5777,2.5748,2.5523,2.5457,2.5419,2.5157,2.5507,2.5934,2.5934,2.6397,2.6887,2.6887,2.6887,2.6887,2.6887,2.6887,2.6887,2.6887,2.6648,2.6408,2.6408,2.6128,2.5905,2.5905,2.5905,2.6383,2.7685,2.7885,2.7885,2.7885,2.73,2.6933,2.6933,2.6942,2.6951,2.6951,2.6951,2.6951,2.6951,2.6951,2.6951,2.6933,2.6933,2.6933,2.6887,2.6887,2.6743,2.6408,2.6408,2.6215,0.0,0.0,1.6791,1.7237,1.7418,1.7514,1.7514,1.7514,1.7514,1.7514,1.7346,1.7219,1.7219,1.7219,1.728,1.7484,1.7659,1.7865,1.8143,1.8185,1.8251,1.8523,1.9342,0.0,0.0,0.0,0.0,2.0158,2.1403,2.2583,2.3563,2.4063,2.4332,2.4409,2.4417,2.4417,2.4417,2.4879,2.5539,2.6419,2.6882,2.6982,2.6761,2.6761,2.664,2.6449,2.6449,2.6449,2.6419,2.6319,2.6258,2.6258,2.6136,2.6106,2.6106,2.6106,2.5948,2.5736,2.5736,2.5555,2.529,2.5079,2.5312,2.5635,2.5553,2.6115,2.6811,2.6938,2.7443,2.7954,2.7954,2.8131,2.8278,2.8278,2.8278,2.8278,2.8278,2.8278,2.8278,2.8278,2.819,2.8043,2.7845,2.7698,2.7647,2.7647,2.664,2.6064,2.6513,2.656,2.656,2.656,2.6819,2.6965,2.6965,2.737,2.7718,2.7943,2.7972,2.7847,2.7569,2.756,2.7144,2.6239,2.623,2.623,2.623,2.623,2.641,2.6743,2.6743,2.6685,0.0,1.6827,1.7038,1.7423,1.7514,1.7514,1.7514,1.7514,1.7514,1.7514,1.7303,1.7092,1.7092,1.7165,1.7284,1.7328,1.7671,1.7998,1.8257,1.8711,1.9154,1.9519,2.0739,2.1617,0.0,0.0,0.0,2.1842,2.3076,2.4193,2.5041,2.5539,2.5823,2.5823,2.5823,2.5823,2.5823,2.57,2.6014,2.6731,2.6731,2.664,2.6419,2.6419,2.6288,2.6106,2.6106,2.6106,2.6106,2.6106,2.6045,2.5931,2.5931,2.5839,2.5739,2.5739,2.5594,2.5449,2.5549,2.5388,2.5042,2.4857,2.5065,2.5433,2.5433,2.5914,2.6515,2.6865,2.753,2.8131,2.8259,2.8648,2.9014,2.9014,2.9014,2.9014,2.9014,2.9014,2.9014,2.9014,2.8895,2.8755,2.8555,2.8397,2.8328,2.8328,2.7357,2.6689,2.6815,2.6518,2.6286,2.6286,2.6477,2.6596,2.6596,2.699,2.7345,2.7561,2.7561,2.7446,2.721,2.7201,2.6789,2.5906,2.6011,2.6088,2.6088,2.6211,2.6476,2.6887,2.6887,2.6887,1.6579,1.673,1.6857,1.7358,1.7514,1.7514,1.7514,1.7514,1.7508,1.7467,1.7284,1.7068,0.0,0.0,1.7411,1.7153,1.7581,1.8028,1.8294,1.9432,2.0441,0.0,0.0,0.0,0.0,0.0,0.0,2.3356,0.0,2.5194,2.5164,2.6388,2.7073,2.7043,2.7043,2.7043,2.7043,2.6731,2.641,2.6106,2.6106,2.6106,2.6075,2.6075,2.6075,2.6045,2.6045,2.6045,2.6045,2.6045,2.587,2.558,2.558,2.5388,2.5111,2.5111,2.5111,2.5142,2.5449,2.5357,2.5111,2.508,2.508,2.508,2.508,2.4888,2.4734,2.5042,2.58,2.6593,2.6935,2.793,2.8925,2.8955,2.8955,2.8955,2.8984,2.9014,2.9014,2.9014,2.8746,2.8517,2.8517,2.8268,2.805,2.805,2.805,2.8118,2.8427,2.765,2.7037,2.7037,2.6442,2.6023,2.6023,2.6023,2.6023,2.6023,2.6023,2.6014,2.5997,2.5997,2.5989,2.5943,2.6273,2.6446,2.6472,2.6798,2.696,2.7007,2.7007,2.7007,1.6905,1.7135,1.7316,1.7478,1.7514,1.7514,1.7514,1.7514,1.7424,1.7231,1.6984,1.6736,0.0,0.0,0.0,1.7393,1.7835,0.0,1.8844,1.9011,0.0,2.0941,0.0,2.3107,2.4131,2.5194,0.0,0.0,2.6097,2.6479,2.6228,2.654,2.6601,2.6349,2.6349,2.6349,2.6349,2.6258,2.6167,2.6106,2.6106,2.5961,2.5725,2.5725,2.5602,2.5349,2.5349,2.5349,2.5349,2.5349,2.5288,2.5234,2.5234,2.5173,2.5111,2.5111,2.5111,2.5111,2.5203,2.5173,2.505,2.4795,2.4734,2.4734,2.4734,2.5034,2.5425,2.5739,2.6349,2.6896,2.6965,2.7267,2.7629,2.814,2.8259,2.8379,2.8886,2.9014,2.9014,2.9014,2.8925,2.8865,2.8865,2.8806,2.8746,2.8746,2.8537,2.8298,2.8148,2.7901,2.7758,2.7758,2.7572,2.7451,2.7451,2.7451,2.7579,2.7825,2.7825,2.7692,2.7409,2.74,2.7151,2.6637,2.6743,2.7029,2.7517,2.7604,2.7942,2.8466,2.8466,2.8466,1.7195,1.7399,1.7514,1.7514,1.7514,1.7484,1.7334,1.7223,1.7058,1.6801,1.6538,0.0,1.6155,1.677,0.0,0.0,0.0,0.0,1.9387,2.0272,2.1276,0.0,2.3545,0.0,2.5395,2.6114,2.6554,0.0,2.6753,2.6792,2.66,2.675,2.6717,2.6554,2.6554,2.6461,2.6328,2.6328,2.6266,2.6149,2.6149,2.6064,2.5854,2.5854,2.5752,2.5595,0.0,2.5595,2.5595,2.5595,2.5595,2.5595,2.5595,2.5595,2.5595,2.5595,2.5469,2.531,2.531,2.5207,2.508,2.4888,2.4826,2.4826,2.4826,2.4972,2.5241,2.5556,2.6014,2.641,2.6562,2.7025,2.7539,2.79,2.8229,2.8528,2.8925,2.9014,2.9014,2.9014,2.8865,2.8836,2.8984,2.8865,2.8836,2.8984,2.8845,2.8666,2.8469,2.817,2.799,2.799,2.799,2.799,2.799,2.799,2.808,2.8268,2.8268,2.817,2.7967,2.7958,2.7771,2.7372,2.7519,2.7781,2.8174,2.8321,2.8519,2.8776,2.8776,2.8687,1.7448,1.7514,1.7479,1.7455,1.7426,1.7354,1.7038,1.6799,1.6545,1.6251,0.0,1.6038,1.6002,1.6863,1.7481,1.7231,0.0,2.0088,2.011,2.2065,2.368,2.41,2.5453,2.6405,2.6569,2.6825,2.6974,2.6974,2.676,2.6619,2.6601,2.6873,2.7006,2.6974,2.6974,2.6847,2.656,2.656,2.6424,2.6208,2.6208,2.6208,2.6208,2.6208,2.6208,2.6208,2.6208,2.6208,2.6208,2.6208,2.6208,2.6208,2.6208,2.6208,2.6208,2.6208,2.5993,2.5675,2.5675,2.55,2.523,2.5143,2.5111,2.5111,2.5111,2.4888,2.4734,2.5011,2.531,2.5578,2.5831,2.6705,2.756,2.759,2.8131,2.8648,2.8707,2.8797,2.8865,2.8865,2.8636,2.8517,2.8806,2.8636,2.8517,2.8836,2.8865,2.8865,2.8865,2.8439,2.814,2.814,2.814,2.814,2.814,2.814,2.811,2.808,2.808,2.805,2.799,2.799,2.799,2.799,2.8307,2.8427,2.8427,2.8716,2.8716,2.8427,2.8427,2.8268,1.7502,1.7514,1.7426,1.7168,1.7079,1.6956,1.6466,1.6316,0.0,0.0,1.6259,1.683,1.661,1.7247,1.8231,1.9475,1.9613,2.0053,2.151,2.2134,2.2964,0.0,2.4763,2.5386,2.6495,2.6455,0.0,0.0,2.6552,2.6657,2.6606,2.6647,2.6591,2.6368,2.6368,2.6336,2.6272,2.6272,2.624,2.6208,2.6208,2.6208,2.6208,2.6208,2.6208,2.6208,2.6208,0.0,2.6208,2.6208,2.6208,2.6208,2.6208,2.6208,2.6208,2.6208,2.6176,2.6088,2.6088,2.6049,2.5905,2.5294,2.5111,2.5111,2.5111,2.505,2.5019,2.508,2.5134,2.5134,2.4919,2.5034,2.5241,2.5531,2.612,2.6736,2.7233,2.7792,2.817,2.817,2.814,2.811,2.817,2.814,2.811,2.817,2.817,2.817,2.817,2.8558,2.8836,2.8836,2.8836,2.8836,2.8836,2.8836,2.8716,2.8427,2.8427,2.8298,2.802,2.799,2.799,2.799,2.805,2.8089,2.8089,2.814,2.814,2.8089,2.8089,2.805,1.7285,1.725,1.7168,1.6808,1.6749,1.6616,1.6115,0.0,0.0,0.0,1.6303,1.6829,1.7279,1.8176,0.0,1.9682,2.0637,2.1628,2.2552,2.343,0.0,2.5327,2.5573,2.5952,0.0,2.6686,2.6733,2.6733,2.6851,2.6861,2.6656,2.6825,2.6855,2.6733,2.6733,2.6733,2.6733,2.6733,2.6733,2.6733,2.6733,2.6733,2.6733,2.6733,2.6733,2.6733,2.6733,2.6733,2.6733,2.6733,2.6733,2.6733,2.6733,2.6733,2.6733,2.6733,2.6613,2.6454,2.6454,2.6367,2.6152,2.5786,2.5683,2.5683,2.5683,2.5524,2.535,2.535,2.5215,2.5042,2.4888,2.4972,2.5149,2.5325,2.5723,2.628,2.687,2.7233,2.7581,2.793,2.7861,2.7801,2.796,2.7861,2.7801,2.796,2.799,2.799,2.799,2.8289,2.8469,2.8469,2.8469,2.8469,2.8469,2.8469,2.8409,2.8238,2.8238,2.8178,2.802,2.799,2.799,2.799,2.799,2.799,2.799,2.799,2.825,2.8719,2.8719,2.8977,1.6944,1.6903,1.6873,1.6832,1.6797,1.6722,1.6418,1.6199,0.0,0.0,1.6817,1.7285,1.8229,1.921,1.9945,0.0,2.1634,2.3022,2.3521,2.4774,2.5794,0.0,2.6605,0.0,2.682,2.7042,0.0,2.72,2.72,2.7081,2.6836,2.705,2.72,2.72,2.72,2.72,2.72,2.72,2.72,2.72,2.72,2.72,2.72,2.72,2.72,2.72,2.72,2.72,2.72,2.72,2.72,2.72,2.72,2.72,2.72,2.72,2.7026,2.682,2.682,2.6637,2.6399,2.6399,2.6335,2.6208,2.6208,2.5993,2.5715,2.5715,2.5548,2.5303,2.5147,2.5287,2.5496,2.5496,2.5625,2.5937,2.6572,2.6748,2.6961,2.75,2.75,2.75,2.7749,2.759,2.75,2.7779,2.7818,2.7818,2.7818,2.7818,2.7818,2.7818,2.793,2.799,2.799,2.799,2.796,2.7891,2.7891,2.787,2.7818,2.7818,2.793,2.8182,2.8182,2.8331,2.86,2.86,2.8977,2.9707,2.9707,3.01,1.651,1.6537,1.6744,1.7584,1.776,1.7844,1.8112,0.0,0.0,1.7563,1.8459,1.936,1.9596,2.0135,2.0998,2.2432,2.2224,2.2607,2.4637,2.5296,2.585,2.6582,0.0,0.0,2.7153,2.7185,2.72,2.72,2.72,2.7193,2.7153,2.7185,2.72,2.72,2.72,2.72,2.72,2.72,2.72,2.72,2.72,2.72,2.72,2.72,2.72,2.72,2.72,2.72,0.0,2.72,2.72,2.72,2.72,2.72,2.72,2.72,2.7185,2.7153,2.7153,2.7129,2.7105,2.7105,2.6701,2.6208,2.6208,2.6152,2.6128,2.6128,2.6112,2.5953,2.5288,2.5128,2.516,2.516,2.4954,2.4912,2.5588,2.5967,2.6197,2.625,2.6753,2.7164,2.7164,2.7164,2.7164,2.7164,2.7194,2.7194,2.7194,2.7194,2.7194,2.7194,2.7668,2.799,2.799,2.799,2.7861,2.7581,2.7551,2.744,2.7194,2.7194,2.7711,2.8811,2.8811,2.9394,3.0548,3.0548,3.0577,3.0665,3.0665,3.0723,1.6245,1.6253,1.6484,1.7431,1.7479,1.7484,1.8233,0.0,1.8185,1.8505,1.9172,1.9934,2.0638,2.1301,2.1959,2.2597,2.2771,2.3296,2.462,2.5247,2.5866,2.6621,2.6986,0.0,0.0,0.0,2.72,2.72,2.72,2.72,2.72,2.72,2.72,2.72,2.72,2.72,2.72,2.72,2.72,2.72,2.72,2.72,2.72,2.72,2.72,2.72,2.72,2.72,0.0,2.72,2.72,2.72,2.72,2.72,2.72,2.72,2.72,2.72,2.72,2.72,2.72,2.72,2.701,2.6812,2.6812,2.6669,2.6494,2.6494,2.6375,2.6144,2.5823,2.5445,2.4994,2.4605,2.4404,2.4596,2.5675,2.6008,2.6343,2.7204,2.7585,2.7749,2.7749,2.7749,2.7664,2.7424,2.739,2.7313,2.7137,2.7103,2.7103,2.7103,2.7306,2.7457,2.7457,2.7457,2.7397,2.7276,2.7267,2.7215,2.7103,2.7103,2.7336,2.7801,2.8522,2.9157,2.965,3.0432,3.1197,3.1939,3.1939,3.234,1.5821,1.6173,1.6773,1.777,1.8017,1.8242,0.0,0.0,1.9065,1.9587,2.0084,2.0673,2.1417,2.2139,2.2632,2.2652,2.3033,2.3597,2.4354,2.4944,2.5588,2.6287,0.0,2.693,0.0,2.7145,2.72,2.72,2.72,2.72,2.72,2.72,2.72,2.72,2.72,2.72,2.72,2.72,2.72,2.72,2.72,2.72,2.72,2.72,2.72,2.72,2.72,2.72,0.0,2.72,2.72,2.72,2.72,2.72,2.72,2.72,2.72,2.72,2.72,2.72,2.72,2.72,2.72,2.72,2.72,2.7026,2.686,2.686,2.662,2.6356,2.6356,2.5812,2.5134,2.4667,2.4553,2.4797,2.5763,2.6199,2.6711,2.7704,2.806,2.8194,2.8194,2.8194,2.81,2.7818,2.7775,2.7689,2.7472,2.7437,2.7437,2.7437,2.7437,2.7352,2.7129,2.7103,2.7103,2.7103,2.7103,2.7246,2.762,2.762,2.7981,2.874,2.96,3.0207,3.0548,3.1458,3.2369,3.3225,3.3225,3.3688,1.5158,1.6308,1.777,1.8974,1.9933,2.0818,0.0,0.0,2.1267,2.0945,2.141,2.1903,2.1974,2.2488,2.2933,2.2978,2.2986,2.326,2.3989,2.4394,2.4857,0.0,0.0,2.6327,2.6677,2.6994,2.72,2.72,2.72,0.0,2.72,2.72,2.72,2.72,2.72,2.72,2.72,2.72,2.72,2.72,2.72,2.72,2.72,2.72,2.72,2.72,2.72,2.72,0.0,2.72,2.72,2.72,2.72,2.72,2.72,2.72,2.72,2.72,2.72,2.72,2.72,2.72,2.72,2.72,2.72,2.72,2.72,2.72,2.6959,2.6684,2.6684,2.6156,2.5584,2.5592,2.5589,2.5588,2.5588,2.6431,2.718,2.7212,2.7735,2.8194,2.8194,2.8194,2.8194,2.8186,2.8186,2.8186,2.8186,2.8186,2.8186,2.8186,2.8186,2.7878,2.7172,2.7103,2.7103,2.7103,2.7103,2.765,2.8831,2.889,3.007,3.26,3.2657,3.3254,3.444,3.4468,3.4468,3.4468,3.4468,3.4496,1.6534,1.7218,1.8346,1.9542,1.9889,2.0204,2.1332,0.0,2.1034,2.0915,2.1472,2.1964,2.1995,2.2524,2.2963,2.2998,2.2986,2.326,2.401,0.0,0.0,2.5937,2.6724,2.7272,0.0,0.0,2.7865,2.7865,2.7865,2.7865,2.7865,2.7865,2.7685,2.7216,2.72,2.72,2.72,2.72,2.72,2.72,2.72,2.72,2.72,2.72,2.72,2.72,2.72,2.72,2.72,2.72,2.72,2.72,2.72,2.72,2.72,2.72,2.72,2.72,2.72,2.72,2.72,2.72,2.72,2.72,2.72,2.72,2.72,2.72,2.7134,2.7,2.6767,2.6532,2.6231,2.5734,2.5618,2.5795,2.6528,2.6971,2.7483,2.8461,2.8827,2.8956,2.8956,2.8956,2.8871,2.8631,2.8597,2.8494,2.8229,2.8194,2.8194,2.8194,2.8194,2.8491,2.9169,2.9204,2.9602,3.0545,3.0606,3.0747,3.113,3.116,3.152,3.2346,3.3204,3.383,3.422,3.5093,3.5546,3.5546,3.5546,3.5546,0.0,1.7799,1.9146,1.9913,2.0194,0.0,0.0,2.1153,2.0939,2.1066,2.1568,2.2051,2.2159,2.2625,2.2986,2.2986,2.3097,2.3411,2.4005,0.0,0.0,2.6279,0.0,0.0,0.0,2.7992,2.8191,2.8191,2.8191,2.8191,2.8191,2.8191,2.7937,2.7423,2.7518,2.759,2.759,2.759,2.7526,2.7399,2.7399,2.7328,2.72,2.72,2.72,2.72,2.72,2.72,0.0,2.72,2.72,2.72,2.72,2.72,2.72,2.72,2.72,2.72,2.72,2.72,2.72,2.72,2.72,2.72,2.72,2.72,2.72,2.72,2.72,2.7134,2.6934,2.6792,2.6566,2.5936,2.5902,2.6164,2.6658,2.6992,2.7467,2.832,2.8725,2.8922,2.8922,2.9143,2.923,2.9016,2.8982,2.8888,2.8648,2.8614,2.8797,2.9321,2.9385,3.0117,3.1994,3.0968,3.0337,3.0655,3.1167,3.1441,3.1411,3.1908,3.2392,3.2835,3.4139,3.481,3.481,3.5594,3.5994,3.5994,3.5994,3.5994,0.0,0.0,0.0,0.0,0.0,0.0,0.0,2.1129,0.0,2.1325,2.1719,2.2096,2.2446,2.2776,2.2986,2.2986,2.3287,2.3652,2.41,2.4801,0.0,0.0,2.7375,0.0,2.773,2.8056,2.8262,2.8262,2.8246,2.823,2.823,2.8207,2.8048,2.7746,2.8032,2.8167,2.8119,2.8119,2.7961,2.7659,2.7659,2.7484,2.72,2.72,2.72,0.0,2.72,2.72,2.72,2.72,2.72,2.72,2.72,2.72,2.72,2.72,2.72,2.72,2.72,2.72,2.72,2.72,2.72,2.72,2.72,2.72,2.72,2.72,2.72,2.72,2.72,2.6967,2.6633,2.6238,2.6406,2.6558,2.6208,2.6658,2.7134,2.72,2.7733,2.8238,2.8238,2.8848,2.9373,2.9373,2.9406,2.9471,2.9593,2.9495,2.9967,3.1322,3.1442,3.2486,3.5026,3.237,3.0089,2.8947,3.0027,3.0698,3.0615,3.1822,3.2995,3.4143,3.5427,3.6093,3.6093,3.6093,3.6093,3.6093,3.6093,3.6093,0.0,0.0,0.0,0.0,0.0,0.0,0.0,2.0955,0.0,0.0,0.0,2.2096,2.2446,2.2776,2.2986,2.2986,2.3287,2.3827,2.4738,2.616,0.0,2.7455,2.8098,2.8416,2.8095,2.8678,2.9043,2.9043,2.8797,2.8673,2.8673,2.8376,2.8151,2.808,2.8151,2.7937,2.7447,2.7447,2.7407,2.7328,2.7328,2.728,2.72,2.72,2.72,2.72,2.72,2.72,2.72,2.72,2.72,2.72,2.72,2.72,2.72,2.72,2.72,2.72,2.72,2.72,2.72,2.72,2.72,2.72,2.72,2.72,2.72,2.72,2.72,2.72,2.72,2.7134,2.7,2.6633,2.6398,2.6306,2.6525,2.645,2.6517,2.71,2.7334,2.7467,2.7467,2.8913,3.0062,3.0062,3.0484,3.1235,3.2292,3.1492,3.1355,3.2768,3.2895,3.318,3.3819,3.4057,3.4483,3.5198,3.5544,3.5696,3.5696,3.5979,3.6303,3.6574,3.6886,3.7076,3.7076,3.7076,3.7076,3.7076,3.7076,3.7076,1.9676,2.0421,2.0899,2.0899,2.0899,0.0,0.0,2.1026,2.1232,0.0,0.0,2.2334,2.2664,2.3141,2.3387,2.307,2.3983,2.4992,0.0,0.0,2.7367,2.7659,2.8066,2.8336,0.0,2.867,2.8805,2.8805,2.863,2.8519,2.8519,2.8329,2.8119,2.7968,2.7968,2.7857,2.7669,2.7669,2.7598,2.7447,2.7447,2.7359,2.72,2.72,2.72,2.72,2.72,2.72,2.72,2.72,2.72,2.72,2.72,2.72,2.72,2.72,2.72,2.72,2.72,2.72,2.72,2.72,2.72,2.72,2.72,2.72,2.72,2.72,2.72,2.72,2.72,2.71,2.6934,2.6725,2.6398,2.6104,2.6164,2.6022,2.5955,2.6197,2.6491,2.6684,2.6684,2.7924,2.8871,2.8871,2.9199,2.9941,3.1355,3.0839,3.1281,3.3621,3.3841,3.4217,3.516,3.591,3.6094,3.5592,3.6155,3.6227,3.5592,3.6155,3.6787,3.7374,3.7404,3.7404,3.7404,3.7404,3.7404,3.7404,3.7404,3.7404,2.0575,2.0939,2.0978,2.0978,2.0978,2.0978,2.0978,2.1248,2.1581,0.0,0.0,2.2609,2.3022,2.3559,2.3766,2.3252,2.4919,0.0,2.6812,2.6897,2.711,2.7643,2.7712,0.0,2.8559,2.8376,2.8191,2.8191,2.8143,2.8111,2.8111,2.8064,2.7905,2.7627,2.7619,2.7754,2.8032,2.8032,2.7897,2.7619,2.7619,2.7461,2.72,2.72,2.72,2.72,0.0,0.0,2.72,2.72,2.72,2.72,2.72,2.72,2.72,2.72,2.72,2.72,2.72,2.72,2.72,2.72,2.72,2.72,2.72,2.72,2.72,2.72,2.72,2.72,2.72,2.7,2.6767,2.6767,2.6473,2.6104,2.5734,2.5633,2.5513,2.5219,2.5618,2.603,2.6083,2.6827,2.7398,2.7398,2.7458,2.7998,2.942,2.942,3.0475,3.3591,3.4113,3.4964,3.6766,3.7132,3.6319,3.4154,3.5098,3.5191,3.407,3.5098,3.6258,3.7374,3.7404,3.7404,3.7404,3.7404,3.7404,3.7404,3.7404,3.7404,2.0575,2.1113,2.1317,2.1317,2.1317,2.1317,2.1317,2.1632,2.1921,2.2003,2.2271,2.2688,2.3311,2.3271,2.3332,2.3845,0.0,2.6852,0.0,0.0,2.7903,2.772,0.0,2.7754,2.7873,2.8056,2.8191,2.8191,2.7929,2.777,2.777,2.7518,2.7335,2.7288,2.728,2.7312,2.7359,2.7359,2.7335,2.728,2.728,2.7256,2.72,2.72,2.72,2.72,0.0,2.72,2.72,2.72,2.72,2.72,2.72,2.72,2.72,2.72,2.72,2.72,2.72,2.72,2.72,2.72,2.72,2.72,2.72,2.72,2.72,2.72,2.72,2.72,2.72,2.7167,2.7134,2.7134,2.6867,2.6499,2.6104,2.5801,2.558,2.5472,2.5523,2.568,2.5959,2.7337,2.8399,2.8399,2.8668,2.9368,3.0717,2.9904,2.9847,3.1509,3.2755,3.3823,3.4685,3.5879,3.6626,3.6787,3.6969,3.7,3.6776,3.6969,3.7193,3.7404,3.7404,3.7404,3.7404,3.7404,3.7404,3.7404,3.7404,3.7404,2.0223,2.0815,2.1491,2.1891,2.1978,2.2034,2.2224,2.2712,2.301,2.2609,2.2986,2.3379,2.3486,2.3696,2.4347,2.58,0.0,2.6856,2.7358,2.722,2.6998,0.0,0.0,2.7006,2.7403,2.7557,2.7669,2.7669,2.7534,2.7447,2.7447,2.7288,2.72,2.72,2.72,2.72,2.72,2.72,2.72,2.72,2.72,2.72,2.72,2.72,2.72,2.72,0.0,2.72,2.72,2.72,2.72,2.72,2.72,2.72,2.72,2.72,2.72,2.72,2.72,2.72,2.72,2.72,2.72,2.72,2.72,2.72,2.72,2.72,2.72,2.72,2.72,2.7067,2.6967,2.7167,2.6934,2.6666,2.6465,2.6138,2.5813,2.559,2.5408,2.5322,2.5511,2.6163,2.6718,2.6718,2.7701,2.8934,3.0326,3.0792,3.1684,3.3434,3.4029,3.4545,3.5207,3.5635,3.631,3.7344,3.7404,3.7404,3.7404,3.7404,3.7404,3.7404,3.7404,3.7404,3.7404,3.7404,3.7404,3.7404,3.7404,3.7404,2.0248,2.0844,2.178,2.2358,2.249,2.2601,2.301,2.3546,2.3814,2.3216,0.0,2.4028,2.3787,2.4431,2.5524,2.7199,2.7176,2.7037,2.7382,2.6793,2.6349,2.635,2.6292,2.6497,2.7144,2.7192,2.72,2.72,2.72,2.72,2.72,2.72,2.72,2.72,2.72,2.72,2.72,2.72,2.72,2.72,2.72,2.72,2.72,2.72,2.72,2.72,2.72,2.72,2.72,2.72,2.72,2.72,2.72,2.72,2.72,2.72,2.72,2.72,2.72,2.72,2.72,2.72,2.72,2.72,2.72,2.72,2.72,2.72,2.72,2.72,2.72,2.7,2.6867,2.7134,2.7,2.68,2.6725,2.6465,2.6127,2.5806,2.5508,2.5458,2.5906,2.5903,2.6009,2.6417,2.7575,2.8806,2.9916,3.117,3.2571,3.4185,3.4269,3.463,3.5631,3.5438,3.5788,3.698,3.7253,3.7283,3.706,3.7283,3.7404,3.7404,3.7404,3.7404,3.7404,3.7404,3.7404,3.7404,3.7404,3.7404,2.119,2.174,2.236,2.2477,2.249,2.2664,2.3319,2.3517,2.3541,2.3457,0.0,0.0,0.0,2.5396,2.6231,2.6708,2.7239,2.7746,2.8069,0.0,2.7129,2.7107,2.6843,2.681,2.7165,2.7183,2.72,2.72,2.72,2.72,2.72,2.72,2.72,2.72,2.72,2.72,2.72,2.72,2.72,2.72,2.72,2.72,2.72,2.72,2.72,2.72,2.72,2.72,2.72,2.72,2.72,2.72,2.72,2.72,2.72,2.72,2.72,2.72,2.72,2.72,2.72,2.72,2.72,2.72,2.72,2.72,2.72,2.72,2.72,2.72,2.72,2.7167,2.7167,2.72,2.7167,2.7067,2.6759,2.6692,2.6525,2.614,2.6021,2.6553,2.8232,2.8275,2.8648,3.0315,3.0438,3.0326,3.0428,3.0254,3.0164,3.0289,3.1078,3.2361,3.4338,3.4786,3.5232,3.5952,3.6889,3.6969,3.6063,3.6909,3.7404,3.7404,3.7404,3.7404,3.7404,3.7404,3.7404,3.7404,3.7404,3.7404,2.1,2.181,2.2767,2.2811,2.2982,2.3295,2.4031,2.4364,2.4388,2.3951,2.4492,0.0,0.0,0.0,2.7348,2.7075,2.7779,2.8275,2.7945,2.7494,2.7022,2.6579,2.6633,2.6759,2.6867,2.7067,2.72,2.72,2.72,2.72,2.72,2.72,2.72,2.72,2.72,2.72,2.72,2.72,2.72,2.72,2.72,2.72,2.72,2.72,2.72,2.72,2.72,2.72,2.72,2.72,2.72,2.72,2.72,2.72,2.72,2.72,2.72,2.72,2.72,2.72,2.72,2.72,2.72,2.72,2.72,2.72,2.72,2.72,2.72,2.72,2.72,2.72,2.72,2.72,2.72,2.7167,2.7034,2.7501,2.7922,2.7858,2.8354,2.9008,2.9745,2.9754,2.9909,3.06,3.1321,3.1805,3.1805,3.2438,3.2987,3.33,3.3629,3.385,3.3899,3.4392,3.4525,3.4057,3.5376,3.6156,3.6218,3.6595,3.688,3.7093,3.7093,3.7184,3.7404,3.7404,3.7404,3.7404,3.7404,3.7404,2.1449,2.2182,2.3122,2.3149,2.3335,2.3692,2.442,2.4712,2.473,2.4617,2.531,2.5866,2.5643,0.0,0.0,0.0,2.8142,2.8441,2.7926,2.7468,2.6999,2.6496,2.67,2.6867,2.6867,2.7067,2.72,2.72,2.72,2.72,2.72,2.72,2.72,2.72,2.72,2.72,2.72,2.72,2.72,2.72,2.72,2.72,2.72,2.72,2.72,2.72,2.72,2.72,2.72,2.72,2.72,2.72,2.72,2.72,2.72,2.72,2.72,2.72,2.72,2.72,2.72,2.72,2.72,2.72,2.72,2.72,2.72,2.72,2.72,2.72,2.72,2.72,2.72,2.72,2.72,2.7334,2.7783,2.8419,2.8996,2.9416,3.0083,3.0716,3.1246,3.1355,3.1545,3.1994,3.2887,3.3466,3.3466,3.4182,3.4791,3.499,3.5019,3.47,3.3858,3.4212,3.4237,3.3656,3.4579,3.5386,3.5891,3.6239,3.6514,3.6739,3.6728,3.685,3.7082,3.7082,3.7082,3.7082,3.7082,3.7082,2.2786,2.3094,2.3412,2.3488,2.3517,2.3708,2.4428,2.4347,2.4394,2.5398,2.6199,2.6709,2.6717,2.7534,0.0,2.8191,2.8191,2.8191,2.8191,2.7629,2.72,2.72,2.72,2.72,2.72,2.72,2.72,2.72,2.72,2.72,2.72,2.72,2.72,2.72,2.72,2.72,2.72,2.72,2.72,2.72,2.72,2.72,2.72,2.72,2.72,2.72,2.72,2.72,2.72,2.72,2.72,2.72,2.72,2.72,2.72,2.72,2.72,2.72,2.72,2.72,2.72,2.72,2.72,2.72,2.72,2.72,2.72,2.72,2.72,2.72,2.72,2.72,2.72,2.72,2.72,2.7592,2.8978,2.9306,2.9615,3.0628,3.0868,3.1403,3.2868,3.3218,3.3776,3.518,3.5391,3.5381,3.5391,3.499,3.4553,3.4229,3.421,3.42,3.4196,3.42,3.4477,3.5155,3.4824,3.4706,3.489,3.586,3.6392,3.6392,3.6392,3.6392,3.6392,3.6392,3.6392,3.6392,3.6392,3.6392,2.2527,2.3182,2.3829,2.3578,2.3882,2.4396,2.4849,2.4873,0.0,0.0,2.6907,2.7121,2.7367,2.8273,0.0,2.827,2.8191,2.8191,2.8191,2.7629,2.72,2.72,2.72,2.72,2.72,2.72,2.72,2.72,2.72,2.72,2.72,2.72,2.72,2.72,2.72,2.72,2.72,2.72,2.72,2.72,2.72,2.72,2.72,2.72,2.72,2.72,2.72,2.72,2.72,2.72,2.72,2.72,2.72,2.72,2.72,2.72,2.72,2.72,2.72,2.72,2.72,2.72,2.72,2.72,2.72,2.72,2.72,2.72,2.72,2.72,2.72,2.72,2.72,2.72,2.72,2.73,2.7716,2.933,3.0824,3.1233,3.2886,3.4289,3.4534,3.4423,3.4354,3.4549,3.435,3.4184,3.4127,3.4313,3.4385,3.4294,3.4787,3.4902,3.4327,3.4533,3.4731,3.4848,3.4743,3.4898,3.5359,3.5594,3.5798,3.6044,3.6044,3.6167,3.6392,3.6392,3.6514,3.6739,3.6739,3.688,2.3121,2.3648,2.41,2.412,2.4484,2.4952,2.5588,2.5731,0.0,0.0,2.7423,2.7717,2.8082,2.8773,0.0,2.8718,2.8373,2.8191,2.8191,2.7629,2.72,2.72,2.72,2.72,2.72,2.72,2.72,2.72,2.72,2.72,2.72,2.72,2.72,2.72,2.72,2.72,2.72,2.72,2.72,2.72,2.72,2.72,2.72,2.72,2.72,2.72,2.72,2.72,2.72,2.72,2.72,2.72,2.72,2.72,2.72,2.72,2.72,2.72,2.72,2.72,2.72,2.72,2.72,2.72,2.72,2.72,2.72,2.72,2.72,2.72,2.72,2.72,2.72,2.72,2.72,2.7367,2.7915,2.9223,3.0473,3.1114,3.2931,3.4314,3.4157,3.4449,3.4576,3.4266,3.4046,3.3918,3.3894,3.4161,3.4348,3.4348,3.4779,3.492,3.4577,3.4906,3.5172,3.5201,3.5201,3.5477,3.6082,3.6014,3.604,3.6174,3.6318,3.6316,3.6208,3.6331,3.6484,3.6708,3.6708,3.6819,2.4082,2.4245,2.4283,2.4905,2.5135,2.5461,2.6486,2.6733,2.6868,2.7216,0.0,2.8344,2.8777,2.9083,2.9298,2.9298,2.8694,2.8191,2.8191,2.7629,2.72,2.72,2.72,2.72,2.72,2.72,2.72,2.72,2.72,2.72,2.72,2.72,2.72,2.72,2.72,2.72,2.72,2.72,2.72,2.72,2.72,2.72,2.72,2.72,2.72,2.72,2.72,2.72,2.72,2.72,2.72,2.72,2.72,2.72,2.72,2.72,2.72,2.72,2.72,2.72,2.72,2.72,2.72,2.72,2.72,2.72,2.72,2.72,2.72,2.72,2.72,2.72,2.72,2.72,2.72,2.7558,2.8814,2.8928,2.9132,3.036,3.1551,3.2315,3.225,3.332,3.4118,3.3936,3.4007,3.4113,3.4227,3.4318,3.4345,3.4345,3.438,3.4508,3.4818,3.524,3.5616,3.5957,3.5933,3.6197,3.6905,3.6826,3.6767,3.6729,3.7011,3.6778,3.6015,3.6323,3.6465,3.6453,3.6453,3.6453,2.3194,2.3906,2.4537,2.4658,2.5341,2.6088,2.659,2.6891,2.7264,2.7876,2.8088,2.8381,2.9067,2.9242,2.9298,2.9298,2.8694,2.8191,2.8191,2.7629,2.72,2.72,2.72,2.72,2.72,2.72,2.72,2.72,2.72,2.72,2.72,2.72,2.72,2.72,2.72,2.72,2.72,2.72,2.72,2.72,2.72,2.72,2.72,2.72,2.72,2.72,2.72,2.72,2.72,2.72,2.72,2.72,2.72,2.72,2.72,2.72,2.72,2.72,2.72,2.72,2.72,2.72,2.72,2.72,2.72,2.72,2.72,2.72,2.72,2.72,2.72,2.72,2.72,2.72,2.72,2.7267,2.7592,2.846,2.9158,2.9165,3.0236,3.098,3.0405,3.036,3.0676,3.1541,3.1918,3.2524,3.3746,3.3935,3.3921,3.3921,3.4198,3.4439,3.4508,3.5137,3.5514,3.5616,3.5836,3.6319,3.7038,3.6903,3.7073,3.7615,3.7699,3.7433,3.6851,3.6913,3.6886,3.68,3.68,3.6941,2.3313,2.3941,2.4522,2.519,2.5898,2.6526,2.6843,2.7073,2.7399,2.8048,2.8191,2.844,2.9163,2.9298,2.9298,2.9298,2.8694,2.8191,2.8191,2.7629,2.72,2.72,2.72,2.72,2.72,2.72,2.72,2.72,2.72,2.72,2.72,2.72,2.72,2.72,2.72,2.72,2.72,2.72,2.72,2.72,2.72,2.72,2.72,2.72,2.72,2.72,2.72,2.72,2.72,2.72,2.72,2.72,2.72,2.72,2.72,2.72,2.72,2.72,2.72,2.72,2.72,2.72,2.72,2.72,2.72,2.72,2.72,2.72,2.72,2.72,2.72,2.72,2.72,2.72,2.72,2.72,2.72,2.765,2.7998,2.7783,2.8715,2.937,2.8822,2.9778,3.08,3.1433,3.2445,3.3353,3.3997,3.4094,3.4024,3.3817,3.399,3.4267,3.4612,3.499,3.5367,3.5719,3.5889,3.6321,3.7079,3.7322,3.7593,3.7921,3.8445,3.8357,3.7684,3.7852,3.776,3.747,3.747,3.7462,2.348,2.3989,2.4498,2.5873,2.6438,2.6796,2.7121,2.72,2.7399,2.8048,2.8191,2.844,2.9163,2.9298,2.9298,2.9298,2.8694,2.8191,2.8191,2.7629,2.72,2.72,2.72,2.72,2.72,2.72,2.72,2.72,2.72,2.72,2.72,2.72,2.72,2.72,2.72,2.72,2.72,2.72,2.72,2.72,2.72,2.72,2.72,2.72,2.72,2.72,2.72,2.72,2.72,2.72,2.72,2.72,2.72,2.72,2.72,2.72,2.72,2.72,2.72,2.72,2.72,2.72,2.72,2.72,2.72,2.72,2.72,2.72,2.72,2.72,2.72,2.72,2.72,2.72,2.72,2.72,2.72,2.6967,2.6759,2.6633,2.7169,2.7659,2.7601,2.9731,3.1588,3.2034,3.3539,3.4568,3.4508,3.4449,3.4267,3.3955,3.3851,3.4059,3.4671,3.4818,3.5162,3.5777,3.5913,3.6287,3.6886,3.7562,3.7943,3.8006,3.9142,3.9343,3.8536,3.8789,3.8675,3.8237,3.8237,3.8018,2.2589,2.3615,2.48,2.5905,2.6438,2.6796,2.7121,2.72,2.7399,0.0,2.8191,2.844,2.9163,2.9298,2.9298,2.9298,2.8694,2.8191,2.8191,2.7629,2.72,2.72,2.72,2.72,2.72,2.72,2.72,2.72,2.72,2.72,2.72,2.72,2.72,2.72,2.72,2.72,2.72,2.72,2.72,2.72,2.72,2.72,2.72,2.72,2.72,2.72,2.72,2.72,2.72,2.72,2.72,2.72,2.72,2.72,2.72,2.72,2.72,2.72,2.72,2.72,2.72,2.72,2.72,2.72,2.72,2.72,2.72,2.72,2.72,2.72,2.72,2.72,2.72,2.72,2.72,2.72,2.72,2.7167,2.6934,2.6306,2.5828,2.588,2.6994,2.8072,2.9568,3.1756,3.2847,3.378,3.4706,3.4577,3.438,3.4345,3.4024,3.3851,3.3946,3.4533,3.4956,3.5049,3.5641,3.605,3.6152,3.6853,3.7508,3.8092,3.9475,3.9941,3.9417,3.9481,3.9209,3.8708,3.8708,3.8675,2.3082,2.4132,2.5127,2.6216,2.6741,2.701,2.7169,2.72,2.7399,2.8048,2.8191,2.844,2.9163,2.9298,2.9298,2.9298,2.8869,2.8456,2.8214,2.777,2.7397,2.7224,2.72,2.72,2.72,2.72,2.72,2.72,2.72,2.72,2.72,2.72,2.72,2.72,2.72,2.72,2.72,2.72,2.72,2.72,2.72,2.72,2.72,2.72,2.72,2.72,2.72,2.72,2.72,2.72,2.72,2.72,2.72,2.72,2.72,2.72,2.72,2.72,2.72,2.72,2.72,2.72,2.72,2.72,2.72,2.72,2.72,2.72,2.72,2.72,2.72,2.72,2.7134,2.6967,2.6934,2.6867,2.6641,2.6767,2.6767,2.6205,2.57,2.588,2.749,2.8744,3.0276,3.2458,3.3917,3.4868,3.5196,3.5103,3.4931,3.4715,3.4508,3.4508,3.4715,3.5059,3.5333,3.5504,3.5811,3.5982,3.5982,3.6718,3.7404,3.8086,3.9133,3.9779,3.9995,3.9995,3.9743,3.9231,3.9231,3.9089,2.3368,2.4237,2.5008,2.6263,2.6803,2.7097,2.7185,2.72,2.7399,2.8048,2.8191,2.844,2.9163,2.9298,2.9298,2.9298,2.9031,2.8673,2.8273,2.7905,2.7564,2.7248,2.72,2.72,2.72,2.72,2.72,2.72,2.72,2.72,2.72,2.72,2.72,2.72,2.72,2.72,2.72,2.72,2.72,2.72,2.72,2.72,2.72,2.72,2.72,2.72,2.72,2.72,2.72,2.72,2.72,2.72,2.72,2.72,2.72,2.72,2.72,2.72,2.72,2.72,2.72,2.72,2.72,2.72,2.72,2.72,2.72,2.72,2.72,2.72,2.72,2.7134,2.7,2.6767,2.6633,2.6465,2.6171,2.6272,2.6432,2.6499,2.6395,2.6986,2.9051,3.0599,3.2138,3.3911,3.5396,3.6245,3.6004,3.5866,3.5693,3.5407,3.5208,3.5186,3.5505,3.5512,3.5616,3.5855,3.5947,3.5982,3.5982,3.6718,3.7404,3.8086,3.8836,3.9549,4.0312,4.0312,4.0126,3.9765,3.9765,3.9569,2.268,2.3311,2.4009,2.5778,2.647,2.682,2.7129,2.72,2.7399,2.8048,2.8191,2.844,2.9163,2.9298,2.9298,2.9298,2.9031,2.8673,2.8273,2.7905,2.7564,2.7248,2.72,2.72,2.72,2.72,2.72,2.72,2.72,2.72,2.72,2.72,2.72,2.72,2.72,2.72,2.72,2.72,2.72,2.72,2.72,2.72,2.72,2.72,2.72,2.72,2.72,2.72,2.72,2.72,2.72,2.72,2.72,2.72,2.72,2.72,2.72,2.72,2.72,2.72,2.72,2.72,2.72,2.72,2.72,2.72,2.72,2.72,2.72,2.72,2.72,2.6967,2.6725,2.6692,2.6406,2.6138,2.6104,2.5869,2.6063,2.7343,2.7964,2.9126,3.1904,3.3486,3.4881,3.6315,3.6928,3.7236,3.7201,3.6865,3.6617,3.6617,3.5991,3.5588,3.5588,3.5538,3.5514,3.5514,3.5821,3.5982,3.5982,3.6718,3.7404,3.8086,3.8836,3.9549,4.0312,4.0312,4.0301,4.0268,4.0268,4.0257,2.2883,2.3422,2.393,2.5738,2.6438,2.6741,2.6868,2.7042,2.7335,2.7778,2.804,2.8368,2.8869,2.9139,2.9298,2.9298,2.9194,2.898,2.8622,2.8273,2.7889,2.7548,2.7343,2.72,2.72,2.72,2.72,2.72,2.72,2.72,2.72,2.72,2.72,2.72,2.72,2.72,2.72,2.72,2.72,2.72,2.72,2.72,2.72,2.72,2.72,2.72,2.72,2.72,2.72,2.72,2.72,2.72,2.72,2.72,2.72,2.72,2.72,2.72,2.72,2.72,2.72,2.72,2.72,2.72,2.72,2.7359,2.7508,2.7508,2.7531,2.7534,2.7534,2.7252,2.6901,2.6675,2.6331,2.6054,2.6054,2.5781,2.6121,2.8082,2.8603,2.9808,3.3304,3.4283,3.5163,3.6811,3.7197,3.7295,3.7295,3.7189,3.7083,3.7083,3.6842,3.6684,3.6684,3.6679,3.6555,3.6283,3.6367,3.6309,3.6001,3.6253,3.6718,3.7438,3.8129,3.91,4.0312,4.0312,4.0312,4.0312,4.0312,4.0312,2.2922,2.3422,2.3906,2.5564,2.6184,2.639,2.6653,2.6851,2.7161,2.7604,2.7961,2.8336,2.8737,2.9059,2.9298,2.9298,2.9298,2.9171,2.8856,2.8559,2.8241,2.7754,2.7492,2.7335,2.7216,2.72,2.72,2.72,2.72,0.0,2.72,2.72,2.72,2.72,2.72,2.72,2.72,2.72,2.72,2.72,2.72,2.72,2.72,2.72,2.72,2.72,2.72,2.72,2.72,2.72,2.72,2.72,2.72,2.72,2.72,2.72,2.72,2.72,2.72,2.72,2.72,2.72,2.728,2.7383,2.7383,2.7588,2.7865,2.7865,2.786,2.786,2.786,2.7582,2.7234,2.6866,2.6473,2.6215,2.6326,2.5992,2.6295,2.8396,2.905,3.0242,3.3367,3.4574,3.553,3.6763,3.7394,3.7725,3.7725,3.7725,3.7725,3.7725,3.7598,3.751,3.751,3.7383,3.7178,3.6939,3.6783,3.6577,3.625,3.6526,3.6934,3.7438,3.8362,3.9331,4.0312,4.0312,4.0312,4.0312,4.0312,4.0312,0.0,0.0,0.0,2.5239,2.5596,2.5779,2.6485,2.6693,2.6867,2.7524,2.7937,2.8286,2.8705,2.9036,2.9282,2.9282,2.929,2.9179,2.8872,2.8809,2.8519,2.781,2.7707,2.7564,2.7248,2.7208,2.72,2.72,2.72,2.72,2.72,2.72,2.72,2.72,2.72,2.72,2.72,2.72,2.72,2.72,2.72,2.72,2.72,2.72,2.72,2.72,2.72,2.72,2.72,2.72,2.72,2.72,2.72,2.72,2.72,2.72,2.72,2.72,2.72,2.72,2.72,2.7216,2.7413,2.7699,2.7707,2.7953,2.8222,2.8222,2.8238,2.8254,2.8212,2.7984,2.7652,2.7338,2.6974,2.6776,2.7098,2.6607,2.658,2.833,2.9329,3.0486,3.232,3.4613,3.6201,3.6275,3.7594,3.8611,3.8611,3.8611,3.8611,3.8611,3.8193,3.7904,3.7904,3.7568,3.7334,3.7314,3.6934,3.6744,3.6724,3.7591,3.8073,3.8096,3.9506,4.0247,4.0279,4.0279,4.0312,4.0312,4.0312,4.0312,2.27,0.0,0.0,0.0,0.0,0.0,0.0,2.6311,2.6764,2.6922,2.7447,2.7865,2.7968,2.8511,2.8952,2.8952,2.9131,2.9266,2.9163,2.8968,2.8729,2.8503,2.8035,2.7659,2.7564,2.7351,2.72,0.0,2.72,2.72,2.72,2.72,2.72,2.72,2.72,2.72,2.72,2.72,2.72,2.72,2.72,2.72,2.72,2.72,2.72,2.72,2.72,2.72,2.72,2.72,2.72,2.72,2.72,2.72,2.72,2.72,2.72,2.72,2.72,2.72,2.7248,2.7469,2.7619,2.7746,2.7976,2.8511,2.9004,2.9004,2.9181,2.9284,2.902,2.8866,2.8763,2.8653,2.858,2.8529,2.8584,2.8243,2.8279,2.9634,3.0256,3.1559,3.4646,3.5758,3.6618,3.7741,3.8309,3.8611,3.8611,3.8611,3.8611,3.8611,3.8467,3.8398,3.8398,3.8291,3.8086,3.7773,3.7637,3.7441,3.7139,3.708,3.7323,3.7803,3.8395,3.8968,3.9516,4.0051,4.0312,4.0312,4.0312,4.0312,0.0,0.0,0.0,0.0,0.0,0.0,2.5786,2.6192,2.6574,2.6868,2.7343,2.7699,2.7699,2.8178,2.8591,2.8777,2.8976,2.9131,2.9274,2.9123,2.8968,2.8825,2.8408,2.8106,2.7913,2.7596,2.7423,2.7423,2.7288,2.72,2.72,2.72,2.72,2.72,2.72,2.72,2.72,2.72,2.72,2.72,2.72,2.72,2.72,2.72,2.72,2.72,2.72,2.72,2.72,2.72,2.72,2.72,2.72,2.72,2.72,2.72,2.72,2.7224,2.7367,2.751,2.7685,2.805,2.836,2.8603,2.8794,2.9282,2.9727,2.9727,2.9873,2.9958,2.9727,2.9652,2.9615,2.9436,2.9287,2.9099,2.8942,2.8687,2.8791,2.9666,3.0341,3.1515,3.3758,3.5299,3.6507,3.7447,3.8153,3.8611,3.8611,3.8611,3.8611,3.8611,3.8611,3.8611,3.8611,3.8611,3.8467,3.8213,3.8027,3.7777,3.7568,3.7464,3.7658,3.8153,3.8621,3.9136,3.9648,4.0073,4.0312,4.0312,4.0312,4.0312,0.0,0.0,0.0,0.0,0.0,0.0,2.5921,2.612,2.6295,2.6899,2.7278,2.7524,2.7524,2.7794,2.8162,2.8514,2.8634,2.8805,2.9234,2.9298,2.9179,2.8896,2.8825,2.8673,2.8313,2.7945,2.7738,2.7699,2.7399,2.72,2.72,2.72,2.72,2.72,2.72,2.72,2.72,2.72,2.72,2.72,2.72,2.72,2.72,2.72,2.72,2.72,2.72,2.72,2.72,2.72,2.72,2.72,2.72,2.72,2.72,2.72,2.7248,2.7359,2.7643,2.7992,2.84,2.8765,2.9306,2.9801,2.9833,3.0071,3.0386,3.0351,3.0367,3.0367,3.0367,3.0367,3.0255,2.9926,2.9514,2.9109,2.8754,2.8592,2.8585,2.8915,2.9877,3.0814,3.1467,3.3977,3.6053,3.6423,3.7668,3.8611,3.8611,3.8611,3.8611,3.8611,3.8611,3.8611,3.8611,3.8611,3.8611,3.8611,3.8213,3.7998,3.7998,3.8215,3.8508,3.8869,3.9565,4.0078,4.0312,4.0312,4.0312,4.0312,4.0312,4.0312,0.0,0.0,0.0,0.0,0.0,0.0,2.5278,2.5532,2.5739,2.5882,2.6215,2.6486,2.6486,2.6772,2.7035,2.7107,2.7558,2.8249,2.9171,2.9298,2.9274,2.9202,2.8976,2.8777,2.8705,2.8336,2.7984,2.7715,2.7399,2.72,2.72,2.72,2.72,2.72,2.72,2.72,2.72,2.72,2.72,2.72,2.72,2.72,2.72,2.72,2.72,2.72,2.72,2.72,2.72,2.72,2.72,2.72,2.72,2.72,2.72,2.72,2.755,2.8,2.8072,2.8516,2.9147,2.9504,2.9674,2.9841,3.0103,3.0473,3.0777,3.0727,3.0691,3.0691,3.0691,3.0691,3.0691,3.0614,3.0223,2.9861,2.9784,2.9326,2.8923,2.8992,2.9155,3.0107,3.2788,3.378,3.5103,3.7741,3.8382,3.8611,3.8611,3.8611,3.8611,3.8611,3.8611,3.8611,3.8611,3.8611,3.8611,3.8611,3.8496,3.8447,3.8447,3.8171,3.8412,3.9254,3.9908,4.0247,4.0312,4.0312,4.0312,4.0312,4.0312,4.0312,0.0,0.0,0.0,2.5063,0.0,0.0,0.0,2.5477,2.5652,2.5858,2.6057,2.6208,2.6208,2.6359,2.6502,2.6677,2.7121,2.7653,2.8178,2.8702,2.9099,2.9274,2.9139,2.9036,2.9036,2.871,2.8352,2.7968,2.7627,2.7437,2.7437,2.7296,2.72,2.72,2.72,2.72,2.72,2.72,2.72,2.72,2.72,2.72,2.72,2.72,2.7296,2.7437,2.7437,2.7524,2.7717,2.7717,2.7717,2.7693,2.7492,2.7437,2.7477,2.7852,2.8201,2.8543,2.8865,2.9361,2.9862,3.0227,3.0465,3.0632,3.0799,3.083,3.0821,3.0817,3.0786,3.0786,3.0786,3.07,3.0445,3.0023,2.9617,2.9297,2.903,2.8713,2.8449,2.8449,2.843,2.9427,3.2591,3.3815,3.5248,3.7842,3.8252,3.833,3.8581,3.8611,3.8611,3.8611,3.8611,3.8611,3.8611,3.8611,3.8611,3.8611,3.8611,3.8611,3.8611,3.8369,3.8618,3.9388,4.0224,4.052,4.0312,4.0312,4.0312,4.0312,4.0312,4.0312,0.0,0.0,0.0,0.0,0.0,2.5183,0.0,0.0,0.0,0.0,0.0,0.0,0.0,0.0,0.0,2.6263,0.0,0.0,0.0,2.7749,0.0,2.8853,2.9067,2.9171,2.9099,2.8773,2.8503,2.8344,2.7857,2.7627,2.7691,2.7421,2.7272,2.72,2.72,2.72,2.72,2.72,2.72,2.72,2.72,2.724,2.7304,2.7304,2.7494,2.7794,2.7794,2.7945,2.8191,2.8191,2.8191,2.8159,2.7897,2.7834,2.7995,2.8594,2.8928,2.9182,2.9719,3.0187,3.0577,3.0908,3.1118,3.1279,3.1279,3.0933,3.0554,3.0554,3.05,3.0454,3.0454,3.0199,2.9784,2.9093,2.8701,2.8364,2.7987,2.7868,2.7824,2.7824,2.7773,2.8678,3.1653,3.324,3.4838,3.701,3.7354,3.7597,3.8245,3.8366,3.8366,3.8366,3.8366,3.8366,3.8366,3.8366,3.8366,3.8366,3.8366,3.8369,3.8447,3.8728,3.9104,3.964,4.0537,4.0771,4.0312,4.0312,4.0312,4.0312,4.0312,4.0312,0.0,0.0,0.0,0.0,2.5111,0.0,0.0,0.0,0.0,2.5214,0.0,0.0,0.0,0.0,0.0,0.0,0.0,0.0,2.5787,2.6446,2.7075,2.7399,2.83,2.8702,2.8376,2.8008,2.809,2.8697,2.7812,2.7399,2.7683,2.7659,2.7492,2.7208,2.72,2.72,2.72,2.72,2.72,2.72,2.72,2.7367,2.7635,2.7635,2.7818,2.8135,2.8135,2.8151,2.8191,2.8191,2.8191,2.8183,2.8151,2.8368,2.8697,2.8777,2.9353,3.0156,3.0235,3.0704,3.1276,3.1315,3.1132,3.0863,3.0863,3.0314,2.9647,2.9647,2.943,2.9205,2.9205,2.9003,2.8755,2.8679,2.8311,2.7949,2.7911,2.7692,2.7532,2.7532,2.7298,2.7857,3.0224,3.0809,3.1951,3.4865,3.5341,3.5834,3.7245,3.7441,3.7441,3.7441,3.7441,3.7441,3.7441,3.7441,3.7441,3.7441,3.7441,3.7607,3.7943,3.9217,4.0083,4.0475,4.0817,4.0771,4.0312,4.0312,4.0312,4.0312,4.0312,4.0312,0.0,0.0,0.0,0.0,0.0,0.0,2.5128,0.0,2.5111,0.0,0.0,0.0,0.0,0.0,0.0,0.0,2.5279,0.0,0.0,0.0,2.6613,0.0,0.0,0.0,2.8167,2.8471,2.8757,2.9051,2.8471,2.8178,2.8329,2.7921,2.7635,2.7484,2.7312,2.72,2.72,2.72,2.7304,2.7477,2.7477,2.7659,2.7984,2.7984,2.8209,2.8543,2.8543,2.8654,2.8845,2.8845,2.8845,2.8869,2.904,2.9123,2.9182,2.9795,3.0296,3.0664,3.0871,3.1133,3.1356,3.1125,3.0941,3.0709,3.0198,2.9667,2.9201,2.9201,2.9,2.8791,2.8791,2.8544,2.826,2.8007,2.7644,2.7393,2.7393,2.7291,2.7195,2.7195,2.7086,2.729,2.8247,2.9148,3.0542,3.2945,3.3339,3.3634,3.4558,3.4702,3.5025,3.5865,3.5972,3.6347,3.7224,3.7295,3.7295,3.7295,3.7295,3.7585,3.8175,3.9183,3.9878,4.0197,4.071,4.0771,4.0312,4.0312,4.0312,4.0312,4.0312,4.0312,2.5311,0.0,0.0,0.0,0.0,0.0,0.0,0.0,0.0,0.0,0.0,0.0,0.0,0.0,0.0,0.0,0.0,2.5342,0.0,2.5508,0.0,0.0,0.0,0.0,0.0,2.8416,2.8805,2.8988,2.8765,2.8662,2.8801,2.8289,2.7897,2.7707,2.7445,2.7296,2.72,2.7296,2.7478,2.7699,2.7786,2.8008,2.8368,2.8368,2.8567,2.8952,2.8952,2.9095,2.9306,2.9401,2.9441,2.9488,2.9933,2.982,2.9541,3.0545,3.0964,3.1045,3.1192,3.1156,3.1002,3.0856,3.0562,3.0176,2.9551,2.9049,2.8705,2.8705,2.8513,2.8305,2.8305,2.8059,2.774,2.7416,2.7196,2.6991,2.6991,2.6991,2.6991,2.6991,2.6991,2.6991,2.6991,2.7876,2.9222,3.1045,3.1294,3.1574,3.2351,3.243,3.2854,3.3938,3.441,3.5129,3.6259,3.6689,3.6943,3.6943,3.706,3.7469,3.8225,3.9054,3.9631,3.9889,4.0635,4.0771,4.0312,4.0312,4.0312,4.0312,4.0312,4.0312,0.0,0.0,0.0,2.5168,0.0,0.0,0.0,0.0,2.5111,0.0,0.0,0.0,0.0,0.0,0.0,2.4658,2.4897,0.0,0.0,0.0,0.0,0.0,0.0,0.0,0.0,2.7256,2.7542,2.8209,2.8249,2.8392,2.8785,2.8785,2.8424,2.7723,2.7683,2.7516,2.7208,2.7508,2.7683,2.7699,2.8016,2.8392,2.8785,2.8785,2.894,2.9282,2.9282,2.929,2.9322,2.9663,2.977,2.9878,3.0598,3.0429,2.987,3.0615,3.1115,3.1341,3.0933,3.05,3.0214,3.0663,3.0015,2.9045,2.9007,2.8517,2.7926,2.7926,2.7737,2.7533,2.7533,2.7283,2.7042,2.7005,2.6998,2.6991,2.6991,2.6991,2.6991,2.6991,2.6991,2.6991,2.6991,2.7027,2.7594,2.9087,2.9294,2.983,3.1366,3.1542,3.1577,3.1613,3.2963,3.3842,3.3921,3.5215,3.603,3.603,3.6455,3.706,3.7807,3.889,3.962,3.989,4.0624,4.0771,4.0312,4.0312,4.0312,4.0312,4.0312,4.0312,0.0,0.0,2.4855,2.4778,0.0,0.0,0.0,0.0,0.0,0.0,0.0,0.0,0.0,0.0,2.5071,2.4952,2.5032,0.0,0.0,0.0,0.0,0.0,0.0,0.0,0.0,0.0,2.7979,2.8167,2.8662,2.8988,2.9107,2.8928,2.8551,2.804,2.781,2.7643,2.7524,2.7635,2.7929,2.8424,2.8527,2.8773,2.9115,2.9115,2.9179,2.9306,2.9544,2.9647,2.9671,2.9976,3.0111,3.0195,3.0718,3.046,2.9864,3.0329,3.0262,2.9926,2.9783,2.9624,2.9473,2.9374,2.9071,2.8671,2.8375,2.7966,2.7642,2.7642,2.7408,2.7159,2.7159,2.7071,2.6991,2.6991,2.6991,2.6991,2.6991,2.6991,2.6991,2.6991,2.6991,2.6991,2.6991,2.6991,2.7165,2.7659,2.7731,2.7941,2.8439,2.8511,2.8899,2.9877,3.0438,3.1578,3.3632,3.5143,3.5982,3.5982,3.6152,3.6572,3.731,3.8142,3.8848,3.9444,4.0148,4.0443,4.0312,4.0312,4.0312,4.0312,4.0312,4.0312,2.4342,2.4503,0.0,2.4441,2.4738,0.0,2.4953,0.0,0.0,0.0,0.0,0.0,0.0,0.0,0.0,2.5247,2.5191,0.0,0.0,2.5111,0.0,0.0,0.0,0.0,0.0,0.0,2.7637,2.7984,2.8583,2.9028,0.0,2.9119,2.8734,2.8207,2.8146,2.7979,2.7699,2.7979,2.8329,2.8801,2.8928,2.9075,2.9298,2.9298,2.9369,2.9496,2.9727,2.9857,3.0029,3.037,3.0513,3.0545,3.0948,3.0612,2.9998,3.0224,2.9737,2.9025,2.9167,2.8987,2.8725,2.8619,2.8432,2.8155,2.7856,2.7554,2.7364,2.7481,2.7239,2.702,2.713,2.7078,2.6991,2.6991,2.6991,2.6991,2.6991,2.6991,2.6991,2.6991,2.6991,2.6991,2.6991,2.6991,2.6991,2.6991,2.6991,2.6991,2.6991,2.6991,2.734,2.8331,2.8891,3.0447,3.3528,3.4677,3.5426,3.5957,3.5982,3.6219,3.6684,3.7595,3.8402,3.9089,3.9898,4.0399,4.0541,4.0399,4.0312,4.0312,4.0312,4.0312]},{"header":{"parameterUnit":"m.s-1","parameterCategory":1,"la1":30.6,"la2":29.2853,"lo1":-89.7004,"lo2":-87.6739,"dy":0.0162,"dx":0.0183,"nx":112,"ny":82,"refTime":"2023-03-01T06:00:00:Z","depth":0,"parameterNumber":3,"parameterNumberName":"V-component_of_WINDS"},"data":[0.0,0.0,0.0,0.0,0.0,0.0,0.0,0.0,0.0,0.0,0.0,0.0,0.0,0.0,0.0,0.0,0.0,0.0,0.0,0.0,0.0,0.0,0.0,0.0,0.0,0.0,0.0,0.0,0.0,0.0,0.0,0.0,0.0,0.0,0.0,0.0,0.0,0.0,0.0,0.0,0.0,0.0,0.0,0.0,0.0,0.0,0.0,0.0,0.0,0.0,0.0,0.0,0.0,0.0,0.0,0.0,0.0,0.0,0.0,0.0,0.0,0.0,0.0,0.0,0.0,0.0,0.0,0.0,0.0,0.0,0.0,0.0,0.0,0.0,0.0,0.0,0.0,0.0,0.0,0.0,0.0,0.0,0.0,0.0,0.0,0.0,0.0,0.0,0.0,0.0,0.0,3.0274,3.1033,3.167,3.2119,3.2482,3.1607,2.9023,0.0,0.0,0.0,0.0,0.0,0.0,0.0,0.0,0.0,0.0,0.0,0.0,0.0,0.0,0.0,0.0,0.0,0.0,0.0,0.0,0.0,0.0,0.0,0.0,0.0,0.0,0.0,0.0,0.0,0.0,0.0,0.0,0.0,0.0,0.0,0.0,0.0,0.0,0.0,0.0,0.0,0.0,0.0,0.0,0.0,0.0,0.0,0.0,0.0,0.0,0.0,0.0,0.0,0.0,0.0,0.0,0.0,0.0,0.0,0.0,0.0,0.0,0.0,0.0,0.0,0.0,0.0,0.0,0.0,0.0,0.0,0.0,0.0,0.0,0.0,0.0,0.0,0.0,0.0,0.0,0.0,0.0,0.0,0.0,0.0,0.0,0.0,0.0,0.0,0.0,0.0,0.0,0.0,0.0,0.0,0.0,0.0,0.0,0.0,0.0,0.0,0.0,0.0,0.0,3.0068,3.1177,3.1405,3.1865,3.2769,3.3003,3.2109,2.9782,0.0,0.0,0.0,0.0,0.0,0.0,0.0,0.0,0.0,0.0,0.0,0.0,0.0,0.0,0.0,0.0,0.0,0.0,0.0,0.0,0.0,0.0,0.0,0.0,0.0,0.0,0.0,0.0,0.0,0.0,0.0,0.0,0.0,0.0,0.0,0.0,0.0,0.0,0.0,0.0,0.0,0.0,0.0,0.0,0.0,0.0,0.0,0.0,0.0,0.0,0.0,0.0,0.0,0.0,0.0,0.0,0.0,0.0,0.0,0.0,0.0,0.0,0.0,0.0,0.0,0.0,0.0,0.0,0.0,0.0,0.0,0.0,0.0,0.0,0.0,0.0,0.0,0.0,0.0,0.0,0.0,0.0,0.0,0.0,0.0,0.0,0.0,0.0,0.0,0.0,0.0,0.0,0.0,0.0,0.0,0.0,0.0,0.0,0.0,0.0,0.0,0.0,0.0,3.0776,3.1432,3.2718,3.2869,3.3063,3.3601,3.3939,3.3225,3.1133,3.1107,0.0,0.0,0.0,0.0,0.0,0.0,0.0,0.0,0.0,0.0,0.0,0.0,0.0,0.0,0.0,0.0,0.0,0.0,0.0,0.0,0.0,0.0,0.0,0.0,0.0,0.0,0.0,0.0,0.0,0.0,0.0,0.0,0.0,0.0,0.0,0.0,0.0,0.0,0.0,0.0,0.0,0.0,0.0,0.0,0.0,0.0,0.0,0.0,0.0,0.0,0.0,0.0,0.0,0.0,0.0,0.0,0.0,0.0,0.0,0.0,0.0,0.0,0.0,0.0,0.0,0.0,0.0,0.0,0.0,0.0,0.0,0.0,0.0,0.0,0.0,0.0,0.0,0.0,0.0,0.0,0.0,0.0,0.0,0.0,0.0,0.0,0.0,0.0,0.0,0.0,0.0,0.0,0.0,0.0,0.0,0.0,0.0,0.0,0.0,0.0,0.0,0.0,3.2309,3.2947,3.4013,3.406,3.4166,3.4586,3.4954,3.4278,3.2223,3.2148,0.0,0.0,0.0,0.0,0.0,0.0,0.0,0.0,0.0,0.0,0.0,0.0,0.0,0.0,0.0,0.0,0.0,0.0,0.0,0.0,0.0,0.0,0.0,0.0,0.0,0.0,0.0,0.0,0.0,0.0,0.0,0.0,0.0,0.0,0.0,0.0,0.0,0.0,0.0,0.0,0.0,0.0,0.0,0.0,0.0,0.0,0.0,0.0,0.0,0.0,0.0,0.0,0.0,0.0,0.0,0.0,0.0,0.0,0.0,0.0,0.0,0.0,0.0,0.0,0.0,0.0,0.0,0.0,0.0,0.0,0.0,0.0,0.0,0.0,0.0,0.0,0.0,0.0,0.0,0.0,0.0,0.0,0.0,0.0,0.0,0.0,0.0,0.0,0.0,0.0,0.0,0.0,0.0,0.0,0.0,0.0,0.0,0.0,0.0,0.0,0.0,0.0,3.3103,3.4013,3.4414,3.4194,3.4513,3.577,3.589,3.4901,3.2526,3.2598,0.0,0.0,0.0,0.0,0.0,0.0,0.0,0.0,0.0,0.0,0.0,0.0,0.0,0.0,0.0,0.0,0.0,0.0,0.0,0.0,0.0,0.0,0.0,0.0,0.0,0.0,0.0,0.0,0.0,0.0,0.0,0.0,0.0,0.0,0.0,0.0,0.0,0.0,0.0,0.0,0.0,0.0,0.0,0.0,0.0,0.0,0.0,0.0,0.0,0.0,0.0,0.0,0.0,0.0,0.0,0.0,0.0,0.0,0.0,0.0,0.0,0.0,0.0,0.0,0.0,0.0,0.0,0.0,0.0,0.0,0.0,0.0,0.0,0.0,0.0,0.0,0.0,0.0,0.0,0.0,0.0,0.0,0.0,0.0,0.0,0.0,0.0,0.0,0.0,0.0,0.0,0.0,0.0,0.0,0.0,0.0,0.0,0.0,0.0,0.0,0.0,0.0,3.483,3.5691,0.0,3.595,3.6088,3.6578,3.6834,3.6162,3.438,0.0,0.0,0.0,0.0,0.0,0.0,0.0,0.0,0.0,0.0,0.0,0.0,0.0,0.0,0.0,0.0,0.0,0.0,0.0,0.0,0.0,0.0,0.0,0.0,0.0,0.0,0.0,0.0,0.0,0.0,0.0,0.0,0.0,0.0,0.0,0.0,0.0,0.0,0.0,0.0,0.0,0.0,0.0,0.0,0.0,0.0,0.0,0.0,0.0,0.0,0.0,0.0,0.0,0.0,0.0,0.0,0.0,0.0,0.0,0.0,0.0,0.0,0.0,0.0,0.0,0.0,0.0,0.0,0.0,0.0,0.0,0.0,0.0,0.0,0.0,0.0,0.0,0.0,0.0,0.0,0.0,0.0,0.0,0.0,0.0,0.0,0.0,0.0,0.0,0.0,0.0,0.0,0.0,0.0,0.0,0.0,0.0,0.0,0.0,0.0,0.0,0.0,3.5502,3.6583,3.7406,0.0,3.7701,3.767,3.7778,3.7991,3.7373,3.5548,0.0,0.0,0.0,0.0,0.0,0.0,0.0,0.0,0.0,0.0,0.0,0.0,0.0,0.0,0.0,0.0,0.0,0.0,0.0,0.0,0.0,0.0,0.0,0.0,0.0,0.0,0.0,0.0,0.0,0.0,0.0,0.0,0.0,0.0,0.0,0.0,0.0,0.0,0.0,0.0,0.0,0.0,0.0,0.0,0.0,0.0,0.0,0.0,0.0,0.0,0.0,0.0,0.0,0.0,0.0,0.0,0.0,0.0,0.0,0.0,0.0,0.0,0.0,0.0,0.0,0.0,0.0,0.0,0.0,0.0,0.0,0.0,0.0,0.0,0.0,0.0,0.0,0.0,0.0,0.0,0.0,0.0,0.0,0.0,0.0,0.0,0.0,0.0,0.0,0.0,0.0,0.0,0.0,0.0,0.0,0.0,0.0,0.0,0.0,0.0,0.0,0.0,3.7059,3.8169,3.9139,3.9471,3.9203,3.914,3.9471,3.9503,3.8356,0.0,0.0,0.0,0.0,0.0,0.0,0.0,0.0,0.0,0.0,0.0,0.0,0.0,0.0,0.0,0.0,0.0,0.0,0.0,0.0,0.0,0.0,0.0,0.0,0.0,0.0,0.0,0.0,0.0,0.0,0.0,0.0,0.0,0.0,0.0,0.0,0.0,0.0,0.0,0.0,0.0,0.0,0.0,0.0,0.0,0.0,0.0,0.0,0.0,0.0,0.0,0.0,0.0,0.0,0.0,0.0,0.0,0.0,0.0,0.0,0.0,0.0,0.0,0.0,0.0,0.0,0.0,0.0,0.0,0.0,0.0,0.0,0.0,0.0,0.0,0.0,0.0,0.0,0.0,0.0,0.0,0.0,0.0,0.0,0.0,0.0,0.0,0.0,0.0,0.0,0.0,0.0,0.0,0.0,0.0,0.0,0.0,0.0,0.0,0.0,0.0,0.0,0.0,3.7423,3.8968,3.9976,3.9534,3.9409,3.9393,3.9487,3.9503,3.8541,3.627,0.0,0.0,0.0,0.0,0.0,0.0,0.0,0.0,0.0,0.0,0.0,0.0,0.0,0.0,0.0,0.0,0.0,0.0,0.0,0.0,0.0,0.0,0.0,0.0,0.0,0.0,0.0,0.0,0.0,0.0,0.0,0.0,0.0,0.0,0.0,0.0,0.0,0.0,0.0,0.0,0.0,0.0,0.0,0.0,0.0,0.0,0.0,0.0,0.0,0.0,0.0,0.0,0.0,0.0,0.0,0.0,0.0,0.0,0.0,0.0,0.0,0.0,0.0,0.0,0.0,0.0,0.0,0.0,0.0,0.0,0.0,0.0,0.0,0.0,0.0,0.0,0.0,0.0,0.0,0.0,0.0,0.0,0.0,0.0,0.0,0.0,0.0,0.0,0.0,0.0,0.0,0.0,0.0,0.0,0.0,0.0,0.0,0.0,0.0,0.0,0.0,0.0,3.8349,3.9945,4.0927,4.0388,4.034,4.034,4.034,4.034,3.9566,3.775,0.0,0.0,0.0,0.0,0.0,0.0,0.0,0.0,0.0,0.0,0.0,0.0,0.0,0.0,0.0,0.0,0.0,0.0,0.0,0.0,0.0,0.0,0.0,0.0,0.0,0.0,0.0,0.0,0.0,0.0,0.0,0.0,0.0,0.0,0.0,0.0,0.0,0.0,0.0,0.0,0.0,0.0,0.0,0.0,0.0,0.0,0.0,0.0,0.0,0.0,0.0,0.0,0.0,0.0,0.0,0.0,0.0,0.0,0.0,0.0,0.0,0.0,0.0,0.0,0.0,0.0,0.0,0.0,0.0,0.0,0.0,0.0,0.0,0.0,0.0,0.0,0.0,0.0,0.0,0.0,0.0,0.0,0.0,0.0,0.0,0.0,0.0,0.0,0.0,0.0,0.0,0.0,0.0,0.0,0.0,0.0,0.0,0.0,0.0,0.0,0.0,0.0,3.9518,4.088,4.1801,4.1621,4.1605,4.1605,4.1605,4.1605,4.1004,3.9582,0.0,0.0,0.0,0.0,0.0,0.0,0.0,0.0,0.0,0.0,0.0,0.0,0.0,0.0,0.0,0.0,0.0,0.0,0.0,0.0,0.0,0.0,0.0,0.0,0.0,0.0,0.0,0.0,0.0,0.0,0.0,0.0,0.0,0.0,0.0,0.0,0.0,0.0,0.0,0.0,0.0,0.0,0.0,0.0,0.0,0.0,0.0,0.0,0.0,0.0,0.0,0.0,0.0,0.0,0.0,0.0,0.0,0.0,0.0,0.0,4.0084,0.0,0.0,0.0,0.0,0.0,0.0,0.0,0.0,0.0,0.0,0.0,0.0,0.0,0.0,0.0,0.0,0.0,0.0,0.0,0.0,0.0,0.0,0.0,0.0,0.0,0.0,0.0,0.0,0.0,0.0,0.0,0.0,0.0,0.0,0.0,0.0,0.0,0.0,0.0,0.0,0.0,3.9503,4.0767,4.1654,4.1605,4.1605,4.1605,4.1605,4.1605,4.1004,3.9582,3.9376,0.0,0.0,0.0,0.0,0.0,0.0,0.0,0.0,0.0,0.0,0.0,0.0,0.0,0.0,0.0,0.0,0.0,0.0,0.0,0.0,0.0,0.0,0.0,0.0,0.0,0.0,0.0,0.0,0.0,0.0,0.0,0.0,0.0,0.0,0.0,0.0,0.0,0.0,0.0,0.0,0.0,0.0,0.0,0.0,0.0,0.0,0.0,0.0,0.0,0.0,0.0,0.0,0.0,0.0,0.0,0.0,0.0,0.0,0.0,0.0,4.0148,0.0,0.0,0.0,0.0,0.0,0.0,0.0,0.0,0.0,0.0,0.0,0.0,0.0,0.0,0.0,0.0,0.0,0.0,0.0,0.0,0.0,0.0,0.0,0.0,0.0,0.0,0.0,0.0,0.0,0.0,0.0,0.0,0.0,0.0,0.0,0.0,0.0,0.0,0.0,0.0,3.9409,4.0767,4.1703,4.1605,4.1605,4.1605,4.1605,4.1605,4.1305,4.0562,4.0214,0.0,0.0,0.0,0.0,0.0,0.0,0.0,0.0,0.0,0.0,0.0,0.0,0.0,0.0,0.0,0.0,0.0,0.0,0.0,0.0,0.0,0.0,0.0,0.0,0.0,0.0,0.0,0.0,0.0,0.0,0.0,0.0,0.0,0.0,0.0,0.0,0.0,0.0,0.0,0.0,0.0,0.0,0.0,0.0,0.0,0.0,0.0,0.0,0.0,0.0,0.0,0.0,0.0,4.3893,4.4291,4.4747,4.5417,4.6087,4.6522,4.3199,4.1958,4.2212,4.08,0.0,0.0,0.0,0.0,0.0,0.0,0.0,0.0,0.0,0.0,0.0,0.0,0.0,0.0,0.0,0.0,0.0,0.0,0.0,0.0,0.0,0.0,0.0,0.0,4.4202,4.4242,0.0,0.0,0.0,0.0,0.0,0.0,0.0,0.0,0.0,0.0,0.0,0.0,3.9534,4.0878,4.1784,4.1621,4.1605,4.1605,4.1605,4.1605,4.1605,4.1605,4.1083,4.0719,0.0,0.0,0.0,0.0,0.0,0.0,0.0,0.0,0.0,0.0,0.0,0.0,0.0,0.0,0.0,0.0,0.0,0.0,0.0,0.0,0.0,0.0,0.0,0.0,0.0,0.0,0.0,0.0,0.0,0.0,0.0,0.0,4.6695,4.5873,0.0,0.0,0.0,0.0,0.0,0.0,0.0,0.0,0.0,0.0,0.0,0.0,0.0,4.5471,4.5581,4.7049,4.7279,4.6295,4.7886,4.8133,4.7218,4.7345,4.7435,4.7508,4.6983,0.0,4.4765,4.3842,0.0,0.0,0.0,0.0,0.0,0.0,0.0,0.0,0.0,0.0,0.0,0.0,0.0,0.0,0.0,0.0,0.0,0.0,0.0,0.0,0.0,0.0,4.7072,4.7059,4.7141,4.7155,0.0,4.5131,4.3583,4.3347,4.3346,0.0,0.0,0.0,0.0,0.0,0.0,0.0,4.034,4.1146,4.1621,4.1605,4.1605,4.1605,4.1605,4.1605,4.1605,4.1605,4.1526,4.121,4.0625,4.1036,0.0,0.0,0.0,0.0,0.0,0.0,0.0,0.0,0.0,0.0,0.0,0.0,0.0,0.0,0.0,0.0,0.0,0.0,0.0,0.0,0.0,0.0,0.0,0.0,0.0,0.0,0.0,0.0,0.0,4.6127,4.66,4.6834,4.5851,4.4863,0.0,0.0,0.0,0.0,0.0,0.0,0.0,0.0,0.0,4.6121,4.6498,4.6902,4.7334,4.8135,4.8399,4.8168,4.8942,4.9221,4.9039,4.9039,4.9039,4.9021,4.8576,4.7978,4.7182,4.5472,4.4304,4.3526,0.0,0.0,0.0,0.0,4.2692,4.2637,4.454,4.4812,4.4331,4.4473,0.0,0.0,0.0,0.0,0.0,0.0,0.0,0.0,0.0,0.0,4.7807,4.822,4.7996,4.7703,4.7703,4.6811,4.5753,0.0,4.4291,4.3385,4.1429,0.0,0.0,0.0,0.0,4.0526,4.0432,4.1113,4.1605,4.1605,4.1605,4.1605,4.1605,4.1605,4.1736,4.2029,4.2045,4.2045,4.2008,4.1865,4.1465,0.0,0.0,0.0,0.0,0.0,0.0,0.0,0.0,0.0,0.0,0.0,0.0,0.0,0.0,0.0,0.0,0.0,0.0,0.0,0.0,0.0,0.0,0.0,0.0,0.0,0.0,0.0,0.0,4.6581,4.6942,4.747,4.7188,4.6695,0.0,0.0,0.0,0.0,0.0,0.0,4.8159,4.7592,4.7666,4.855,4.8809,4.9205,4.9776,4.9545,4.9614,4.9992,4.9661,4.9742,5.0188,5.0123,5.0101,5.0064,4.9474,4.9083,4.8728,4.6729,4.5562,4.4965,4.4349,4.3996,4.3852,4.4051,4.3996,4.4122,4.6228,4.6694,4.6406,4.6739,4.6802,4.6476,4.507,0.0,0.0,0.0,0.0,4.6893,4.8186,4.8117,4.7841,4.8393,4.81,4.7703,4.7703,4.7703,4.7279,0.0,4.5123,4.411,4.2188,0.0,0.0,0.0,0.0,4.1836,4.1466,4.1992,4.2263,4.1922,4.1889,4.181,4.1621,4.172,4.1964,4.2381,4.2508,4.2743,4.3098,4.2721,4.2415,4.219,0.0,0.0,0.0,0.0,0.0,0.0,0.0,0.0,0.0,0.0,0.0,0.0,0.0,0.0,0.0,0.0,0.0,0.0,0.0,0.0,0.0,0.0,0.0,0.0,0.0,0.0,0.0,0.0,0.0,4.7457,4.8344,0.0,0.0,0.0,0.0,4.7902,4.7663,4.8253,4.9977,5.0444,5.1183,5.2299,5.32,5.3628,5.3524,5.264,5.2183,5.214,5.0928,5.0362,5.0375,5.0199,5.0101,5.0101,5.0064,4.9601,4.8829,4.7942,4.7562,4.7508,4.7471,4.6993,4.6413,4.7182,4.6983,4.6507,4.7774,4.7946,4.7553,4.7273,4.6784,4.6295,4.6147,4.6116,0.0,0.0,4.6014,4.6772,4.7548,4.7738,4.772,4.7755,4.7738,4.7703,4.7703,4.7703,4.7479,0.0,4.6514,4.6149,4.5159,0.0,4.3723,4.4901,4.4173,4.3719,4.4383,4.4528,4.4055,4.2779,4.2648,4.2364,4.1668,4.2077,4.2365,4.2397,4.282,4.3082,4.3113,4.3617,4.3516,4.2672,4.3427,0.0,0.0,0.0,0.0,0.0,0.0,0.0,0.0,0.0,0.0,0.0,0.0,0.0,0.0,0.0,0.0,0.0,0.0,0.0,0.0,0.0,0.0,0.0,0.0,0.0,0.0,0.0,0.0,5.0475,5.1155,0.0,5.0461,5.0674,5.0965,5.1192,5.1429,5.1844,5.2475,5.2187,5.2177,5.2596,5.2921,5.2828,5.2271,5.2438,5.2167,5.144,5.0474,4.9871,4.9604,4.9021,4.868,4.8568,4.8568,4.8395,4.8105,4.7815,4.7707,4.7707,4.7707,4.7526,4.7308,4.7598,4.7508,4.7352,4.786,4.7942,4.7818,4.7693,4.7328,4.6967,4.7134,4.7168,4.7128,4.693,4.71,4.7479,4.822,4.8065,4.7824,4.8307,4.8048,4.7703,4.7703,4.7703,4.7617,4.7358,4.7307,4.7052,4.6236,4.6172,4.5927,4.5022,4.4969,4.4935,4.474,4.469,4.4527,4.4037,4.4415,4.4399,4.3668,4.4202,4.4722,4.503,4.4675,4.459,4.4882,4.4577,4.4235,4.394,4.484,4.4462,0.0,0.0,0.0,0.0,0.0,0.0,0.0,0.0,0.0,0.0,0.0,0.0,0.0,0.0,0.0,0.0,0.0,0.0,0.0,0.0,0.0,0.0,0.0,0.0,0.0,0.0,5.1469,5.1369,5.2258,5.2532,5.1711,5.2137,5.2469,5.2469,5.2799,5.2995,5.2995,5.2475,5.2197,5.2197,5.2224,5.2085,5.1806,5.202,5.1927,5.1527,5.059,4.999,4.9681,4.9072,4.8699,4.8514,4.8514,4.8514,4.8514,4.8514,4.8514,4.846,4.7906,4.7707,4.7707,4.7707,4.7901,4.8205,4.8405,4.8496,4.8504,4.8324,4.8406,4.8548,4.8394,4.8511,4.8678,4.8518,4.8479,4.8582,4.9082,4.8841,4.86,4.91,4.8824,4.8479,4.8479,4.8479,4.8479,4.8479,4.8065,4.7617,4.7376,4.7586,4.7312,4.5929,4.6335,4.6482,4.5522,4.5815,4.5945,4.5457,4.5858,4.5853,4.5129,4.5452,4.5893,4.6462,4.5879,4.5751,4.6337,4.5317,4.4839,4.5108,4.5804,4.5419,4.3899,0.0,0.0,0.0,0.0,0.0,0.0,0.0,0.0,0.0,0.0,0.0,0.0,0.0,0.0,0.0,0.0,0.0,0.0,0.0,0.0,0.0,0.0,0.0,5.0616,5.122,5.1254,4.9939,5.1438,5.2027,5.0662,5.1064,5.1398,5.1398,5.1416,5.1435,5.1435,5.1435,5.1435,5.1435,5.1516,5.1907,5.2587,5.1751,5.1751,5.2614,5.1445,5.0851,5.0774,5.0579,5.0387,5.0206,5.0206,5.0177,5.0159,5.0159,5.013,4.9949,4.8387,4.7761,4.7779,4.7779,4.8363,4.9178,4.953,4.9714,4.9732,4.9221,4.9967,5.0879,4.991,5.0108,5.0581,5.012,5.0011,5.0011,5.0031,5.0031,5.0045,5.0062,5.008,5.008,5.008,5.008,5.008,5.008,4.8858,4.8048,4.8706,4.8255,4.78,4.7916,4.8433,0.0,4.703,4.8056,4.8364,4.6985,4.6839,4.6588,4.5922,4.5649,4.5816,4.6555,4.6337,4.654,4.7307,4.5877,4.5415,4.6167,4.6254,4.6306,4.6354,0.0,0.0,0.0,0.0,0.0,0.0,0.0,0.0,0.0,0.0,0.0,0.0,0.0,0.0,0.0,0.0,0.0,0.0,0.0,0.0,0.0,0.0,5.0691,5.1096,5.185,5.2231,5.1852,5.1767,5.1583,5.1189,5.1303,5.1398,5.1398,5.1936,5.2271,5.2271,5.2271,5.2271,5.2271,5.2856,5.2986,5.2605,5.3505,5.3784,5.3469,5.3132,5.2895,5.2738,5.2659,5.2545,5.2354,5.2354,5.191,5.1191,5.1191,5.0827,5.0203,4.9644,4.9449,4.9459,4.9553,4.984,5.0219,5.0455,5.0413,5.0228,5.0231,5.0254,5.0246,4.9976,5.0033,5.0178,5.0037,5.0011,5.0117,5.0651,5.0789,5.0927,5.1461,5.1599,5.1599,5.1599,5.1599,5.1599,5.1599,5.1255,5.0686,4.9824,4.9496,4.919,4.87,4.8763,0.0,4.8378,4.8655,4.8551,4.7625,4.7967,4.7971,4.7317,4.7639,4.8197,4.8983,4.8329,4.8003,4.8226,4.7233,4.7061,4.79,4.6845,4.6636,0.0,0.0,0.0,0.0,0.0,0.0,0.0,0.0,0.0,0.0,0.0,0.0,0.0,0.0,0.0,0.0,0.0,0.0,0.0,0.0,0.0,0.0,5.0907,5.1399,5.2261,5.2206,5.2215,5.2568,5.1835,5.1464,5.1788,5.1501,5.1269,5.1269,5.1732,5.2011,5.2011,5.2392,5.2605,5.2605,5.3385,5.3729,5.3599,5.4527,5.4955,5.4843,5.4843,5.4736,5.4509,5.4509,5.4149,5.3539,5.3539,5.2941,5.1992,5.1999,5.1723,0.0,0.0,0.0,0.0,0.0,5.1059,5.109,5.1251,5.1398,5.1414,5.099,5.1274,5.1729,5.1499,5.1649,5.1875,5.1875,5.1875,5.1979,5.241,5.2513,5.2634,5.3065,5.3151,5.3151,5.3151,5.291,5.2703,5.2703,5.2427,0.0,5.1065,5.091,5.0476,4.914,4.9449,4.9508,4.8604,4.9007,4.9191,4.8765,4.907,4.9128,4.8743,4.8778,0.0,0.0,0.0,4.8558,4.8249,4.8023,0.0,0.0,0.0,4.7789,4.8651,0.0,0.0,0.0,4.7412,4.703,0.0,0.0,0.0,0.0,0.0,0.0,0.0,0.0,0.0,0.0,0.0,0.0,0.0,0.0,0.0,0.0,5.1955,5.2648,5.3353,5.2261,5.1695,5.2475,5.1751,5.1491,5.2213,5.1582,5.1127,5.1127,5.1277,5.1361,5.1361,0.0,0.0,0.0,0.0,5.4286,5.4992,5.5103,5.5567,5.645,5.645,5.6349,5.6211,5.6119,5.5464,5.4403,5.4312,5.3703,5.2767,5.2833,5.2803,5.259,5.1158,5.0638,5.0849,5.1863,5.2101,5.1962,5.2102,0.0,0.0,5.1842,5.2733,5.4156,5.3681,5.3994,5.4496,5.4496,5.4496,5.4496,5.4496,5.4496,5.4512,5.4527,5.4512,5.4512,5.4527,5.401,5.3529,5.3529,5.2944,5.2461,5.2461,5.2323,5.1554,4.9636,5.041,5.0542,4.8634,4.9482,5.0168,5.0028,0.0,0.0,4.9858,4.922,4.9151,4.9959,4.9341,4.8651,4.7996,4.86,4.8634,4.7962,4.86,4.9289,5.0011,5.012,5.0175,5.014,4.8004,4.7379,0.0,0.0,0.0,0.0,0.0,0.0,0.0,0.0,0.0,0.0,0.0,0.0,0.0,0.0,0.0,5.1305,5.1955,5.226,5.189,5.1584,5.1658,5.2371,5.1704,5.1306,5.1575,5.1445,5.1343,5.1343,5.1965,5.2326,5.2326,5.3125,5.3571,5.3571,5.4342,5.4843,5.4992,5.5707,5.6469,5.7268,0.0,0.0,5.8134,5.7485,5.7095,5.6872,5.6233,5.5333,5.4353,5.4309,5.4008,5.3476,5.2644,5.2502,5.2767,5.2985,5.3214,5.3433,5.3676,5.3852,5.3944,5.3869,5.4124,5.4411,5.4319,5.4375,0.0,5.4496,5.4496,5.4496,5.4496,5.4496,5.4543,5.4702,5.4606,5.4543,5.4702,5.4502,5.4287,5.4287,5.4151,5.4047,5.4047,5.3013,5.2054,5.1638,5.18,5.183,5.1414,5.1625,5.1324,5.0131,5.0011,4.9737,4.91,4.8893,4.9151,4.9959,4.9841,4.9703,4.9548,4.9686,4.9703,4.9548,4.97,4.9841,5.0011,5.0022,5.0037,5.002,4.9767,4.9726,0.0,0.0,0.0,0.0,0.0,0.0,0.0,0.0,0.0,0.0,0.0,4.8667,0.0,0.0,5.0981,5.1853,5.2233,5.2436,5.2539,5.2483,5.2455,5.2493,5.2103,5.1991,5.2502,5.2483,5.2454,5.2454,5.2891,5.3151,5.3151,5.3941,5.4397,5.4397,5.5215,5.5642,5.5642,5.6079,5.6506,5.6896,5.6896,5.7121,5.7533,5.6883,5.6575,5.6509,5.588,5.5225,5.4606,5.4654,5.4512,5.4272,5.3925,5.3954,5.421,5.421,5.4398,5.4613,5.4347,5.451,5.4802,5.4505,5.4661,5.4976,5.4792,5.4468,5.4141,5.4065,5.3791,5.3512,5.3589,5.3604,5.3619,5.3727,5.3665,5.3619,5.3727,5.3665,5.3604,5.3604,5.3604,5.3604,5.3604,5.2963,5.2522,5.2768,5.2789,5.2651,5.2255,5.2203,5.1927,5.1168,5.1099,5.0944,5.0548,5.0513,5.0668,5.1082,5.1099,5.1099,5.1099,5.1099,5.1099,5.1099,5.1099,5.1099,5.1099,5.1099,5.1144,5.1247,5.1393,5.124,0.0,0.0,0.0,0.0,0.0,0.0,0.0,0.0,4.8444,4.9429,4.9615,4.9866,5.0664,5.086,5.1315,5.2614,5.2734,5.2907,5.3622,5.3637,5.3388,5.2902,5.2724,5.2926,5.3659,5.3627,5.3569,5.3569,5.3657,5.3789,5.3937,5.4609,5.5085,5.5252,5.592,5.6302,5.6302,5.6193,5.6226,5.6374,5.6263,5.6319,5.6521,5.5988,5.5676,5.5568,5.5031,5.4658,5.4459,5.4684,5.48,5.4868,5.5023,5.5145,5.524,5.5147,5.5132,5.508,5.4431,5.4493,5.4749,5.4101,5.4329,5.4809,5.457,5.4059,5.354,5.3452,5.2988,5.255,5.2668,5.2697,5.2697,5.2727,5.2712,5.2697,5.2727,5.2712,5.2697,5.2697,5.2697,5.2697,5.2697,5.2697,5.2835,5.3203,5.3366,5.3213,5.2559,5.2563,5.2582,5.2444,5.2427,5.2375,5.222,5.2203,5.2203,5.2203,5.2203,5.2203,5.2203,5.2203,5.2203,5.2203,5.2203,5.2203,5.2203,5.2203,5.2293,5.2508,5.2508,5.2176,4.5286,4.6461,4.8423,4.9628,4.9823,5.0169,0.0,0.0,5.0283,5.1862,5.2197,5.2438,5.3246,5.3337,5.3382,5.3626,5.3605,5.3603,5.3774,5.3784,5.3747,5.3673,5.3605,5.3613,5.3765,5.3784,5.3774,5.3774,5.3784,5.41,5.4824,5.4955,5.5345,5.6134,5.6246,5.6302,5.6302,5.5834,5.596,5.6658,5.6173,5.6322,5.7012,5.623,5.5898,5.5891,5.5129,5.4731,5.4628,5.5155,5.5273,5.5134,5.5793,5.5948,5.5759,5.528,5.4638,5.3973,5.3885,5.3291,5.2548,5.2447,5.2496,5.2598,5.2735,5.2728,5.2674,5.2778,5.2737,5.2668,5.27,5.2697,5.2727,5.2855,5.2782,5.2727,5.2837,5.2782,5.2697,5.2697,5.2697,5.2697,5.2697,5.2697,5.2717,5.2775,5.3229,5.3554,5.345,5.39,5.3979,5.3339,5.327,5.2979,5.2255,5.2203,5.2203,5.2203,5.2203,5.2203,5.2203,5.2203,5.2203,5.2203,5.2203,5.2203,5.2203,5.2203,5.2293,5.2508,5.2508,5.2513,4.8474,4.895,4.9638,0.0,5.1212,5.1156,5.2327,5.2067,5.1899,5.307,5.3311,5.3394,5.3729,5.3774,5.3774,0.0,5.3793,5.3774,5.3803,5.3803,5.397,5.4434,5.447,5.446,5.4509,5.449,5.4713,5.5224,5.5252,5.5273,5.5302,5.5281,5.5457,5.5826,5.5826,5.5826,5.5826,5.5603,5.5505,5.5526,5.5299,5.5401,5.5746,5.5117,5.5015,5.5311,5.5405,5.5401,5.537,5.5633,5.567,5.5608,5.5907,5.5961,5.5865,5.5655,5.5423,5.5198,5.5198,5.4955,5.463,5.463,5.4515,5.4341,5.4273,5.3778,5.3252,5.3239,5.2912,5.2612,5.2668,5.2697,5.2712,5.2768,5.2741,5.2712,5.2768,5.2741,5.2697,5.2697,5.2697,5.2727,5.2797,5.2811,5.2811,5.2811,5.2958,5.308,5.308,5.3298,5.3322,5.3043,5.3314,5.3374,5.3045,5.3333,5.353,5.353,5.353,5.353,5.353,5.353,5.337,5.3028,5.3011,5.2848,5.249,5.249,5.2562,5.2724,5.2724,5.2826,4.9816,5.0079,0.0,5.2141,5.2327,5.2215,5.281,5.294,5.3097,5.3673,5.3803,5.3803,5.3803,5.3803,5.3803,5.3803,5.3803,5.3877,5.41,5.4119,5.4434,5.5252,5.5363,5.5456,5.566,5.5493,5.5623,5.6246,5.6162,5.6,5.5838,5.5692,5.5704,5.5923,5.5953,5.5953,5.5953,5.5784,5.5523,5.5146,5.4994,5.4951,5.4973,5.4638,5.4676,5.5016,5.5563,5.5793,5.5775,5.5818,5.5847,5.5847,5.589,5.5904,5.5904,5.5904,5.5837,5.5766,5.5766,5.5648,5.5522,5.5522,5.5351,5.514,5.4968,5.4346,5.3687,5.3616,5.3159,5.2729,5.2814,5.277,5.2697,5.2697,5.2697,5.2697,5.2697,5.2697,5.2697,5.2697,5.2727,5.2782,5.2881,5.2938,5.2984,5.2984,5.2901,5.2855,5.2949,5.2937,5.2937,5.2937,5.3187,5.335,5.335,5.3764,5.3998,5.3998,5.3998,5.3998,5.3998,5.3998,5.38,5.3368,5.335,5.3135,5.2697,5.2697,5.277,5.2895,5.2895,5.3013,0.0,0.0,4.954,5.1992,5.3181,5.3729,5.3766,5.3766,5.3766,5.3784,5.3803,5.3803,5.3803,5.3803,5.3803,5.3803,5.3803,5.4063,5.4843,5.4955,5.5289,5.6172,5.6265,5.658,0.0,5.6729,5.6265,5.6302,5.5815,5.5856,5.6616,5.617,5.6252,5.7038,5.7056,5.7056,5.7056,5.6545,5.6267,5.624,5.5719,5.5481,5.5481,5.5467,5.547,5.5472,5.5507,5.5507,5.5522,5.5651,5.5706,5.5721,5.5847,5.5904,5.5904,5.5904,5.5373,5.4642,5.4642,5.406,5.3292,5.3292,5.3292,5.3306,5.3436,5.3446,5.3442,5.3566,5.3401,5.3173,5.3173,5.2944,5.2697,5.2697,5.2697,5.2697,5.2697,5.2697,5.2697,5.2697,5.2797,5.2895,5.2895,5.3056,5.3187,5.3187,5.3187,5.3279,5.3539,5.3567,5.3567,5.3567,5.3078,5.2717,5.2717,5.2735,5.2752,5.2752,5.2752,5.2752,5.2752,5.2752,5.2752,5.2717,5.2717,5.2717,5.2697,5.2697,5.277,5.2895,5.2895,5.3013,0.0,0.0,5.1676,5.3051,5.3608,5.3803,5.3803,5.3803,5.3803,5.3803,5.3385,5.2995,5.2995,5.2995,5.3181,5.371,5.4249,5.488,5.5735,5.5865,5.6172,5.7008,5.6776,0.0,0.0,0.0,0.0,5.732,5.6867,5.6514,5.6451,5.6261,5.6295,5.6559,5.6577,5.6577,5.6577,5.6375,5.6122,5.5779,5.5578,5.5552,5.5637,5.5637,5.5695,5.5764,5.5764,5.5764,5.5779,5.5804,5.5833,5.5833,5.589,5.5904,5.5904,5.5904,5.5805,5.5667,5.5667,5.5513,5.5334,5.543,5.5303,5.5132,5.5192,5.4906,5.4592,5.4551,5.4299,5.4059,5.4059,5.3967,5.3891,5.3891,5.3891,5.3891,5.3891,5.3891,5.3891,5.3891,5.3937,5.4013,5.4137,5.4213,5.4261,5.4261,5.3652,5.3218,5.3323,5.3343,5.3343,5.3343,5.3498,5.3643,5.3643,5.4007,5.4181,5.4109,5.4094,5.3851,5.3313,5.3296,5.2917,5.2128,5.211,5.211,5.211,5.211,5.2326,5.277,5.277,5.28,0.0,5.1788,5.2438,5.3524,5.3803,5.3803,5.3803,5.3803,5.3803,5.3803,5.3153,5.2605,5.2605,5.2828,5.3097,5.333,5.4286,5.5289,5.619,5.6123,5.6427,5.75,5.7175,5.7058,0.0,0.0,0.0,5.7557,5.7116,5.6652,5.6325,5.6122,5.6014,5.6014,5.6014,5.6014,5.6014,5.607,5.5947,5.5651,5.5651,5.5695,5.5779,5.5779,5.5818,5.5904,5.5904,5.5904,5.5904,5.5904,5.5933,5.6007,5.6007,5.6049,5.6074,5.6074,5.6162,5.6249,5.6225,5.6277,5.641,5.6492,5.6379,5.6213,5.6213,5.5972,5.5668,5.5543,5.5217,5.4913,5.4869,5.4667,5.4496,5.4496,5.4496,5.4496,5.4496,5.4496,5.4496,5.4496,5.4559,5.4655,5.4781,5.4842,5.4855,5.4855,5.4276,5.3824,5.3783,5.3626,5.3522,5.3522,5.369,5.3783,5.3783,5.4133,5.4326,5.4239,5.4239,5.4012,5.3475,5.3458,5.3076,5.2316,5.2242,5.2182,5.2182,5.2142,5.2314,5.2697,5.2697,5.2697,5.1026,5.1491,5.1881,5.3423,5.3803,5.3803,5.3803,5.3803,5.3784,5.3757,5.3097,5.2531,0.0,0.0,5.3487,5.2791,5.4007,5.5382,5.6302,5.594,5.6161,0.0,0.0,0.0,0.0,0.0,0.0,5.7002,0.0,5.6257,5.627,5.5793,5.5507,5.5522,5.5522,5.5522,5.5522,5.5651,5.5761,5.5904,5.5904,5.5904,5.5918,5.5918,5.5918,5.5933,5.5933,5.5933,5.5933,5.5933,5.6035,5.6211,5.6211,5.6277,5.6401,5.6401,5.6401,5.6387,5.6249,5.629,5.6401,5.6414,5.6414,5.6414,5.6414,5.6478,5.6546,5.641,5.6046,5.5674,5.5531,5.5037,5.4543,5.4527,5.4527,5.4527,5.4512,5.4496,5.4496,5.4496,5.4637,5.478,5.478,5.4886,5.4976,5.4976,5.4976,5.4963,5.4826,5.4413,5.4153,5.4153,5.362,5.3281,5.3281,5.3281,5.3281,5.3281,5.3281,5.3264,5.3229,5.3229,5.3211,5.319,5.2984,5.2898,5.295,5.2808,5.277,5.279,5.279,5.279,5.2029,5.2735,5.3292,5.3692,5.3803,5.3803,5.3803,5.3803,5.3627,5.3032,5.2271,5.1509,0.0,0.0,0.0,5.3432,5.489,0.0,5.7889,5.7443,0.0,5.7829,0.0,5.7103,5.6678,5.6257,0.0,0.0,5.5886,5.575,5.5847,5.5721,5.5692,5.579,5.579,5.579,5.579,5.5833,5.5876,5.5904,5.5904,5.5993,5.6123,5.6123,5.6179,5.6273,5.6273,5.6273,5.6273,5.6273,5.63,5.6346,5.6346,5.6373,5.6401,5.6401,5.6401,5.6401,5.6359,5.6373,5.6428,5.6519,5.6546,5.6546,5.6546,5.6392,5.6196,5.6074,5.579,5.5528,5.5517,5.5369,5.5189,5.493,5.4869,5.4807,5.4542,5.4496,5.4496,5.4496,5.4543,5.4575,5.4575,5.4606,5.4637,5.4637,5.4747,5.4871,5.4948,5.4833,5.4774,5.4774,5.4627,5.4535,5.4535,5.4535,5.4493,5.4389,5.4389,5.4129,5.3505,5.3488,5.3286,5.2846,5.277,5.2976,5.3428,5.3383,5.3604,5.4034,5.4034,5.4034,5.2921,5.345,5.3803,5.3803,5.3803,5.371,5.3348,5.3302,5.3089,5.2289,5.1471,0.0,5.0281,5.1806,0.0,0.0,0.0,0.0,5.7318,5.6949,5.6811,0.0,5.7283,0.0,5.6787,5.689,5.6945,0.0,5.6485,5.625,5.632,5.6637,5.689,5.6945,5.6945,5.6988,5.7028,5.7028,5.7057,5.7132,5.7132,5.7192,5.7309,5.7309,5.7334,5.7404,0.0,5.7404,5.7404,5.7404,5.7404,5.7404,5.7404,5.7404,5.7404,5.7404,5.7204,5.6932,5.6932,5.67,5.6414,5.6478,5.6505,5.6505,5.6505,5.642,5.6278,5.6158,5.5947,5.5761,5.5689,5.5487,5.5234,5.5053,5.4884,5.473,5.4543,5.4496,5.4496,5.4496,5.4575,5.459,5.4512,5.4575,5.459,5.4512,5.4608,5.4702,5.4761,5.4915,5.5007,5.5007,5.5007,5.5007,5.5007,5.5007,5.4961,5.4886,5.4886,5.4695,5.4229,5.4211,5.4066,5.3721,5.3646,5.3797,5.4121,5.4044,5.4205,5.4622,5.4622,5.4669,5.3599,5.3803,5.3794,5.3822,5.3832,5.3609,5.2828,5.2679,5.2473,5.1542,0.0,5.0195,5.0084,5.1899,5.3012,5.1778,0.0,5.6434,5.6011,5.5837,5.6042,5.6776,5.7168,5.7359,5.7304,5.7939,5.8344,5.8344,5.7797,5.741,5.729,5.796,5.8329,5.8344,5.8344,5.8402,5.8533,5.8533,5.8573,5.8692,5.8692,5.8692,5.8692,5.8692,5.8692,5.8692,5.8692,5.8692,5.8692,5.8692,5.8692,5.8692,5.8692,5.8692,5.8692,5.8692,5.8296,5.7753,5.7753,5.7275,5.6668,5.6472,5.6401,5.6401,5.6401,5.6478,5.6546,5.6424,5.6269,5.6126,5.6032,5.5598,5.5202,5.5187,5.4913,5.4667,5.4636,5.4589,5.4575,5.4575,5.4717,5.478,5.4606,5.4717,5.478,5.459,5.4575,5.4575,5.4575,5.4776,5.493,5.493,5.493,5.493,5.493,5.493,5.4946,5.4961,5.4961,5.4976,5.5007,5.5007,5.5007,5.5007,5.4888,5.4826,5.4826,5.4653,5.4653,5.4826,5.4826,5.4886,5.3766,5.3803,5.3832,5.3935,5.3963,5.3777,5.303,5.2851,0.0,0.0,5.0227,4.9667,4.902,5.0268,5.1663,5.2438,5.3885,5.5471,5.7056,5.7194,5.7287,0.0,5.8426,5.8733,5.8305,5.8473,0.0,0.0,5.9115,5.909,5.8298,5.8386,5.8519,5.862,5.862,5.8634,5.8663,5.8663,5.8677,5.8692,5.8692,5.8692,5.8692,5.8692,5.8692,5.8692,5.8692,0.0,5.8692,5.8692,5.8692,5.8692,5.8692,5.8692,5.8692,5.8692,5.862,5.851,5.851,5.842,5.8099,5.6811,5.6401,5.6401,5.6401,5.6428,5.6442,5.6414,5.6369,5.6369,5.6465,5.6392,5.6278,5.6104,5.5854,5.5584,5.5299,5.5063,5.4915,5.4915,5.493,5.4946,5.4915,5.493,5.4946,5.4915,5.4915,5.4915,5.4915,5.4714,5.459,5.459,5.459,5.459,5.459,5.459,5.4653,5.4826,5.4826,5.4871,5.4992,5.5007,5.5007,5.5007,5.4976,5.4978,5.4978,5.493,5.493,5.4978,5.4978,5.4976,5.3898,5.3888,5.3935,5.4028,5.4046,5.3719,5.2504,0.0,0.0,0.0,4.9349,4.9049,4.8457,4.9939,0.0,5.1525,5.3585,5.5526,5.6527,5.7183,0.0,5.8248,5.9078,5.9509,0.0,5.9676,5.9955,5.9955,6.0308,6.0154,5.9261,5.9635,5.9878,5.9955,5.9955,5.9955,5.9955,5.9955,5.9955,5.9955,5.9955,5.9955,5.9955,5.9955,5.9955,5.9955,5.9955,5.9955,5.9955,5.9955,5.9955,5.9955,5.9955,5.9955,5.9955,5.9955,5.9687,5.933,5.933,5.9048,5.8567,5.7832,5.76,5.76,5.76,5.7328,5.7021,5.7021,5.6718,5.641,5.6478,5.642,5.632,5.6219,5.6038,5.5801,5.5476,5.5299,5.5169,5.5037,5.505,5.5081,5.5022,5.505,5.5081,5.5022,5.5007,5.5007,5.5007,5.4853,5.4761,5.4761,5.4761,5.4761,5.4761,5.4761,5.4792,5.4902,5.4902,5.4932,5.4992,5.5007,5.5007,5.5007,5.5007,5.5007,5.5007,5.5007,5.4852,5.4586,5.4586,5.4427,5.3944,5.4019,5.4028,5.4,5.399,5.3543,5.1776,5.1476,0.0,0.0,4.8495,4.8392,4.8274,4.9719,5.0878,0.0,5.3127,5.5238,5.5834,5.6891,5.7935,0.0,5.9669,0.0,6.0151,6.0736,0.0,6.1093,6.1093,6.0826,6.0186,6.0754,6.1093,6.1093,6.1093,6.1093,6.1093,6.1093,6.1093,6.1093,6.1093,6.1093,6.1093,6.1093,6.1093,6.1093,6.1093,6.1093,6.1093,6.1093,6.1093,6.1093,6.1093,6.1093,6.1093,6.1093,6.0701,6.0151,6.0151,5.974,5.9205,5.9205,5.8977,5.8692,5.8692,5.8296,5.7842,5.7842,5.7382,5.6914,5.6983,5.6878,5.6764,5.6764,5.6555,5.6262,5.5944,5.5686,5.5432,5.5232,5.5232,5.5232,5.5129,5.5187,5.5232,5.5113,5.5116,5.5116,5.5116,5.5116,5.5116,5.5116,5.5037,5.5007,5.5007,5.5007,5.5022,5.5035,5.5035,5.5068,5.5116,5.5116,5.5037,5.4865,5.4865,5.4788,5.4648,5.4648,5.4427,5.4009,5.4009,5.3747,5.3895,5.4091,5.4027,5.3719,5.3661,5.3138,5.1146,0.0,0.0,4.8583,4.7852,4.7769,4.8579,4.876,4.9394,5.1285,5.212,5.3421,5.5991,5.7067,5.8145,5.9616,0.0,0.0,6.0986,6.1058,6.1093,6.1093,6.1093,6.1075,6.0986,6.1058,6.1093,6.1093,6.1093,6.1093,6.1093,6.1093,6.1093,6.1093,6.1093,6.1093,6.1093,6.1093,6.1093,6.1093,6.1093,6.1093,0.0,6.1093,6.1093,6.1093,6.1093,6.1093,6.1093,6.1093,6.1058,6.0986,6.0986,6.0933,6.0879,6.0879,5.9883,5.8692,5.8692,5.8652,5.8599,5.8599,5.8563,5.8549,5.886,5.8929,5.8915,5.8915,5.8345,5.7725,5.7471,5.6571,5.5861,5.5815,5.5619,5.5463,5.5463,5.5463,5.5463,5.5463,5.5448,5.5448,5.5448,5.5448,5.5448,5.5448,5.5191,5.5007,5.5007,5.5007,5.505,5.5169,5.5184,5.5262,5.5448,5.5448,5.5126,5.4471,5.4471,5.4136,5.3448,5.3448,5.3432,5.3382,5.3382,5.3348,5.3975,5.4218,5.4128,5.3748,5.3301,5.2538,5.0957,0.0,4.9541,4.8128,4.8055,4.8273,4.8401,4.9136,4.9979,5.0828,5.1904,5.3338,5.5379,5.6789,5.8181,5.9705,6.0611,0.0,0.0,0.0,6.1093,6.1093,6.1093,6.1093,6.1093,6.1093,6.1093,6.1093,6.1093,6.1093,6.1093,6.1093,6.1093,6.1093,6.1093,6.1093,6.1093,6.1093,6.1093,6.1093,6.1093,6.1093,0.0,6.1093,6.1093,6.1093,6.1093,6.1093,6.1093,6.1093,6.1093,6.1093,6.1093,6.1093,6.1093,6.1093,6.0665,6.0133,6.0133,5.9812,5.9419,5.9419,5.9066,5.872,5.8862,5.9048,5.924,5.9402,5.919,5.8835,5.8351,5.7904,5.7473,5.7114,5.6952,5.6894,5.6894,5.6894,5.6719,5.6227,5.6157,5.5999,5.5563,5.5493,5.5493,5.5493,5.5371,5.5297,5.5297,5.5297,5.5326,5.5386,5.5369,5.5416,5.5493,5.5493,5.5356,5.5081,5.4645,5.4264,5.3974,5.3515,5.3095,5.2698,5.2698,5.2453,5.3735,5.4058,5.4018,5.3595,5.2791,5.1783,0.0,0.0,4.879,4.7655,4.8041,4.8556,4.8531,4.9578,5.0535,5.0803,5.181,5.3077,5.4621,5.6026,5.7471,5.9041,0.0,6.0487,0.0,6.0968,6.1093,6.1093,6.1093,6.1093,6.1093,6.1093,6.1093,6.1093,6.1093,6.1093,6.1093,6.1093,6.1093,6.1093,6.1093,6.1093,6.1093,6.1093,6.1093,6.1093,6.1093,6.1093,0.0,6.1093,6.1093,6.1093,6.1093,6.1093,6.1093,6.1093,6.1093,6.1093,6.1093,6.1093,6.1093,6.1093,6.1093,6.1093,6.1093,6.0701,6.024,6.024,5.9877,5.9459,5.9459,5.9719,6.0029,6.0201,6.0015,5.9682,5.9251,5.8845,5.8443,5.8001,5.7851,5.7807,5.7807,5.7807,5.7614,5.7035,5.6947,5.6771,5.6247,5.6177,5.6177,5.6177,5.6177,5.6002,5.5545,5.5493,5.5493,5.5493,5.5493,5.5401,5.5171,5.5171,5.499,5.4553,5.4024,5.3664,5.3448,5.2941,5.2435,5.1966,5.1966,5.169,5.2971,5.3446,5.3595,5.3119,5.2098,5.0887,0.0,0.0,4.7978,4.7181,4.7529,4.8271,4.9138,4.985,5.0613,5.1535,5.1703,5.2243,5.38,5.471,5.583,0.0,0.0,5.9045,5.983,6.0629,6.1093,6.1093,6.1093,0.0,6.1093,6.1093,6.1093,6.1093,6.1093,6.1093,6.1093,6.1093,6.1093,6.1093,6.1093,6.1093,6.1093,6.1093,6.1093,6.1093,6.1093,6.1093,0.0,6.1093,6.1093,6.1093,6.1093,6.1093,6.1093,6.1093,6.1093,6.1093,6.1093,6.1093,6.1093,6.1093,6.1093,6.1093,6.1093,6.1093,6.1093,6.1093,6.1179,6.1278,6.1278,6.1526,6.1766,6.1784,6.1024,6.0282,6.0282,5.9191,5.8205,5.819,5.7985,5.7807,5.7807,5.7807,5.7807,5.779,5.779,5.779,5.779,5.779,5.779,5.779,5.779,5.7158,5.5633,5.5493,5.5493,5.5493,5.5493,5.5156,5.4438,5.4407,5.3763,5.2361,5.2325,5.1948,5.124,5.1221,5.1221,5.1221,5.1221,5.1202,5.1554,5.1741,5.1539,5.1076,5.025,4.9386,4.8697,0.0,4.7312,4.7045,4.8015,4.8972,4.9257,5.0369,5.1349,5.1654,5.1703,5.2243,5.3769,0.0,0.0,5.8171,6.0023,6.1254,0.0,0.0,6.2679,6.2679,6.2679,6.2679,6.2679,6.2679,6.2182,6.1129,6.1093,6.1093,6.1093,6.1093,6.1093,6.1093,6.1093,6.1093,6.1093,6.1093,6.1093,6.1093,6.1093,6.1093,6.1093,6.1093,6.1093,6.1093,6.1093,6.1093,6.1093,6.1093,6.1093,6.1093,6.1093,6.1093,6.1093,6.1093,6.1093,6.1093,6.1093,6.1093,6.1093,6.1093,6.1123,6.1182,6.1285,6.1386,6.1516,6.1746,6.1562,6.1234,6.092,6.049,6.0044,5.9587,5.9432,5.9369,5.9369,5.9369,5.9194,5.8702,5.8632,5.8421,5.7877,5.7807,5.7807,5.7807,5.7807,5.7378,5.6333,5.625,5.6041,5.5533,5.5499,5.5398,5.5162,5.5145,5.494,5.4503,5.3985,5.3618,5.3393,5.2894,5.2637,5.2637,5.2637,5.2637,0.0,5.0614,5.037,5.0072,4.9285,0.0,0.0,4.758,4.7098,4.7384,4.8443,4.9382,4.9698,5.0816,5.1703,5.1703,5.1953,5.2582,5.3836,0.0,0.0,5.8938,0.0,0.0,0.0,6.2964,6.341,6.341,6.341,6.341,6.341,6.341,6.2839,6.1593,6.1807,6.1968,6.1968,6.1968,6.1825,6.1539,6.1539,6.1379,6.1093,6.1093,6.1093,6.1093,6.1093,6.1093,0.0,6.1093,6.1093,6.1093,6.1093,6.1093,6.1093,6.1093,6.1093,6.1093,6.1093,6.1093,6.1093,6.1093,6.1093,6.1093,6.1093,6.1093,6.1093,6.1093,6.1093,6.1123,6.1211,6.1252,6.1372,6.1662,6.1676,6.1544,6.131,6.1164,6.0974,6.0561,6.0392,6.0297,6.0297,6.0169,5.9931,5.9492,5.9422,5.9229,5.8737,5.8667,5.8556,5.8251,5.8219,5.7778,5.6693,5.6593,5.6535,5.6385,5.6082,5.5928,5.5945,5.5686,5.5405,5.5122,5.437,5.3989,5.3989,5.3522,5.3301,5.3301,5.3301,5.3301,0.0,0.0,0.0,0.0,0.0,0.0,0.0,4.7526,0.0,4.8038,4.8782,4.9555,5.034,5.1155,5.1703,5.1703,5.2381,5.3202,5.405,5.5705,0.0,0.0,6.1486,0.0,6.2375,6.3107,6.3571,6.3571,6.3535,6.35,6.35,6.3446,6.3089,6.2411,6.3053,6.3357,6.325,6.325,6.2893,6.2215,6.2215,6.1822,6.1093,6.1093,6.1093,0.0,6.1093,6.1093,6.1093,6.1093,6.1093,6.1093,6.1093,6.1093,6.1093,6.1093,6.1093,6.1093,6.1093,6.1093,6.1093,6.1093,6.1093,6.1093,6.1093,6.1093,6.1093,6.1093,6.1093,6.1093,6.1093,6.1197,6.1343,6.1534,6.1462,6.1354,6.1462,6.131,6.1123,6.1093,6.0854,6.0642,6.0642,6.0311,6.0057,6.0057,6.0041,6.0009,5.9927,5.9975,5.9697,5.8909,5.8823,5.8231,5.6808,5.6636,5.6888,5.7587,5.6921,5.6539,5.6607,5.596,5.5253,5.4574,5.3843,5.3447,5.3447,5.3447,5.3447,5.3447,5.3447,5.3447,0.0,0.0,0.0,0.0,0.0,0.0,0.0,4.7134,0.0,0.0,0.0,4.9555,5.034,5.1155,5.1703,5.1703,5.2381,5.3594,5.5562,5.8756,0.0,6.1664,6.3109,6.3823,6.3196,6.4412,6.5233,6.5233,6.468,6.4307,6.4307,6.3734,6.3321,6.316,6.3321,6.2839,6.1646,6.1646,6.1557,6.1379,6.1379,6.1272,6.1093,6.1093,6.1093,6.1093,6.1093,6.1093,6.1093,6.1093,6.1093,6.1093,6.1093,6.1093,6.1093,6.1093,6.1093,6.1093,6.1093,6.1093,6.1093,6.1093,6.1093,6.1093,6.1093,6.1093,6.1093,6.1093,6.1093,6.1093,6.1093,6.1123,6.1182,6.1343,6.1444,6.1505,6.1368,6.1379,6.135,6.1138,6.1034,6.0974,6.0974,6.0193,5.9562,5.9562,5.9347,5.8977,5.8406,5.8841,5.8892,5.814,5.8068,5.7906,5.7557,5.6962,5.6408,5.5988,5.5792,5.5695,5.5695,5.5536,5.5371,5.5192,5.5008,5.4903,5.4903,5.4903,5.4903,5.4903,5.4903,5.4903,4.7428,4.7176,4.7009,4.7009,4.7009,0.0,0.0,4.7294,4.7759,0.0,0.0,5.009,5.0905,5.1976,5.2529,5.1815,5.3867,5.6133,0.0,0.0,6.1468,6.2215,6.3038,6.3645,0.0,6.4394,6.4697,6.4697,6.4305,6.4055,6.4055,6.3627,6.325,6.2911,6.2911,6.2661,6.2146,6.2146,6.1985,6.1646,6.1646,6.145,6.1093,6.1093,6.1093,6.1093,6.1093,6.1093,6.1093,6.1093,6.1093,6.1093,6.1093,6.1093,6.1093,6.1093,6.1093,6.1093,6.1093,6.1093,6.1093,6.1093,6.1093,6.1093,6.1093,6.1093,6.1093,6.1093,6.1093,6.1093,6.1093,6.1138,6.1211,6.1281,6.1444,6.1591,6.1544,6.1583,6.1612,6.153,6.1383,6.1278,6.1278,6.0658,6.0192,6.0192,6.0033,5.9645,5.8892,5.9163,5.8909,5.7651,5.7522,5.7299,5.6748,5.63,5.6182,5.6478,5.6143,5.6119,5.6478,5.6143,5.5777,5.5409,5.5389,5.5389,5.5389,5.5389,5.5389,5.5389,5.5389,5.5389,4.7109,4.7098,4.7187,4.7187,4.7187,4.7187,4.7187,4.7794,4.8544,0.0,0.0,5.078,5.1708,5.2837,5.3301,5.2225,5.5887,0.0,6.0133,6.0501,6.1069,6.2179,6.2426,0.0,6.4144,6.3734,6.341,6.341,6.3303,6.3232,6.3232,6.3125,6.2768,6.2143,6.2125,6.2429,6.3053,6.3053,6.275,6.2125,6.2125,6.1768,6.1093,6.1093,6.1093,6.1093,0.0,0.0,6.1093,6.1093,6.1093,6.1093,6.1093,6.1093,6.1093,6.1093,6.1093,6.1093,6.1093,6.1093,6.1093,6.1093,6.1093,6.1093,6.1093,6.1093,6.1093,6.1093,6.1093,6.1093,6.1093,6.1182,6.1285,6.1285,6.1433,6.1591,6.1746,6.1788,6.188,6.2127,6.1943,6.1792,6.1918,6.1514,6.1176,6.1176,6.1042,6.0646,5.9904,5.9904,5.933,5.76,5.7338,5.6846,5.5745,5.5572,5.606,5.7337,5.6787,5.6729,5.7409,5.6787,5.61,5.5409,5.5389,5.5389,5.5389,5.5389,5.5389,5.5389,5.5389,5.5389,4.7109,4.7491,4.802,4.802,4.802,4.802,4.802,4.8586,4.9162,4.9275,4.9947,5.0959,5.2434,5.2345,5.2404,5.3479,0.0,6.0222,0.0,0.0,6.3602,6.2444,0.0,6.3262,6.2696,6.3107,6.341,6.341,6.2821,6.2464,6.2464,6.1807,6.1397,6.1289,6.1272,6.1343,6.145,6.145,6.1397,6.1272,6.1272,6.1218,6.1093,6.1093,6.1093,6.1093,0.0,6.1093,6.1093,6.1093,6.1093,6.1093,6.1093,6.1093,6.1093,6.1093,6.1093,6.1093,6.1093,6.1093,6.1093,6.1093,6.1093,6.1093,6.1093,6.1093,6.1093,6.1093,6.1093,6.1093,6.1093,6.1108,6.1123,6.1123,6.1241,6.1401,6.1591,6.1718,6.2043,6.2847,6.2973,6.3163,6.385,6.2591,6.1515,6.1515,6.0699,5.9799,5.9007,5.9489,5.9539,5.8565,5.7968,5.7419,5.6879,5.6319,5.593,5.5777,5.5657,5.5637,5.5761,5.5657,5.5531,5.5389,5.5389,5.5389,5.5389,5.5389,5.5389,5.5389,5.5389,5.5389,4.7283,4.7729,4.8413,4.924,4.9436,4.9561,4.9989,5.1012,5.1606,5.078,5.1553,5.2511,5.2827,5.3695,5.5415,5.8723,0.0,6.0498,6.2177,6.2323,6.2185,0.0,0.0,6.1926,6.237,6.226,6.2146,6.2146,6.1843,6.1646,6.1646,6.1289,6.1093,6.1093,6.1093,6.1093,6.1093,6.1093,6.1093,6.1093,6.1093,6.1093,6.1093,6.1093,6.1093,6.1093,0.0,6.1093,6.1093,6.1093,6.1093,6.1093,6.1093,6.1093,6.1093,6.1093,6.1093,6.1093,6.1093,6.1093,6.1093,6.1093,6.1093,6.1093,6.1093,6.1093,6.1093,6.1093,6.1093,6.1093,6.1093,6.1152,6.1197,6.1108,6.1211,6.1328,6.1415,6.1577,6.184,6.2356,6.2493,6.2675,6.3042,6.2393,6.1817,6.1817,6.1404,6.0833,6.0085,6.0352,6.0221,5.9244,5.8498,5.7922,5.7522,5.682,5.6113,5.543,5.5389,5.5389,5.5389,5.5389,5.5389,5.5389,5.5389,5.5389,5.5389,5.5389,5.5389,5.5389,5.5389,5.5389,4.7272,4.7866,4.8776,5.0143,5.0513,5.0762,5.1756,5.2886,5.3408,5.222,0.0,5.389,5.3505,5.5442,5.8353,6.2183,6.1489,6.0995,6.2508,6.1529,6.087,6.1423,6.0831,6.0848,6.2057,6.1524,6.1093,6.1093,6.1093,6.1093,6.1093,6.1093,6.1093,6.1093,6.1093,6.1093,6.1093,6.1093,6.1093,6.1093,6.1093,6.1093,6.1093,6.1093,6.1093,6.1093,6.1093,6.1093,6.1093,6.1093,6.1093,6.1093,6.1093,6.1093,6.1093,6.1093,6.1093,6.1093,6.1093,6.1093,6.1093,6.1093,6.1093,6.1093,6.1093,6.1093,6.1093,6.1093,6.1093,6.1093,6.1093,6.1182,6.1241,6.1123,6.1182,6.127,6.1281,6.1415,6.1645,6.2013,6.2157,6.2325,6.2542,6.2438,6.2309,6.2328,6.2209,6.1951,6.1422,6.1256,6.0855,5.9963,5.9059,5.828,5.772,5.7128,5.6447,5.5673,5.5491,5.547,5.5596,5.547,5.5389,5.5389,5.5389,5.5389,5.5389,5.5389,5.5389,5.5389,5.5389,5.5389,4.6836,4.798,4.935,5.0262,5.0513,5.0905,5.2452,5.2898,5.2952,5.284,0.0,0.0,0.0,5.6958,5.8916,5.9987,6.1269,6.2411,6.3229,0.0,6.2021,6.1242,6.1187,6.1202,6.1194,6.1144,6.1093,6.1093,6.1093,6.1093,6.1093,6.1093,6.1093,6.1093,6.1093,6.1093,6.1093,6.1093,6.1093,6.1093,6.1093,6.1093,6.1093,6.1093,6.1093,6.1093,6.1093,6.1093,6.1093,6.1093,6.1093,6.1093,6.1093,6.1093,6.1093,6.1093,6.1093,6.1093,6.1093,6.1093,6.1093,6.1093,6.1093,6.1093,6.1093,6.1093,6.1093,6.1093,6.1093,6.1093,6.1093,6.1108,6.1108,6.1093,6.1108,6.1152,6.1267,6.1296,6.1645,6.272,6.2917,6.3225,6.4161,6.3693,6.3227,6.329,6.2667,6.2178,6.2128,6.1518,6.1083,6.0999,5.97,5.8456,5.7431,5.7115,5.6796,5.6366,5.5733,5.5657,5.6202,5.5697,5.5389,5.5389,5.5389,5.5389,5.5389,5.5389,5.5389,5.5389,5.5389,5.5389,4.7797,4.9276,5.0838,5.116,5.1619,5.2399,5.3974,5.4723,5.4777,5.3796,5.5009,0.0,0.0,0.0,6.1605,6.1533,6.276,6.3693,6.3604,6.2949,6.2239,6.1494,6.1343,6.1267,6.1241,6.1152,6.1093,6.1093,6.1093,6.1093,6.1093,6.1093,6.1093,6.1093,6.1093,6.1093,6.1093,6.1093,6.1093,6.1093,6.1093,6.1093,6.1093,6.1093,6.1093,6.1093,6.1093,6.1093,6.1093,6.1093,6.1093,6.1093,6.1093,6.1093,6.1093,6.1093,6.1093,6.1093,6.1093,6.1093,6.1093,6.1093,6.1093,6.1093,6.1093,6.1093,6.1093,6.1093,6.1093,6.1093,6.1093,6.1093,6.1093,6.1093,6.1093,6.1108,6.1167,6.0873,6.0917,6.1933,6.1858,6.1943,6.2891,6.2821,6.2618,6.2653,6.2055,6.1589,6.1589,6.0926,6.0675,6.1172,6.0746,5.9906,5.8641,5.824,5.7888,5.753,5.6683,5.6211,5.6172,5.595,5.5786,5.5645,5.5645,5.5584,5.5389,5.5389,5.5389,5.5389,5.5389,5.5389,4.8602,5.0115,5.1706,5.1993,5.2488,5.3291,5.4848,5.5424,5.5544,5.521,5.6847,5.8352,5.845,0.0,0.0,0.0,6.3581,6.4068,6.3655,6.2704,6.1908,6.1487,6.1314,6.1241,6.1241,6.1152,6.1093,6.1093,6.1093,6.1093,6.1093,6.1093,6.1093,6.1093,6.1093,6.1093,6.1093,6.1093,6.1093,6.1093,6.1093,6.1093,6.1093,6.1093,6.1093,6.1093,6.1093,6.1093,6.1093,6.1093,6.1093,6.1093,6.1093,6.1093,6.1093,6.1093,6.1093,6.1093,6.1093,6.1093,6.1093,6.1093,6.1093,6.1093,6.1093,6.1093,6.1093,6.1093,6.1093,6.1093,6.1093,6.1093,6.1093,6.1093,6.1093,6.1034,6.0788,6.0428,6.0283,6.0731,6.0752,6.0939,6.1656,6.2038,6.2161,6.1953,6.1528,6.1237,6.1237,6.0571,6.0336,6.0988,6.1039,6.0636,5.9767,5.9407,5.9077,5.8736,5.7834,5.7045,5.6405,5.6205,5.6026,5.5903,5.5886,5.5806,5.5629,5.5629,5.5629,5.5629,5.5629,5.5629,4.9004,5.0239,5.1747,5.2677,5.2898,5.3327,5.4866,5.4603,5.471,5.7128,5.8845,5.9901,5.9919,6.1843,0.0,6.341,6.341,6.341,6.341,6.2057,6.1093,6.1093,6.1093,6.1093,6.1093,6.1093,6.1093,6.1093,6.1093,6.1093,6.1093,6.1093,6.1093,6.1093,6.1093,6.1093,6.1093,6.1093,6.1093,6.1093,6.1093,6.1093,6.1093,6.1093,6.1093,6.1093,6.1093,6.1093,6.1093,6.1093,6.1093,6.1093,6.1093,6.1093,6.1093,6.1093,6.1093,6.1093,6.1093,6.1093,6.1093,6.1093,6.1093,6.1093,6.1093,6.1093,6.1093,6.1093,6.1093,6.1093,6.1093,6.1093,6.1093,6.1093,6.1093,6.0896,6.0162,6.0003,5.9807,5.9229,5.9853,6.0566,6.0851,6.166,6.2047,6.1397,6.1298,6.1281,6.1298,6.0605,6.0226,6.05,6.0466,6.0449,6.0518,6.0449,6.0246,5.9831,5.9119,5.819,5.7075,5.6424,5.6106,5.6106,5.6106,5.6106,5.6106,5.6106,5.6106,5.6106,5.6106,5.6106,4.9146,5.1165,5.3208,5.2957,5.3719,5.4795,5.5812,5.5865,0.0,0.0,6.0433,6.0915,6.1468,6.3502,0.0,6.3589,6.341,6.341,6.341,6.2057,6.1093,6.1093,6.1093,6.1093,6.1093,6.1093,6.1093,6.1093,6.1093,6.1093,6.1093,6.1093,6.1093,6.1093,6.1093,6.1093,6.1093,6.1093,6.1093,6.1093,6.1093,6.1093,6.1093,6.1093,6.1093,6.1093,6.1093,6.1093,6.1093,6.1093,6.1093,6.1093,6.1093,6.1093,6.1093,6.1093,6.1093,6.1093,6.1093,6.1093,6.1093,6.1093,6.1093,6.1093,6.1093,6.1093,6.1093,6.1093,6.1093,6.1093,6.1093,6.1093,6.1093,6.1093,6.1093,6.1049,6.0818,5.9969,5.937,5.9839,5.9327,5.9092,5.9966,6.0457,6.0721,6.0678,6.0791,6.0884,6.0938,6.1192,6.1398,6.1472,6.18,6.1847,6.1453,6.127,6.0844,6.0055,5.98,5.9098,5.7841,5.6962,5.6463,5.6307,5.6307,5.6228,5.6106,5.6106,5.6026,5.5903,5.5903,5.5786,5.0807,5.2497,5.405,5.4255,5.4991,5.6044,5.7471,5.7792,0.0,0.0,6.1593,6.2253,6.3074,6.4626,0.0,6.4501,6.3821,6.341,6.341,6.2057,6.1093,6.1093,6.1093,6.1093,6.1093,6.1093,6.1093,6.1093,6.1093,6.1093,6.1093,6.1093,6.1093,6.1093,6.1093,6.1093,6.1093,6.1093,6.1093,6.1093,6.1093,6.1093,6.1093,6.1093,6.1093,6.1093,6.1093,6.1093,6.1093,6.1093,6.1093,6.1093,6.1093,6.1093,6.1093,6.1093,6.1093,6.1093,6.1093,6.1093,6.1093,6.1093,6.1093,6.1093,6.1093,6.1093,6.1093,6.1093,6.1093,6.1093,6.1093,6.1093,6.1093,6.1093,6.1093,6.1019,6.0727,6.0,5.9485,5.9769,5.9257,5.8987,5.9687,5.997,6.019,6.0411,6.0872,6.1189,6.1225,6.1947,6.2446,6.2446,6.2744,6.2755,6.2298,6.2091,6.1694,6.1047,6.0663,6.0004,5.9025,5.8057,5.7327,5.685,5.6734,5.6527,5.6225,5.6145,5.6046,5.5923,5.5923,5.5826,5.3073,5.39,5.446,5.5937,5.6454,5.7186,5.9402,5.9955,6.0258,6.1129,0.0,6.3663,6.4539,6.5322,6.5804,6.5804,6.4448,6.341,6.341,6.2057,6.1093,6.1093,6.1093,6.1093,6.1093,6.1093,6.1093,6.1093,6.1093,6.1093,6.1093,6.1093,6.1093,6.1093,6.1093,6.1093,6.1093,6.1093,6.1093,6.1093,6.1093,6.1093,6.1093,6.1093,6.1093,6.1093,6.1093,6.1093,6.1093,6.1093,6.1093,6.1093,6.1093,6.1093,6.1093,6.1093,6.1093,6.1093,6.1093,6.1093,6.1093,6.1093,6.1093,6.1093,6.1093,6.1093,6.1093,6.1093,6.1093,6.1093,6.1093,6.1093,6.1093,6.1093,6.1093,6.0911,6.0241,6.0143,5.9979,5.9345,5.9495,5.9751,5.9786,5.9957,6.0226,6.0597,6.143,6.2018,6.2067,6.2797,6.3338,6.3338,6.3319,6.3227,6.3057,6.2845,6.2632,6.2437,6.1616,6.0917,6.0445,5.9438,5.8485,5.7584,5.7334,5.6973,5.6464,5.6267,5.6151,5.6066,5.6066,5.6066,5.1866,5.3538,5.5031,5.5384,5.6833,5.851,5.9633,6.0397,6.1236,6.261,6.3178,6.3839,6.5286,6.5679,6.5804,6.5804,6.4448,6.341,6.341,6.2057,6.1093,6.1093,6.1093,6.1093,6.1093,6.1093,6.1093,6.1093,6.1093,6.1093,6.1093,6.1093,6.1093,6.1093,6.1093,6.1093,6.1093,6.1093,6.1093,6.1093,6.1093,6.1093,6.1093,6.1093,6.1093,6.1093,6.1093,6.1093,6.1093,6.1093,6.1093,6.1093,6.1093,6.1093,6.1093,6.1093,6.1093,6.1093,6.1093,6.1093,6.1093,6.1093,6.1093,6.1093,6.1093,6.1093,6.1093,6.1093,6.1093,6.1093,6.1093,6.1093,6.1093,6.1093,6.1093,6.1064,6.0896,6.043,6.0032,5.9963,5.9583,5.9354,5.9673,5.9827,6.0368,6.1571,6.2475,6.3064,6.3217,6.3404,6.3544,6.3544,6.3396,6.3265,6.3227,6.2902,6.269,6.2632,6.2304,6.1888,6.1414,5.9781,5.8615,5.806,5.7982,5.7642,5.6949,5.6909,5.653,5.5863,5.5863,5.5746,5.2284,5.3693,5.4996,5.6494,5.8082,5.9491,6.029,6.0808,6.1539,6.3089,6.341,6.3877,6.55,6.5804,6.5804,6.5804,6.4448,6.341,6.341,6.2057,6.1093,6.1093,6.1093,6.1093,6.1093,6.1093,6.1093,6.1093,6.1093,6.1093,6.1093,6.1093,6.1093,6.1093,6.1093,6.1093,6.1093,6.1093,6.1093,6.1093,6.1093,6.1093,6.1093,6.1093,6.1093,6.1093,6.1093,6.1093,6.1093,6.1093,6.1093,6.1093,6.1093,6.1093,6.1093,6.1093,6.1093,6.1093,6.1093,6.1093,6.1093,6.1093,6.1093,6.1093,6.1093,6.1093,6.1093,6.1093,6.1093,6.1093,6.1093,6.1093,6.1093,6.1093,6.1093,6.1093,6.1093,6.0848,6.0646,6.0702,6.0202,5.9885,6.0172,6.0467,6.094,6.1692,6.2577,6.3226,6.3437,6.3452,6.3489,6.36,6.3507,6.3358,6.317,6.2962,6.2751,6.2574,6.2476,6.2203,6.1709,6.0532,5.9581,5.8885,5.8568,5.8088,5.7478,5.7392,5.6914,5.6145,5.6145,5.5868,5.2659,5.38,5.4942,5.7943,5.9295,6.0097,6.0915,6.1093,6.1539,6.3089,6.341,6.3877,6.55,6.5804,6.5804,6.5804,6.4448,6.341,6.341,6.2057,6.1093,6.1093,6.1093,6.1093,6.1093,6.1093,6.1093,6.1093,6.1093,6.1093,6.1093,6.1093,6.1093,6.1093,6.1093,6.1093,6.1093,6.1093,6.1093,6.1093,6.1093,6.1093,6.1093,6.1093,6.1093,6.1093,6.1093,6.1093,6.1093,6.1093,6.1093,6.1093,6.1093,6.1093,6.1093,6.1093,6.1093,6.1093,6.1093,6.1093,6.1093,6.1093,6.1093,6.1093,6.1093,6.1093,6.1093,6.1093,6.1093,6.1093,6.1093,6.1093,6.1093,6.1093,6.1093,6.1093,6.1093,6.1197,6.1267,6.1343,6.1022,6.078,6.0828,6.1382,6.1744,6.1536,6.2419,6.3172,6.3227,6.3282,6.3358,6.3526,6.3581,6.347,6.3116,6.3057,6.2866,6.2518,6.244,6.2223,6.1847,6.137,6.0721,5.9874,5.9137,5.8534,5.8016,5.7847,5.7406,5.6689,5.6689,5.6365,5.0661,5.2962,5.562,5.8099,5.9295,6.0097,6.0915,6.1093,6.1539,0.0,6.341,6.3877,6.55,6.5804,6.5804,6.5804,6.4448,6.341,6.341,6.2057,6.1093,6.1093,6.1093,6.1093,6.1093,6.1093,6.1093,6.1093,6.1093,6.1093,6.1093,6.1093,6.1093,6.1093,6.1093,6.1093,6.1093,6.1093,6.1093,6.1093,6.1093,6.1093,6.1093,6.1093,6.1093,6.1093,6.1093,6.1093,6.1093,6.1093,6.1093,6.1093,6.1093,6.1093,6.1093,6.1093,6.1093,6.1093,6.1093,6.1093,6.1093,6.1093,6.1093,6.1093,6.1093,6.1093,6.1093,6.1093,6.1093,6.1093,6.1093,6.1093,6.1093,6.1093,6.1093,6.1093,6.1093,6.1108,6.1211,6.1505,6.1686,6.1622,6.1078,6.2136,6.2693,6.1658,6.2764,6.3531,6.3097,6.3189,6.3319,6.3338,6.3489,6.3581,6.3509,6.3191,6.2981,6.2906,6.2596,6.2361,6.2302,6.1867,6.1358,6.0812,5.9994,5.9215,5.8507,5.8464,5.813,5.7455,5.7455,5.7406,5.1767,5.4121,5.6436,5.8795,5.9972,6.0665,6.1022,6.1093,6.1539,6.3089,6.341,6.3877,6.55,6.5804,6.5804,6.5804,6.484,6.3912,6.3464,6.2464,6.1626,6.1147,6.1093,6.1093,6.1093,6.1093,6.1093,6.1093,6.1093,6.1093,6.1093,6.1093,6.1093,6.1093,6.1093,6.1093,6.1093,6.1093,6.1093,6.1093,6.1093,6.1093,6.1093,6.1093,6.1093,6.1093,6.1093,6.1093,6.1093,6.1093,6.1093,6.1093,6.1093,6.1093,6.1093,6.1093,6.1093,6.1093,6.1093,6.1093,6.1093,6.1093,6.1093,6.1093,6.1093,6.1093,6.1093,6.1093,6.1093,6.1093,6.1093,6.1093,6.1123,6.1197,6.1211,6.1241,6.1361,6.1285,6.1285,6.1548,6.176,6.1812,6.1563,6.2173,6.2507,6.202,6.2548,6.2985,6.2847,6.2921,6.3017,6.3114,6.3227,6.3227,6.3114,6.2923,6.277,6.2673,6.2498,6.24,6.24,6.1947,6.1489,6.1024,6.0404,5.9816,5.9225,5.9225,5.8853,5.8162,5.8162,5.7952,5.2409,5.4438,5.6169,5.8902,6.0201,6.0861,6.1058,6.1093,6.1539,6.3089,6.341,6.3877,6.55,6.5804,6.5804,6.5804,6.511,6.4307,6.3502,6.2768,6.2,6.12,6.1093,6.1093,6.1093,6.1093,6.1093,6.1093,6.1093,6.1093,6.1093,6.1093,6.1093,6.1093,6.1093,6.1093,6.1093,6.1093,6.1093,6.1093,6.1093,6.1093,6.1093,6.1093,6.1093,6.1093,6.1093,6.1093,6.1093,6.1093,6.1093,6.1093,6.1093,6.1093,6.1093,6.1093,6.1093,6.1093,6.1093,6.1093,6.1093,6.1093,6.1093,6.1093,6.1093,6.1093,6.1093,6.1093,6.1093,6.1093,6.1093,6.1123,6.1182,6.1285,6.1343,6.1415,6.1562,6.1519,6.143,6.1401,6.1807,6.2063,6.1771,6.2306,6.2735,6.2618,6.2802,6.3015,6.3153,6.3232,6.3329,6.3467,6.3354,6.3233,6.3076,6.2848,6.2632,6.2496,6.242,6.24,6.24,6.1947,6.1489,6.1024,6.0595,6.0179,5.9694,5.9694,5.9419,5.8885,5.8885,5.8594,5.0941,5.2434,5.4005,5.7814,5.9366,6.0151,6.0933,6.1093,6.1539,6.3089,6.341,6.3877,6.55,6.5804,6.5804,6.5804,6.511,6.4307,6.3502,6.2768,6.2,6.12,6.1093,6.1093,6.1093,6.1093,6.1093,6.1093,6.1093,6.1093,6.1093,6.1093,6.1093,6.1093,6.1093,6.1093,6.1093,6.1093,6.1093,6.1093,6.1093,6.1093,6.1093,6.1093,6.1093,6.1093,6.1093,6.1093,6.1093,6.1093,6.1093,6.1093,6.1093,6.1093,6.1093,6.1093,6.1093,6.1093,6.1093,6.1093,6.1093,6.1093,6.1093,6.1093,6.1093,6.1093,6.1093,6.1093,6.1093,6.1093,6.1093,6.1197,6.1281,6.1296,6.1462,6.1577,6.1591,6.169,6.1587,6.0965,6.2078,6.2728,6.145,6.2979,6.4159,6.3538,6.4042,6.4495,6.4515,6.4663,6.4804,6.4804,6.4349,6.4037,6.4037,6.3215,6.269,6.269,6.2515,6.24,6.24,6.1947,6.1489,6.1024,6.0595,6.0179,5.9694,5.9694,5.9678,5.963,5.963,5.9614,5.1471,5.2684,5.3826,5.7725,5.9295,5.9972,6.0258,6.0736,6.1397,6.2482,6.3071,6.3716,6.484,6.5447,6.5804,6.5804,6.5572,6.509,6.4287,6.3502,6.2732,6.1965,6.1414,6.1093,6.1093,6.1093,6.1093,6.1093,6.1093,6.1093,6.1093,6.1093,6.1093,6.1093,6.1093,6.1093,6.1093,6.1093,6.1093,6.1093,6.1093,6.1093,6.1093,6.1093,6.1093,6.1093,6.1093,6.1093,6.1093,6.1093,6.1093,6.1093,6.1093,6.1093,6.1093,6.1093,6.1093,6.1093,6.1093,6.1093,6.1093,6.1093,6.1093,6.1093,6.1093,6.145,6.1875,6.1875,6.2293,6.2761,6.2761,6.2863,6.2992,6.3131,6.3275,6.3389,6.3389,6.3016,6.277,6.3074,6.3589,6.3832,6.3385,6.3971,6.4427,6.4244,6.4427,6.4597,6.4597,6.4657,6.4718,6.4718,6.4541,6.4429,6.4429,6.4094,6.3715,6.3241,6.3148,6.2888,6.2434,6.2243,6.1947,6.1469,6.102,6.0425,5.9694,5.9694,5.9694,5.9694,5.9694,5.9694,5.156,5.2684,5.3773,5.7418,5.8724,5.9273,5.9776,6.0308,6.1004,6.209,6.2893,6.3645,6.445,6.5268,6.5804,6.5804,6.5804,6.5518,6.4717,6.4144,6.3431,6.2429,6.184,6.1397,6.1129,6.1093,6.1093,6.1093,6.1093,0.0,6.1093,6.1093,6.1093,6.1093,6.1093,6.1093,6.1093,6.1093,6.1093,6.1093,6.1093,6.1093,6.1093,6.1093,6.1093,6.1093,6.1093,6.1093,6.1093,6.1093,6.1093,6.1093,6.1093,6.1093,6.1093,6.1093,6.1093,6.1093,6.1093,6.1093,6.1093,6.1093,6.1272,6.1504,6.1504,6.2054,6.2679,6.2679,6.313,6.3599,6.3599,6.372,6.3869,6.4068,6.421,6.4379,6.465,6.4132,6.3776,6.4345,6.4866,6.5225,6.531,6.5541,6.5695,6.573,6.5508,6.5341,6.5341,6.5341,6.5341,6.5341,6.5121,6.4969,6.4969,6.4749,6.4394,6.39,6.3629,6.3274,6.2787,6.2242,6.1773,6.1469,6.0874,6.0276,5.9694,5.9694,5.9694,5.9694,5.9694,5.9694,0.0,0.0,0.0,5.6771,5.7574,5.7985,5.9487,5.9865,6.0344,6.1911,6.2839,6.3624,6.4378,6.5215,6.5768,6.5768,6.5786,6.5536,6.4753,6.461,6.4055,6.2554,6.2322,6.2,6.12,6.1111,6.1093,6.1093,6.1093,6.1093,6.1093,6.1093,6.1093,6.1093,6.1093,6.1093,6.1093,6.1093,6.1093,6.1093,6.1093,6.1093,6.1093,6.1093,6.1093,6.1093,6.1093,6.1093,6.1093,6.1093,6.1093,6.1093,6.1093,6.1093,6.1093,6.1093,6.1093,6.1093,6.1093,6.1093,6.1093,6.1129,6.1661,6.2304,6.2322,6.2875,6.3482,6.3482,6.3517,6.3553,6.3551,6.3694,6.3881,6.4016,6.4128,6.4444,6.5219,6.4936,6.4567,6.4672,6.5875,6.6896,6.7007,6.7568,6.7995,6.7955,6.7301,6.6791,6.6791,6.6791,6.6791,6.6791,6.6153,6.5734,6.5734,6.507,6.4664,6.463,6.3971,6.3562,6.3528,6.1948,6.1078,6.104,6.0184,5.9738,5.9716,5.9716,5.9694,5.9694,5.9694,5.9694,5.106,0.0,0.0,0.0,0.0,0.0,0.0,5.9095,6.0026,6.0469,6.1646,6.2679,6.2911,6.4037,6.4931,6.4931,6.5429,6.5732,6.55,6.4967,6.4432,6.4019,6.2967,6.2215,6.2,6.1432,6.1093,0.0,6.1093,6.1093,6.1093,6.1093,6.1093,6.1093,6.1093,6.1093,6.1093,6.1093,6.1093,6.1093,6.1093,6.1093,6.1093,6.1093,6.1093,6.1093,6.1093,6.1093,6.1093,6.1093,6.1093,6.1093,6.1093,6.1093,6.1093,6.1093,6.1093,6.1093,6.1093,6.1093,6.12,6.1786,6.2125,6.2411,6.2928,6.4037,6.5143,6.5143,6.6026,6.7048,6.7141,6.7186,6.7252,6.7299,6.733,6.7415,6.7646,6.7662,6.7541,6.715,6.7857,6.8359,6.7814,6.7875,6.7793,6.7219,6.6942,6.6791,6.6791,6.6791,6.6791,6.6791,6.6626,6.6508,6.6508,6.6322,6.5967,6.5425,6.5189,6.485,6.4326,6.3343,6.2656,6.2298,6.1222,6.051,6.0201,5.987,5.9694,5.9694,5.9694,5.9694,0.0,0.0,0.0,0.0,0.0,0.0,5.7917,5.8742,5.9598,6.0258,6.1414,6.2304,6.2304,6.3288,6.4216,6.4539,6.4985,6.5429,6.575,6.5411,6.4967,6.4646,6.3805,6.3127,6.2786,6.2072,6.1593,6.1593,6.1289,6.1093,6.1093,6.1093,6.1093,6.1093,6.1093,6.1093,6.1093,6.1093,6.1093,6.1093,6.1093,6.1093,6.1093,6.1093,6.1093,6.1093,6.1093,6.1093,6.1093,6.1093,6.1093,6.1093,6.1093,6.1093,6.1093,6.1093,6.1093,6.1147,6.1468,6.1789,6.2182,6.3002,6.3698,6.4338,6.4767,6.5768,6.6767,6.6767,6.7493,6.8288,6.8367,6.84,6.8416,6.8514,6.8578,6.8658,6.8703,6.9149,6.9401,6.8947,6.9058,6.9153,6.9023,6.8445,6.7853,6.7383,6.7009,6.6791,6.6791,6.6791,6.6791,6.6791,6.6791,6.6791,6.6791,6.6791,6.6626,6.6187,6.5865,6.5514,6.507,6.416,6.3297,6.2566,6.1657,6.0844,6.0114,5.9832,5.9694,5.9694,5.9694,5.9694,0.0,0.0,0.0,0.0,0.0,0.0,5.8135,5.8495,5.8973,6.0415,6.1358,6.1911,6.1911,6.2518,6.3252,6.395,6.4218,6.4697,6.5661,6.5804,6.5536,6.4807,6.4646,6.4307,6.3591,6.2857,6.2393,6.2304,6.1539,6.1093,6.1093,6.1093,6.1093,6.1093,6.1093,6.1093,6.1093,6.1093,6.1093,6.1093,6.1093,6.1093,6.1093,6.1093,6.1093,6.1093,6.1093,6.1093,6.1093,6.1093,6.1093,6.1093,6.1093,6.1093,6.1093,6.1093,6.12,6.145,6.2179,6.2964,6.3787,6.4608,6.5822,6.7033,6.7105,6.764,6.8248,6.837,6.8406,6.8406,6.8406,6.8406,6.8456,6.8621,6.88,6.8994,6.9099,6.9779,7.0309,7.0132,6.9749,6.9618,7.0161,6.9089,6.8073,6.7876,6.726,6.6791,6.6791,6.6791,6.6791,6.6791,6.6791,6.6791,6.6791,6.6791,6.6791,6.6791,6.6187,6.5814,6.5814,6.4715,6.3538,6.2354,6.1659,6.0767,5.9694,5.9694,5.9694,5.9694,5.9694,5.9694,0.0,0.0,0.0,0.0,0.0,0.0,5.6775,5.7346,5.7896,5.8217,5.8881,5.9402,5.9402,6.0044,6.0632,6.0793,6.1896,6.3448,6.5518,6.5804,6.575,6.559,6.4985,6.4539,6.4378,6.3645,6.2946,6.2339,6.1539,6.1093,6.1093,6.1093,6.1093,6.1093,6.1093,6.1093,6.1093,6.1093,6.1093,6.1093,6.1093,6.1093,6.1093,6.1093,6.1093,6.1093,6.1093,6.1093,6.1093,6.1093,6.1093,6.1093,6.1093,6.1093,6.1093,6.1093,6.1878,6.2982,6.3143,6.4142,6.5465,6.6268,6.6748,6.7122,6.7711,6.8444,6.9228,7.004,7.027,7.027,7.027,7.027,7.027,7.0303,7.0451,7.0563,7.0595,7.0364,7.015,7.0101,7.0604,7.0713,6.9618,6.9164,6.8524,6.7219,6.69,6.6791,6.6791,6.6791,6.6791,6.6791,6.6791,6.6791,6.6791,6.6791,6.6791,6.6791,6.6677,6.6592,6.6592,6.5782,6.4644,6.3126,6.1088,5.995,5.9694,5.9694,5.9694,5.9694,5.9694,5.9694,0.0,0.0,0.0,5.6294,0.0,0.0,0.0,5.7307,5.7699,5.8078,5.8438,5.8692,5.8692,5.903,5.9437,5.983,6.0915,6.211,6.3288,6.4465,6.5358,6.575,6.5447,6.5215,6.5215,6.4483,6.368,6.2911,6.2143,6.1715,6.1715,6.1307,6.1093,6.1093,6.1093,6.1093,6.1093,6.1093,6.1093,6.1093,6.1093,6.1093,6.1093,6.1093,6.1307,6.1715,6.1715,6.1911,6.2253,6.2253,6.2253,6.2199,6.184,6.1715,6.1804,6.2556,6.3341,6.4109,6.4927,6.5946,6.707,6.7891,6.8427,6.8801,6.9176,6.9654,7.0149,7.0662,7.0803,7.0803,7.0803,7.05,7.0228,7.0409,7.0199,6.9973,7.0085,6.9857,6.9648,6.9648,7.0035,6.9855,6.8328,6.7731,6.7173,6.6377,6.6254,6.6389,6.6741,6.6791,6.6791,6.6791,6.6791,6.6791,6.6791,6.6791,6.6791,6.6791,6.6791,6.6791,6.6791,6.6457,6.5316,6.3342,6.1278,6.0073,5.9694,5.9694,5.9694,5.9694,5.9694,5.9694,0.0,0.0,0.0,0.0,0.0,5.6561,0.0,0.0,0.0,0.0,0.0,0.0,0.0,0.0,0.0,5.8902,0.0,0.0,0.0,6.2324,0.0,6.4804,6.5286,6.5518,6.5358,6.4626,6.4019,6.3663,6.2661,6.2143,6.2286,6.1679,6.1254,6.1093,6.1093,6.1093,6.1093,6.1093,6.1093,6.1093,6.1093,6.1182,6.1325,6.1325,6.1753,6.2518,6.2518,6.2857,6.341,6.341,6.341,6.3339,6.275,6.2607,6.2877,6.4129,6.4878,6.5449,6.6749,6.7802,6.8676,6.932,6.9996,7.0565,7.0565,7.0718,7.0904,7.0904,7.0778,7.0671,7.0671,7.0079,6.9534,6.9805,6.9397,6.9008,6.9161,6.9083,6.8974,6.8974,6.8848,6.839,6.7303,6.6577,6.6042,6.5748,6.5688,6.5864,6.6326,6.6369,6.6369,6.6369,6.6369,6.6369,6.6369,6.6369,6.6369,6.6369,6.6369,6.6457,6.6592,6.6407,6.5322,6.3207,6.161,6.0445,5.9694,5.9694,5.9694,5.9694,5.9694,5.9694,0.0,0.0,0.0,0.0,5.6401,0.0,0.0,0.0,0.0,5.6633,0.0,0.0,0.0,0.0,0.0,0.0,0.0,0.0,5.8003,5.9398,6.0722,6.1539,6.3469,6.4465,6.3734,6.3,6.3092,6.4361,6.2467,6.1539,6.2268,6.2215,6.184,6.1111,6.1093,6.1093,6.1093,6.1093,6.1093,6.1093,6.1093,6.1468,6.2161,6.2161,6.2571,6.3285,6.3285,6.3321,6.341,6.341,6.341,6.3392,6.3321,6.3716,6.4361,6.4539,6.5929,6.7731,6.7909,6.8962,7.0246,7.0336,7.0545,7.077,7.077,7.0985,7.1245,7.1245,7.0722,7.0181,7.0181,6.9589,6.8994,6.9025,6.9093,6.9176,6.9192,6.8648,6.8144,6.8144,6.7565,6.7252,6.7786,6.7801,6.727,6.5918,6.5686,6.5485,6.4918,6.485,6.485,6.485,6.485,6.485,6.485,6.485,6.485,6.485,6.485,6.5138,6.5801,6.5027,6.399,6.27,6.1449,6.0445,5.9694,5.9694,5.9694,5.9694,5.9694,5.9694,0.0,0.0,0.0,0.0,0.0,0.0,5.6521,0.0,5.6401,0.0,0.0,0.0,0.0,0.0,0.0,0.0,5.686,0.0,0.0,0.0,5.9687,0.0,0.0,0.0,6.3357,6.3948,6.459,6.5251,6.3948,6.3288,6.3627,6.2804,6.2161,6.1822,6.1343,6.1093,6.1093,6.1093,6.1325,6.1804,6.1804,6.2215,6.2946,6.2946,6.3359,6.4109,6.4109,6.4358,6.4787,6.4787,6.4787,6.484,6.532,6.5411,6.5449,6.6822,6.7946,6.8873,6.9337,6.9925,7.0531,7.0633,7.0736,7.0837,7.1035,7.0856,7.0606,7.0606,7.0013,6.9401,6.9401,6.8806,6.8226,6.8352,6.8099,6.78,6.78,6.7547,6.7311,6.7311,6.704,6.6914,6.7258,6.6937,6.6441,6.5808,6.5697,6.5744,6.5859,6.5871,6.57,6.529,6.5231,6.5068,6.4637,6.4597,6.4597,6.4597,6.4597,6.4609,6.4648,6.4019,6.3127,6.1972,6.1215,6.0445,5.9694,5.9694,5.9694,5.9694,5.9694,5.9694,5.7017,0.0,0.0,0.0,0.0,0.0,0.0,0.0,0.0,0.0,0.0,0.0,0.0,0.0,0.0,0.0,0.0,5.7003,0.0,5.7207,0.0,0.0,0.0,0.0,0.0,6.3823,6.4697,6.5108,6.4608,6.4376,6.4593,6.3538,6.275,6.2322,6.1733,6.1307,6.1093,6.1307,6.1718,6.2304,6.25,6.3,6.3716,6.3716,6.4162,6.4931,6.4931,6.5253,6.5822,6.6036,6.6125,6.6232,6.7231,6.7174,6.6743,6.8605,6.9445,6.9729,7.0369,7.0599,7.0666,7.0752,7.0709,7.0662,7.0905,7.0457,6.9839,6.9839,6.9263,6.8652,6.8652,6.8056,6.749,6.7644,6.7206,6.6804,6.6804,6.6804,6.6804,6.6804,6.6804,6.6804,6.6804,6.6376,6.5923,6.5733,6.5701,6.5827,6.6145,6.6215,6.5984,6.5455,6.523,6.4868,6.4333,6.4111,6.3988,6.3988,6.4191,6.4089,6.3618,6.3342,6.2659,6.1497,6.103,6.0445,5.9694,5.9694,5.9694,5.9694,5.9694,5.9694,0.0,0.0,0.0,5.6611,0.0,0.0,0.0,0.0,5.6401,0.0,0.0,0.0,0.0,0.0,0.0,5.5384,5.5919,0.0,0.0,0.0,0.0,0.0,0.0,0.0,0.0,6.1218,6.186,6.3359,6.3448,6.377,6.4557,6.4557,6.3841,6.2357,6.2268,6.1893,6.1111,6.1875,6.2268,6.2304,6.3018,6.377,6.4557,6.4557,6.5001,6.5768,6.5768,6.5786,6.5857,6.6624,6.6962,6.7106,6.8624,6.8849,6.839,6.9066,6.9783,7.0496,7.0718,7.0884,7.0964,7.0836,7.0497,7.0121,7.0137,6.9705,6.9228,6.9228,6.8651,6.8039,6.8039,6.7423,6.6826,6.684,6.6822,6.6804,6.6804,6.6804,6.6804,6.6804,6.6804,6.6804,6.6804,6.6789,6.6515,6.5812,6.5698,6.5457,6.4757,6.4671,6.4654,6.4636,6.4002,6.3564,6.3544,6.2881,6.2485,6.2485,6.3142,6.331,6.2844,6.3076,6.2643,6.1426,6.1014,6.0445,5.9694,5.9694,5.9694,5.9694,5.9694,5.9694,0.0,0.0,5.9362,5.7846,0.0,0.0,0.0,0.0,0.0,0.0,0.0,0.0,0.0,0.0,5.6311,5.6044,5.6222,0.0,0.0,0.0,0.0,0.0,0.0,0.0,0.0,0.0,6.2842,6.3357,6.4376,6.5108,6.5375,6.4878,6.4126,6.3071,6.2554,6.2179,6.1911,6.2161,6.2821,6.3841,6.4073,6.4626,6.5393,6.5393,6.5536,6.5822,6.6357,6.6589,6.6642,6.7426,6.7729,6.782,6.8892,6.892,6.8478,6.9234,6.9391,6.9239,6.9322,6.9369,6.9433,6.9517,6.9433,6.9324,6.9467,6.9001,6.8416,6.8416,6.7836,6.7221,6.7221,6.7003,6.6804,6.6804,6.6804,6.6804,6.6804,6.6804,6.6804,6.6804,6.6804,6.6804,6.6804,6.6804,6.6712,6.6467,6.6437,6.6327,6.6094,6.6063,6.5873,6.5371,6.509,6.4566,6.3587,6.2832,6.24,6.24,6.2618,6.2554,6.2094,6.1862,6.1421,6.0738,6.0298,5.9959,5.9694,5.9694,5.9694,5.9694,5.9694,5.9694,6.0628,6.0837,0.0,5.9005,5.8903,0.0,5.7303,0.0,0.0,0.0,0.0,0.0,0.0,0.0,0.0,5.6789,5.6579,0.0,0.0,5.6401,0.0,0.0,0.0,0.0,0.0,0.0,6.2075,6.2946,6.4198,6.5197,0.0,6.5306,6.4537,6.3446,6.3216,6.2842,6.2304,6.2842,6.3627,6.4593,6.4878,6.5304,6.5804,6.5804,6.5964,6.625,6.6767,6.7158,6.7445,6.8212,6.8534,6.8605,6.9409,6.9366,6.8888,6.9408,6.9214,6.869,6.8608,6.8706,6.8816,6.8881,6.8747,6.8607,6.873,6.8199,6.7622,6.7912,6.742,6.6877,6.7148,6.7021,6.6804,6.6804,6.6804,6.6804,6.6804,6.6804,6.6804,6.6804,6.6804,6.6804,6.6804,6.6804,6.6804,6.6804,6.6804,6.6804,6.6804,6.6804,6.662,6.6141,6.5855,6.5108,6.3642,6.3045,6.2695,6.2437,6.24,6.2263,6.1967,6.135,6.101,6.099,6.0136,5.9824,6.0105,5.9824,5.9694,5.9694,5.9694,5.9694]}]]